Date StartTime U_cm/s V_cm/s W_cm/s Ustd_cm/s Vstd_cm/s Wstd_cm/s Uvar_(cm/s)^2 Vvar_(cm/s)^2 Wvar_(cm/s)^2 KE_(m/s)^2 TurbulentKE_(m/s)^2 HorizWindSpeed_cm/s FrictionSpeec_cm/s DragCoef SpeedOfSound_m/s SonicTemperature_C Pressure_mb 
12/31/2014  00:00:00     -129.153       62.161      -14.666       54.255       60.383       46.351     2943.557     3646.108     2148.423        1.475        0.437      143.334       38.066        0.071      328.186       -5.871      869.101
12/31/2014  00:01:00     -132.893      111.277      -35.394       68.960       63.413       34.413     4755.532     4021.208     1184.221        2.063        0.498      173.330       36.506        0.044      328.208       -5.836      869.095
12/31/2014  00:02:00     -131.821      102.682      -18.009       50.000       51.359       33.422     2499.953     2637.745     1117.046        1.725        0.313      167.094       11.192        0.004      328.242       -5.778      869.086
12/31/2014  00:03:00     -104.228       90.030      -19.406       57.538       42.353       33.319     3310.607     1793.776     1110.130        1.278        0.311      137.727       20.191        0.021      328.268       -5.736      869.084
12/31/2014  00:04:00      -99.702      125.065      -13.844       57.764       60.082       39.947     3336.724     3609.857     1595.797        1.716        0.427      159.943       37.081        0.054      328.207       -5.836      869.073
12/31/2014  00:05:00      -59.825      179.095      -17.834       46.324       66.118       23.611     2145.890     4371.563      557.478        2.152        0.354      188.823       27.013        0.020      328.178       -5.887      869.067
12/31/2014  00:06:00      -51.736       93.205       -9.036       42.519       60.472       23.691     1807.829     3656.828      561.260        0.873        0.301      106.601       27.287        0.066      328.201       -5.845      869.048
12/31/2014  00:07:00     -102.246      138.593      -29.311       39.057       53.209       26.533     1525.431     2831.184      703.998        1.779        0.253      172.228       21.161        0.015      328.200       -5.849      869.030
12/31/2014  00:08:00     -111.748      145.416      -31.262       55.743       75.370       45.291     3107.315     5680.621     2051.308        2.272        0.542      183.394       38.123        0.043      328.153       -5.925      869.023
12/31/2014  00:09:00     -102.721      156.061      -31.720       44.143       67.140       31.419     1948.584     4507.836      987.139        2.168        0.372      186.833       36.903        0.039      328.184       -5.875      869.044
12/31/2014  00:10:00      -72.848      152.905      -13.840       55.486       92.968       35.006     3078.745     8643.138     1225.426        2.091        0.647      169.372       41.878        0.061      328.189       -5.867      869.050
12/31/2014  00:11:00     -102.703       82.996      -12.346       62.321       50.217       36.128     3883.860     2521.716     1305.241        1.265        0.386      132.047       39.635        0.090      328.171       -5.895      869.049
12/31/2014  00:12:00      -60.026      217.637      -32.148       62.765       87.885       42.108     3939.449     7723.724     1773.098        3.272        0.672      225.763       43.375        0.037      328.144       -5.941      869.038
12/31/2014  00:13:00     -107.324      159.149      -35.108       56.141       56.484       33.796     3151.846     3190.495     1142.146        2.278        0.374      191.955       26.758        0.019      328.156       -5.922      869.035
12/31/2014  00:14:00      -22.769      127.661       -7.950       42.990       67.008       32.541     1848.127     4490.048     1058.902        1.214        0.370      129.676       33.444        0.067      328.106       -6.002      869.037
12/31/2014  00:15:00      -70.355      118.952      -22.052       42.305       62.201       21.758     1789.730     3868.933      473.391        1.286        0.307      138.201       14.037        0.010      328.202       -5.843      869.040
12/31/2014  00:16:00      -97.977      127.091      -22.465       48.220       73.160       27.538     2325.128     5352.348      758.364        1.734        0.422      160.473       27.703        0.030      328.221       -5.814      869.049
12/31/2014  00:17:00     -104.690      126.626      -30.477       48.849       56.652       33.794     2386.267     3209.432     1142.021        1.733        0.337      164.299       21.803        0.018      328.177       -5.885      869.039
12/31/2014  00:18:00     -142.433      118.317      -37.581       67.713       74.367       31.161     4585.001     5530.388      970.980        2.339        0.554      185.165       37.600        0.041      328.163       -5.908      869.028
12/31/2014  00:19:00     -113.405      159.342      -24.461       68.456       66.997       42.690     4686.233     4488.588     1822.450        2.492        0.550      195.578       41.273        0.045      328.123       -5.976      869.048
12/31/2014  00:20:00      -51.484      257.486      -39.364       54.075      148.160       32.150     2924.111    21951.416     1033.632        4.820        1.295      262.583       49.558        0.036      328.186       -5.872      869.061
12/31/2014  00:21:00      -24.866      221.838      -30.990       55.903       74.208       30.218     3125.140     5506.807      913.110        3.017        0.477      223.227       32.860        0.022      328.113       -5.992      869.053
12/31/2014  00:22:00     -126.953      145.761      -31.559       77.640       96.481       36.066     6027.960     9308.593     1300.770        2.750        0.832      193.297       32.710        0.029      328.190       -5.865      869.062
12/31/2014  00:23:00     -104.559      175.062      -24.944       62.317       90.181       48.071     3883.454     8132.557     2310.782        2.826        0.716      203.910       40.668        0.040      328.160       -5.916      869.052
12/31/2014  00:24:00      -75.945       97.443       -8.665       53.342       55.627       39.491     2845.326     3094.324     1559.537        1.142        0.375      123.542       40.113        0.105      328.198       -5.851      869.029
12/31/2014  00:25:00     -131.206      129.195      -12.812      102.796       79.357       50.561    10566.971     6297.553     2556.409        2.674        0.971      184.137       48.400        0.069      328.111       -5.994      869.025
12/31/2014  00:26:00     -114.593      180.957      -20.153       87.739       88.780       46.911     7698.084     7881.894     2200.684        3.203        0.889      214.189       40.439        0.036      328.172       -5.897      869.038
12/31/2014  00:27:00     -124.538      228.342      -39.495       71.689       90.982       46.682     5139.353     8277.785     2179.199        4.240        0.780      260.095       43.073        0.027      328.130       -5.964      869.039
12/31/2014  00:28:00      -97.994      150.915      -26.974       68.251       86.340       43.419     4658.224     7454.598     1885.239        2.355        0.700      179.939       37.125        0.043      328.195       -5.858      869.025
12/31/2014  00:29:00     -103.453      189.595      -23.612       65.598       80.334       43.164     4303.100     6453.548     1863.134        2.991        0.631      215.983       33.647        0.024      328.141       -5.946      869.017
12/31/2014  00:30:00     -137.508      291.516      -42.396       70.493      113.559       52.980     4969.219    12895.694     2806.891        6.318        1.034      322.320       51.050        0.025      328.104       -6.007      869.021
12/31/2014  00:31:00     -152.043      367.431      -41.567       76.623      149.149       71.638     5871.086    22245.470     5132.008        9.654        1.662      397.646       84.045        0.045      328.160       -5.914      869.029
12/31/2014  00:32:00     -161.123      351.679      -51.161       79.705      106.975       59.143     6352.843    11443.689     3497.946        8.677        1.065      386.832       52.300        0.018      328.176       -5.889      869.023
12/31/2014  00:33:00      -68.743      346.966      -42.450       69.267      111.392       46.681     4797.957    12408.120     2179.118        7.315        0.969      353.710       35.215        0.010      328.126       -5.971      869.034
12/31/2014  00:34:00     -152.814      316.309      -52.167      103.071      109.525       53.978    10623.533    11995.772     2913.643        7.582        1.277      351.289       55.106        0.025      328.102       -6.009      869.043
12/31/2014  00:35:00     -101.294      232.888      -31.690       74.154       84.980       48.179     5498.760     7221.606     2321.185        4.027        0.752      253.963       44.227        0.030      328.078       -6.049      869.047
12/31/2014  00:36:00      -99.369      237.967      -41.480       64.314      104.225       49.512     4136.316    10862.919     2451.399        4.283        0.873      257.881       51.882        0.040      328.086       -6.037      869.047
12/31/2014  00:37:00     -152.905      255.892      -40.678       67.155      108.091       44.821     4509.825    11683.717     2008.884        5.436        0.910      298.095       41.602        0.019      328.114       -5.990      869.030
12/31/2014  00:38:00      -37.093      248.508      -32.100       64.377       84.892       42.519     4144.382     7206.623     1807.859        3.866        0.658      251.261       43.645        0.030      328.069       -6.063      869.047
12/31/2014  00:39:00      -67.292      382.663      -37.567       93.396      102.763       56.491     8722.793    10560.331     3191.195        8.742        1.124      388.535       55.616        0.020      328.007       -6.164      869.057
12/31/2014  00:40:00     -109.213      245.056      -11.738       88.325      121.658       63.373     7801.345    14800.670     4016.200        4.936        1.331      268.290       75.661        0.080      328.039       -6.110      869.065
12/31/2014  00:41:00      -67.243      198.314      -11.884       81.651      103.194       40.391     6666.855    10649.001     1631.455        3.147        0.947      209.404       40.423        0.037      328.038       -6.113      869.039
12/31/2014  00:42:00     -107.577      207.196      -33.443       94.080       89.537       43.009     8850.961     8016.937     1849.773        3.717        0.936      233.459       34.891        0.022      328.149       -5.932      869.109
12/31/2014  00:43:00     -112.229      325.675      -31.214       99.931      116.341       62.932     9986.277    13535.282     3960.411        7.355        1.374      344.470       57.110        0.027      328.016       -6.149      869.152
12/31/2014  00:44:00     -103.693      298.997      -37.402       90.271      122.368       43.294     8148.803    14974.004     1874.352        6.327        1.250      316.467       55.102        0.030      328.048       -6.097      869.158
12/31/2014  00:45:00     -146.151      304.651      -35.712      108.397      106.561       62.519    11750.003    11355.144     3908.620        7.123        1.351      337.894       62.178        0.034      327.984       -6.201      869.164
12/31/2014  00:46:00      -48.792      255.993      -26.989       73.720       85.693       43.909     5434.569     7343.371     1927.991        4.167        0.735      260.601       39.111        0.023      328.017       -6.148      869.160
12/31/2014  00:47:00     -139.377      279.018      -35.198      102.804      107.999       62.761    10568.720    11663.808     3939.000        6.234        1.309      311.892       65.608        0.044      328.014       -6.153      869.170
12/31/2014  00:48:00     -113.618      306.766      -36.104       87.141      103.103       50.925     7593.538    10630.143     2593.390        6.456        1.041      327.131       49.100        0.023      328.029       -6.128      869.199
12/31/2014  00:49:00     -208.593      277.835      -51.246       95.971      141.399       55.197     9210.467    19993.735     3046.722        7.778        1.613      347.424       59.703        0.030      328.137       -5.953      869.219
12/31/2014  00:50:00     -106.440      254.588      -27.639       80.566       81.137       48.223     6490.908     6583.261     2325.488        4.615        0.770      275.943       43.961        0.025      328.096       -6.019      869.237
12/31/2014  00:51:00     -122.896      238.762      -33.718       86.994      133.700       53.846     7567.873    17875.646     2899.342        5.079        1.417      268.534       55.348        0.042      328.146       -5.938      869.233
12/31/2014  00:52:00     -103.745      326.350      -48.154      103.833       95.293       49.710    10781.200     9080.747     2471.069        7.096        1.117      342.443       40.907        0.014      328.101       -6.012      869.244
12/31/2014  00:53:00     -125.478      301.560      -35.106       87.204       86.291       57.093     7604.506     7446.210     3259.650        6.311        0.916      326.624       44.621        0.019      327.982       -6.206      869.264
12/31/2014  00:54:00      -59.721      300.392      -28.306       70.921      138.321       52.973     5029.778    19132.654     2806.090        6.078        1.348      306.271       61.071        0.040      327.953       -6.251      869.297
12/31/2014  00:55:00      -54.038      232.731      -33.724       58.860       71.245       37.693     3464.483     5075.847     1420.781        3.409        0.498      238.923       28.458        0.014      327.974       -6.218      869.290
12/31/2014  00:56:00      -31.267      275.302      -34.925       65.818       91.285       49.482     4332.001     8332.983     2448.509        4.655        0.756      277.072       51.994        0.035      327.898       -6.342      869.291
12/31/2014  00:57:00     -153.387      256.595      -40.264       76.487       85.467       48.068     5850.256     7304.606     2310.556        5.322        0.773      298.946       35.643        0.014      328.023       -6.140      869.301
12/31/2014  00:58:00     -142.045      224.992      -38.996       85.549      110.667       40.797     7318.623    12247.132     1664.396        4.677        1.062      266.080       37.301        0.020      328.094       -6.023      869.314
12/31/2014  00:59:00     -119.862      207.208      -28.106       67.253       75.818       44.886     4522.954     5748.337     2014.794        3.519        0.614      239.379       40.979        0.029      328.073       -6.056      869.290
12/31/2014  01:00:00     -154.683      203.759      -37.697       72.640       90.136       48.695     5276.528     8124.504     2371.226        4.132        0.789      255.822       51.136        0.040      328.138       -5.951      869.314
12/31/2014  01:01:00     -123.655      321.268      -44.360       82.099      120.453       48.479     6740.244    14508.907     2350.195        7.203        1.180      344.244       36.608        0.011      328.031       -6.126      869.314
12/31/2014  01:02:00     -131.443      172.091      -24.643       74.370       81.170       47.790     5530.946     6588.499     2283.843        3.095        0.720      216.547       44.588        0.042      328.102       -6.008      869.287
12/31/2014  01:03:00     -168.657      256.942      -56.227       92.614       83.916       47.705     8577.357     7041.847     2275.749        5.776        0.895      307.351       50.345        0.027      328.048       -6.098      869.299
12/31/2014  01:04:00      -59.829      324.940      -41.139       64.394      102.363       39.539     4146.627    10478.282     1563.321        6.352        0.809      330.402       44.752        0.018      327.971       -6.223      869.296
12/31/2014  01:05:00     -118.667      309.633      -35.738       84.051       73.857       45.291     7064.599     5454.867     2051.247        6.290        0.729      331.594       32.590        0.010      327.987       -6.197      869.279
12/31/2014  01:06:00     -164.910      206.886      -40.186       71.506       90.298       44.701     5113.149     8153.687     1998.138        4.344        0.763      264.570       41.182        0.024      328.006       -6.165      869.286
12/31/2014  01:07:00     -102.837      203.390      -29.407       78.520       94.111       40.495     6165.410     8856.953     1639.851        3.473        0.833      227.910       49.948        0.048      327.990       -6.191      869.273
12/31/2014  01:08:00      -14.055      259.922      -34.614       63.569       71.386       37.212     4041.056     5095.915     1384.749        3.974        0.526      260.302       36.288        0.019      327.930       -6.288      869.253
12/31/2014  01:09:00      -47.123      150.848      -21.090       51.256       61.177       28.970     2627.137     3742.666      839.236        1.631        0.360      158.037       24.366        0.024      327.889       -6.354      869.245
12/31/2014  01:10:00      -61.336      149.121      -22.710       38.504       34.736       24.389     1482.574     1206.621      594.842        1.490        0.164      161.243       17.343        0.012      328.034       -6.118      869.247
12/31/2014  01:11:00      -74.450      197.386      -26.015       56.644       80.559       38.109     3208.577     6489.823     1452.317        2.816        0.558      210.960       37.631        0.032      328.009       -6.159      869.256
12/31/2014  01:12:00     -153.500      250.485      -40.075       86.584       94.731       55.323     7496.766     8973.962     3060.603        5.372        0.977      293.777       57.572        0.038      327.993       -6.188      869.271
12/31/2014  01:13:00      -86.179      252.535      -28.210       77.927      105.822       41.998     6072.676    11198.256     1763.837        4.551        0.952      266.835       40.646        0.023      327.999       -6.177      869.299
12/31/2014  01:14:00      -47.226      185.158      -19.864       43.357       41.879       27.233     1879.828     1753.881      741.627        2.064        0.219      191.086       20.128        0.011      327.945       -6.263      869.285
12/31/2014  01:15:00      -62.527      224.355      -25.599       84.592       91.074       50.395     7155.802     8294.501     2539.610        3.644        0.899      232.905       52.449        0.051      327.940       -6.274      869.268
12/31/2014  01:16:00       -8.239      117.861      -11.779       49.616       52.471       32.702     2461.791     2753.188     1069.443        1.019        0.314      118.148       27.788        0.055      327.889       -6.354      869.285
12/31/2014  01:17:00      -18.642      161.761      -17.758       55.417       87.206       38.082     3071.096     7604.813     1450.255        1.948        0.606      162.832       36.844        0.051      327.821       -6.467      869.313
12/31/2014  01:18:00      -39.842      246.077      -32.310       31.695       57.447       21.734     1004.572     3300.185      472.369        3.398        0.239      249.281       19.975        0.006      327.930       -6.290      869.330
12/31/2014  01:19:00      -97.101      175.111      -23.253       60.386       56.193       32.134     3646.490     3157.639     1032.564        2.423        0.392      200.231       34.663        0.030      327.995       -6.183      869.341
12/31/2014  01:20:00      -66.724      119.859      -15.709       47.956       59.753       27.801     2299.768     3570.475      772.870        1.285        0.332      137.180       26.849        0.038      328.053       -6.088      869.363
12/31/2014  01:21:00      -85.081       95.599      -13.877       47.820       53.217       34.941     2286.778     2832.065     1220.848        1.145        0.317      127.976       31.627        0.061      327.982       -6.201      869.358
12/31/2014  01:22:00      -81.668      252.420      -38.622       65.937       79.263       37.186     4347.626     6282.601     1382.792        4.194        0.601      265.303       34.503        0.017      327.923       -6.301      869.371
12/31/2014  01:23:00      -76.835      279.854      -34.035       54.231       85.332       40.804     2941.037     7281.596     1664.965        4.863        0.594      290.210       42.740        0.022      327.957       -6.245      869.378
12/31/2014  01:24:00      -19.258      249.940      -26.661       39.552       68.951       35.871     1564.355     4754.240     1286.707        3.558        0.380      250.681       36.064        0.021      327.896       -6.345      869.390
12/31/2014  01:25:00      -65.515      159.563      -18.664       61.778       72.469       43.036     3816.562     5251.736     1852.096        2.051        0.546      172.490       36.657        0.045      327.970       -6.222      869.396
12/31/2014  01:26:00       21.323      132.869       -1.071       50.223       74.621       33.091     2522.347     5568.368     1095.019        1.365        0.459      134.569       35.248        0.069      327.834       -6.444      869.385
12/31/2014  01:27:00       39.236      135.406      -15.342       39.060       74.112       41.470     1525.664     5492.577     1719.763        1.442        0.437      140.976       39.809        0.080      327.686       -6.685      869.392
12/31/2014  01:28:00       45.759       92.881        1.182       55.806       57.266       41.623     3114.283     3279.405     1732.487        0.942        0.406      103.541       38.708        0.140      327.644       -6.752      869.404
12/31/2014  01:29:00       41.780      130.397      -29.031       45.482       44.939       33.620     2068.573     2019.491     1130.334        1.240        0.261      136.927       25.804        0.036      327.663       -6.722      869.400
12/31/2014  01:30:00       -2.160      112.505      -15.807       33.947       43.907       28.395     1152.421     1927.816      806.263        0.840        0.194      112.526       26.341        0.055      327.635       -6.768      869.404
12/31/2014  01:31:00       16.410      179.211      -24.990       41.432       55.643       34.491     1716.622     3096.112     1189.649        1.951        0.300      179.961       29.891        0.028      327.614       -6.802      869.402
12/31/2014  01:32:00        2.389      204.815      -24.209       60.986       75.204       33.761     3719.232     5655.698     1139.830        2.653        0.526      204.829       24.748        0.015      327.640       -6.761      869.394
12/31/2014  01:33:00       -7.263      191.186      -25.474       57.939      102.564       31.327     3356.910    10519.367      981.352        2.605        0.743      191.324       40.334        0.044      327.617       -6.798      869.389
12/31/2014  01:34:00      -11.988      228.184      -27.609       58.227       52.335       26.087     3390.378     2738.909      680.539        2.989        0.340      228.499       19.954        0.008      327.660       -6.729      869.387
12/31/2014  01:35:00      -39.424      197.799      -19.385       63.818       63.680       39.694     4072.731     4055.108     1575.643        2.538        0.485      201.690       36.242        0.032      327.664       -6.721      869.390
12/31/2014  01:36:00       -2.070      228.865      -28.957       38.053       73.927       33.086     1447.998     5465.130     1094.671        3.061        0.400      228.875       35.864        0.025      327.664       -6.723      869.390
12/31/2014  01:37:00       -7.140      152.637      -10.535       38.223       80.183       35.765     1460.986     6429.307     1279.112        1.631        0.458      152.804       40.984        0.072      327.627       -6.781      869.367
12/31/2014  01:38:00       17.287      231.742      -36.183       36.793       60.183       29.355     1353.718     3622.016      861.734        3.057        0.292      232.386       26.910        0.013      327.652       -6.745      869.361
12/31/2014  01:39:00        0.953      206.610      -30.497       55.217       52.806       32.214     3048.893     2788.494     1037.733        2.525        0.344      206.612       29.718        0.021      327.626       -6.783      869.360
12/31/2014  01:40:00      -31.785      253.058      -34.668       41.766       65.010       26.128     1744.381     4226.318      682.662        3.645        0.333      255.046       25.022        0.010      327.706       -6.654      869.366
12/31/2014  01:41:00      -26.165      249.452      -35.223       67.417       80.180       37.529     4545.086     6428.888     1408.415        3.826        0.619      250.820       34.059        0.018      327.742       -6.595      869.368
12/31/2014  01:42:00      -40.516      286.911      -31.017       61.479       61.316       34.877     3779.659     3759.598     1216.399        4.684        0.438      289.758       31.337        0.012      327.749       -6.585      869.370
12/31/2014  01:43:00      -55.258      303.848      -32.559       88.215       95.849       49.583     7781.812     9187.008     2458.477        5.793        0.971      308.832       50.045        0.026      327.776       -6.542      869.377
12/31/2014  01:44:00        0.344      301.364      -32.512       65.561      105.982       53.952     4298.187    11232.247     2910.795        5.516        0.922      301.365       65.546        0.047      327.719       -6.634      869.374
12/31/2014  01:45:00        3.929      237.913      -21.515       51.867       89.976       48.221     2690.142     8095.722     2325.242        3.509        0.656      237.945       46.263        0.038      327.668       -6.717      869.364
12/31/2014  01:46:00        9.384      232.975      -24.285       63.358      106.159       46.419     4014.230    11269.701     2154.746        3.619        0.872      233.164       47.508        0.042      327.709       -6.650      869.342
12/31/2014  01:47:00        4.673      210.621      -34.740       50.546       47.148       32.764     2554.930     2222.948     1073.482        2.572        0.293      210.673       20.533        0.009      327.684       -6.689      869.325
12/31/2014  01:48:00       26.894      196.597      -22.523       51.912       79.228       40.490     2694.885     6277.105     1639.458        2.524        0.531      198.428       41.422        0.044      327.663       -6.724      869.314
12/31/2014  01:49:00       34.105      153.014      -20.681       56.308       66.228       38.235     3170.556     4386.149     1461.924        1.701        0.451      156.769       40.813        0.068      327.628       -6.779      869.315
12/31/2014  01:50:00       40.725       86.076       14.439       54.690       65.026       49.452     2990.997     4228.409     2445.490        0.947        0.483       95.223       45.719        0.231      327.575       -6.864      869.328
12/31/2014  01:51:00       29.233      106.032       -9.832       50.023       56.515       35.594     2502.313     3193.948     1266.903        0.958        0.348      109.988       34.585        0.099      327.591       -6.837      869.302
12/31/2014  01:52:00      -20.493      135.509      -11.253       49.039       40.539       30.305     2404.835     1643.376      918.413        1.194        0.248      137.050       30.241        0.049      327.690       -6.677      869.300
12/31/2014  01:53:00       28.339      199.559      -11.922       56.529      134.041       52.848     3195.524    17967.116     2792.946        3.236        1.198      201.561       65.968        0.107      327.613       -6.805      869.313
12/31/2014  01:54:00      -23.010      324.351      -40.832       66.527       60.657       40.130     4425.809     3679.274     1610.423        5.856        0.486      325.166       27.634        0.007      327.683       -6.694      869.328
12/31/2014  01:55:00       -7.895      283.700      -35.827       72.051       78.213       51.783     5191.285     6117.266     2681.491        4.791        0.700      283.810       45.623        0.026      327.692       -6.678      869.319
12/31/2014  01:56:00      -53.375      304.970      -40.109       70.699       97.092       43.739     4998.307     9426.818     1913.084        5.690        0.817      309.605       46.693        0.023      327.734       -6.609      869.323
12/31/2014  01:57:00      -15.426      243.252      -20.351       75.606      113.738       54.510     5716.291    12936.249     2971.345        4.072        1.081      243.741       60.494        0.062      327.705       -6.656      869.350
12/31/2014  01:58:00      -18.493      253.979      -24.584       57.726       85.127       41.848     3332.247     7246.666     1751.243        3.889        0.617      254.651       43.457        0.029      327.685       -6.691      869.390
12/31/2014  01:59:00      -23.733      250.961      -39.284       72.590      101.896       50.462     5269.246    10382.755     2546.407        4.164        0.910      252.080       57.426        0.052      327.659       -6.733      869.430
12/31/2014  02:00:00      -26.162      315.770      -40.064       75.887       78.164       49.213     5758.861     6109.545     2421.875        5.814        0.715      316.851       41.074        0.017      327.680       -6.697      869.456
12/31/2014  02:01:00      -16.952      286.113      -33.170       69.530       89.072       44.228     4834.420     7933.797     1956.110        4.898        0.736      286.615       49.201        0.029      327.641       -6.761      869.449
12/31/2014  02:02:00        4.449      207.568      -35.480       48.152       62.102       32.072     2318.616     3856.631     1028.628        2.578        0.360      207.615       27.339        0.017      327.627       -6.782      869.446
12/31/2014  02:03:00      -10.021      263.468      -22.692       91.241      160.019       58.860     8324.884    25606.143     3464.543        5.371        1.870      263.658       83.888        0.101      327.635       -6.769      869.429
12/31/2014  02:04:00      -10.719      232.428      -22.479       83.151       88.440       53.320     6914.113     7821.675     2842.985        3.611        0.879      232.675       44.020        0.036      327.626       -6.785      869.405
12/31/2014  02:05:00      -50.476      222.128      -24.913       68.228       77.272       39.221     4655.127     5970.949     1538.312        3.233        0.608      227.791       34.761        0.023      327.651       -6.744      869.401
12/31/2014  02:06:00      -57.698      251.888      -24.192       60.229       66.282       33.635     3627.587     4393.311     1131.282        3.826        0.458      258.411       32.477        0.016      327.643       -6.759      869.390
12/31/2014  02:07:00      -36.917      234.106      -21.098       93.749      101.340       64.360     8788.827    10269.746     4142.265        3.990        1.160      236.999       63.460        0.072      327.663       -6.725      869.385
12/31/2014  02:08:00      -45.428      303.759      -35.445       56.013      106.423       44.353     3137.504    11325.802     1967.159        5.601        0.822      307.137       46.603        0.023      327.658       -6.734      869.375
12/31/2014  02:09:00      -30.822      330.089      -36.144       92.737      140.445       49.438     8600.166    19724.742     2444.142        7.099        1.538      331.525       57.410        0.030      327.692       -6.677      869.389
12/31/2014  02:10:00        9.529      387.459      -49.511       94.193      121.750       58.170     8872.349    14822.947     3383.709        8.987        1.354      387.576       55.182        0.020      327.664       -6.724      869.399
12/31/2014  02:11:00     -139.297      313.426      -37.703      104.129      128.958       69.734    10842.779    16630.108     4862.846        7.569        1.617      342.987       74.980        0.048      327.713       -6.644      869.414
12/31/2014  02:12:00      -13.440      323.226      -34.035       73.217      103.727       53.254     5360.676    10759.363     2835.978        6.238        0.948      323.506       53.182        0.027      327.656       -6.738      869.430
12/31/2014  02:13:00      -68.557      252.058      -33.896       70.734      103.763       43.874     5003.246    10766.726     1924.969        4.354        0.885      261.215       48.846        0.035      327.664       -6.722      869.436
12/31/2014  02:14:00      -21.715      254.899      -37.535       61.888       61.956       34.895     3830.142     3838.547     1217.632        3.787        0.444      255.822       40.561        0.025      327.648       -6.750      869.433
12/31/2014  02:15:00      -62.339      271.294      -28.130       65.116      115.019       42.660     4240.077    13229.447     1819.862        4.878        0.964      278.364       50.603        0.033      327.648       -6.749      869.431
12/31/2014  02:16:00       -0.489      311.034      -41.856       80.094       72.058       47.075     6415.059     5192.305     2216.020        5.616        0.691      311.034       41.203        0.018      327.626       -6.786      869.428
12/31/2014  02:17:00      -44.753      285.942      -30.613       66.142      133.494       50.571     4374.732    17820.620     2557.424        5.472        1.238      289.423       65.664        0.051      327.625       -6.787      869.437
12/31/2014  02:18:00      -52.746      261.413      -26.218       68.932      119.472       45.649     4751.639    14273.511     2083.828        4.645        1.055      266.681       53.279        0.040      327.694       -6.674      869.454
12/31/2014  02:19:00      -54.978      239.203      -24.711       87.184       87.017       43.747     7600.975     7571.964     1913.783        3.897        0.854      245.440       42.071        0.029      327.673       -6.709      869.452
12/31/2014  02:20:00      -48.645      288.593      -37.138       57.280       57.427       33.389     3281.030     3297.894     1114.830        4.736        0.385      292.664       18.918        0.004      327.658       -6.734      869.438
12/31/2014  02:21:00      -36.391      267.288      -35.187       39.453       49.466       22.533     1556.562     2446.911      507.743        3.926        0.226      269.754       15.658        0.003      327.693       -6.677      869.425
12/31/2014  02:22:00      -38.947      155.724      -21.498       41.156       64.934       33.201     1693.816     4216.462     1102.339        1.662        0.351      160.520       23.187        0.021      327.715       -6.637      869.437
12/31/2014  02:23:00      -38.772      126.649      -18.173       49.203       48.008       29.177     2420.955     2304.798      851.310        1.172        0.279      132.451       24.784        0.035      327.683       -6.689      869.457
12/31/2014  02:24:00      -92.789       80.473       -6.122       94.438      103.812       48.189     8918.585    10776.922     2322.203        1.857        1.101      122.824       55.918        0.207      327.742       -6.594      869.474
12/31/2014  02:25:00      -69.569      203.551       -9.271       65.010       95.205       52.337     4226.328     9064.052     2739.126        3.119        0.801      215.112       52.736        0.060      327.697       -6.669      869.511
12/31/2014  02:26:00      -18.825       93.117       -6.255       37.482       47.817       30.761     1404.934     2286.457      946.261        0.685        0.232       95.001       23.153        0.059      327.746       -6.585      869.536
12/31/2014  02:27:00     -112.062      100.656      -34.167       45.426       53.923       25.393     2063.478     2907.738      644.818        1.474        0.281      150.630       24.504        0.026      327.770       -6.547      869.550
12/31/2014  02:28:00       -1.825      225.673      -36.828       63.353       88.195       40.519     4013.596     7778.415     1641.788        3.286        0.672      225.681       40.883        0.033      327.680       -6.698      869.556
12/31/2014  02:29:00      -32.529      234.381      -34.487       40.246       58.864       25.373     1619.719     3464.999      643.796        3.145        0.286      236.628       22.034        0.009      327.690       -6.679      869.570
12/31/2014  02:30:00        2.488       88.614        7.363       60.688       56.405       38.392     3682.974     3181.481     1473.960        0.812        0.417       88.649       44.245        0.249      327.641       -6.755      869.590
12/31/2014  02:31:00      -13.914      137.484      -15.201       41.553       48.959       29.136     1726.617     2397.031      848.918        1.215        0.249      138.186       27.185        0.039      327.602       -6.821      869.621
12/31/2014  02:32:00      -33.263      104.909       -7.836       36.806       62.951       29.203     1354.676     3962.820      852.843        0.917        0.309      110.056       33.348        0.092      327.616       -6.798      869.648
12/31/2014  02:33:00      -48.355       89.421      -22.706       38.865       45.726       27.356     1510.469     2090.860      748.356        0.760        0.217      101.658       24.688        0.059      327.663       -6.720      869.678
12/31/2014  02:34:00      -83.351      174.413      -24.524       88.572       52.085       39.417     7844.976     2712.863     1553.673        2.504        0.606      193.306       35.927        0.035      327.675       -6.703      869.683
12/31/2014  02:35:00      -77.368       44.465       -8.616       66.519       60.006       36.410     4424.833     3600.674     1325.691        0.869        0.468       89.236       41.705        0.218      327.628       -6.780      869.695
12/31/2014  02:36:00        6.998       91.223      -12.683       34.396       40.059       23.975     1183.094     1604.697      574.816        0.595        0.168       91.491       19.964        0.048      327.560       -6.889      869.697
12/31/2014  02:37:00      -24.235      129.095      -19.494       21.057       34.088       16.443      443.383     1161.965      270.360        0.975        0.094      131.350       14.309        0.012      327.573       -6.868      869.702
12/31/2014  02:38:00      -18.290      134.150      -18.816       31.958       30.412       22.175     1021.300      924.895      491.725        1.056        0.122      135.391       13.305        0.010      327.498       -6.990      869.718
12/31/2014  02:39:00      -19.588      101.844      -13.380       22.626       35.791       19.838      511.933     1280.967      393.552        0.656        0.109      103.711       19.654        0.036      327.544       -6.916      869.726
12/31/2014  02:40:00       10.796      107.993      -16.664       25.324       28.524       17.758      641.306      813.598      315.358        0.691        0.089      108.531       14.275        0.017      327.445       -7.076      869.730
12/31/2014  02:41:00       -0.663       82.105       -2.073       25.659       41.604       19.321      658.367     1730.883      373.282        0.475        0.138       82.107       18.974        0.053      327.471       -7.033      869.742
12/31/2014  02:42:00        2.754       76.186      -13.574       17.608       15.910       14.229      310.050      253.140      202.468        0.338        0.038       76.236        5.124        0.005      327.441       -7.083      869.747
12/31/2014  02:43:00      -11.281       47.622       -7.433       25.798       29.150       18.129      665.554      849.709      328.650        0.215        0.092       48.940       16.552        0.114      327.464       -7.046      869.761
12/31/2014  02:44:00       20.372      164.661      -25.510       29.773       44.919       26.803      886.426     2017.709      718.386        1.590        0.181      165.917       20.636        0.015      327.396       -7.157      869.783
12/31/2014  02:45:00       -6.107      134.344      -19.924       23.117       29.450       22.722      534.382      867.309      516.304        1.020        0.096      134.482        6.229        0.002      327.430       -7.101      869.798
12/31/2014  02:46:00       -1.105      107.145      -14.753       23.641       22.029       18.115      558.907      485.263      328.141        0.654        0.069      107.151       13.321        0.015      327.408       -7.136      869.817
12/31/2014  02:47:00      -36.913       62.818       -5.821       29.864       44.577       22.837      891.842     1987.070      521.528        0.437        0.170       72.860       12.371        0.029      327.455       -7.059      869.827
12/31/2014  02:48:00      -49.749       67.732      -16.982       41.604       30.114       20.951     1730.929      906.874      438.950        0.521        0.154       84.039       21.477        0.065      327.447       -7.072      869.820
12/31/2014  02:49:00       17.384       75.325        1.706       30.832       34.995       23.140      950.634     1224.644      535.481        0.434        0.136       77.305       23.463        0.092      327.374       -7.191      869.812
12/31/2014  02:50:00      -20.097       48.133       -4.459       63.571       41.179       28.292     4041.276     1695.710      800.439        0.464        0.327       52.160       31.292        0.360      327.341       -7.246      869.816
12/31/2014  02:51:00      -40.059      133.504      -33.525       55.434       53.565       26.988     3072.976     2869.179      728.337        1.361        0.334      139.385       34.531        0.061      327.380       -7.182      869.812
12/31/2014  02:52:00      -28.530      106.788       -6.391       41.355       59.463       36.037     1710.240     3535.876     1298.685        0.940        0.327      110.533       35.528        0.103      327.379       -7.184      869.802
12/31/2014  02:53:00      -66.538       56.554       -0.709       67.070       39.318       29.686     4498.342     1545.927      881.248        0.727        0.346       87.325       21.078        0.058      327.469       -7.037      869.777
12/31/2014  02:54:00      -19.541      156.959        0.089       45.675       58.739       39.627     2086.183     3450.267     1570.336        1.606        0.355      158.171       34.729        0.048      327.349       -7.231      869.768
12/31/2014  02:55:00      -20.337       94.118       -8.165       26.124       60.020       21.567      682.455     3602.440      465.154        0.704        0.238       96.290       28.703        0.089      327.332       -7.259      869.758
12/31/2014  02:56:00      -40.123       57.364        2.675       24.760       38.253       24.603      613.063     1463.257      605.308        0.379        0.134       70.003       23.818        0.116      327.353       -7.226      869.743
12/31/2014  02:57:00      -10.512       62.691      -16.409       26.875       25.568       12.267      722.240      653.707      150.480        0.292        0.076       63.566        8.666        0.019      327.357       -7.219      869.719
12/31/2014  02:58:00        7.860       94.982       -7.931       32.235       29.165       18.033     1039.082      850.613      325.206        0.568        0.111       95.307       16.667        0.031      327.275       -7.351      869.685
12/31/2014  02:59:00      -12.907       34.598       -5.417       40.481       27.688       24.599     1638.693      766.616      605.132        0.220        0.151       36.927       20.178        0.299      327.266       -7.367      869.673
12/31/2014  03:00:00      -23.892      101.313      -11.731       29.226       84.066       28.566      854.183     7067.050      816.000        0.985        0.437      104.092       37.944        0.133      327.378       -7.184      869.662
12/31/2014  03:01:00      -55.456      171.611      -32.434       42.982       59.110       28.391     1847.430     3494.040      806.041        1.986        0.307      180.348       29.537        0.027      327.414       -7.128      869.635
12/31/2014  03:02:00      -19.538      158.757      -27.296       54.643       56.034       32.648     2985.867     3139.842     1065.860        1.676        0.360      159.955       25.331        0.025      327.390       -7.166      869.609
12/31/2014  03:03:00      -28.744      139.513       -0.678       54.928       57.080       40.457     3017.048     3258.118     1636.775        1.410        0.396      142.443       35.210        0.061      327.350       -7.231      869.606
12/31/2014  03:04:00       -2.626      203.718      -19.373       69.754       92.761       50.365     4865.642     8604.654     2536.644        2.894        0.800      203.735       51.939        0.065      327.319       -7.284      869.607
12/31/2014  03:05:00     -127.578      217.587      -43.163       59.819       75.874       35.767     3578.332     5756.883     1279.263        3.805        0.531      252.230       38.380        0.023      327.409       -7.138      869.602
12/31/2014  03:06:00      -33.271      142.638      -14.569       55.369       45.963       29.919     3065.706     2112.565      895.173        1.387        0.304      146.467       29.496        0.041      327.378       -7.185      869.600
12/31/2014  03:07:00      -17.784      198.130      -22.777       64.973       53.927       43.189     4221.476     2908.125     1865.291        2.454        0.450      198.926       32.264        0.026      327.295       -7.322      869.593
12/31/2014  03:08:00        8.377      154.118        1.854       59.082       84.157       48.764     3490.704     7082.437     2377.975        1.839        0.648      154.345       51.125        0.110      327.247       -7.398      869.570
12/31/2014  03:09:00        4.647      150.146      -12.918       64.131       68.783       41.947     4112.757     4731.110     1759.562        1.667        0.530      150.217       35.731        0.057      327.277       -7.350      869.550
12/31/2014  03:10:00      -14.064      180.779      -19.535       32.699       81.158       34.031     1069.207     6586.701     1158.099        2.104        0.441      181.325       42.188        0.054      327.279       -7.348      869.524
12/31/2014  03:11:00      -12.821      171.236      -14.212       54.154       69.554       41.270     2932.675     4837.820     1703.182        1.958        0.474      171.716       41.368        0.058      327.270       -7.361      869.517
12/31/2014  03:12:00       22.322      169.634      -10.629       54.521       89.302       45.920     2972.503     7974.916     2108.631        2.122        0.653      171.097       47.407        0.077      327.244       -7.404      869.518
12/31/2014  03:13:00      -18.265      196.236      -27.366       39.773       40.184       38.995     1581.868     1614.751     1520.572        2.215        0.236      197.085       25.390        0.017      327.287       -7.334      869.510
12/31/2014  03:14:00       -2.972      166.482      -13.417       57.487       93.017       45.552     3304.754     8652.153     2074.970        2.097        0.702      166.509       50.849        0.093      327.280       -7.344      869.507
12/31/2014  03:15:00       -8.060      223.526      -21.082       75.013      111.620       53.669     5627.000    12459.034     2880.336        3.572        1.048      223.671       62.632        0.078      327.274       -7.357      869.495
12/31/2014  03:16:00      -16.681      266.826      -35.538       58.135       53.774       31.834     3379.705     2891.661     1013.415        4.001        0.364      267.346       24.574        0.008      327.337       -7.256      869.489
12/31/2014  03:17:00        6.727      290.553      -26.380       72.955      107.110       57.379     5322.492    11472.529     3292.367        5.262        1.004      290.631       52.034        0.032      327.319       -7.284      869.502
12/31/2014  03:18:00      -39.652      238.144      -26.445       63.862      125.583       47.325     4078.360    15770.990     2239.645        4.053        1.104      241.423       54.915        0.052      327.381       -7.181      869.499
12/31/2014  03:19:00      -70.073      260.689      -25.181       56.903       92.265       44.024     3237.971     8512.785     1938.075        4.359        0.684      269.943       47.905        0.031      327.428       -7.107      869.501
12/31/2014  03:20:00       -9.764      283.109      -33.478       49.318       81.627       46.067     2432.295     6663.029     2122.148        4.629        0.561      283.277       40.340        0.020      327.411       -7.135      869.508
12/31/2014  03:21:00      -29.672      159.896      -10.009       45.520       77.312       44.998     2072.058     5977.139     2024.834        1.831        0.504      162.626       47.413        0.085      327.432       -7.098      869.509
12/31/2014  03:22:00      -52.554      202.139      -13.121       70.594       86.685       48.370     4983.533     7514.255     2339.628        2.931        0.742      208.859       49.284        0.056      327.376       -7.190      869.501
12/31/2014  03:23:00      -34.940      212.641      -22.486       47.552       69.350       37.330     2261.196     4809.386     1393.564        2.770        0.423      215.492       25.671        0.014      327.398       -7.154      869.483
12/31/2014  03:24:00      -34.446      163.847      -15.252       46.935       58.537       31.430     2202.900     3426.527      987.814        1.744        0.331      167.429       24.892        0.022      327.374       -7.192      869.475
12/31/2014  03:25:00      -67.764      190.078      -30.825       58.379       68.467       33.837     3408.102     4687.778     1144.920        2.545        0.462      201.796       32.014        0.025      327.384       -7.178      869.448
12/31/2014  03:26:00      -41.866      325.662      -46.673       50.624       79.714       23.904     2562.764     6354.327      571.389        5.974        0.474      328.342       24.150        0.005      327.297       -7.321      869.438
12/31/2014  03:27:00     -120.907      131.288      -24.456       66.125       67.562       36.133     4372.509     4564.690     1305.620        2.135        0.512      178.480       31.451        0.031      327.429       -7.103      869.428
12/31/2014  03:28:00      -39.444      242.652      -32.488       46.944       60.267       32.052     2203.768     3632.081     1027.320        3.418        0.343      245.837       30.838        0.016      327.350       -7.233      869.426
12/31/2014  03:29:00      -39.852      184.799      -20.509       65.685       68.957       35.888     4314.482     4755.127     1287.976        2.326        0.518      189.047       37.131        0.039      327.401       -7.150      869.415
12/31/2014  03:30:00      -42.520      223.781      -27.513       59.250       58.307       30.688     3510.537     3399.677      941.761        3.025        0.393      227.784       30.063        0.017      327.380       -7.184      869.432
12/31/2014  03:31:00      -32.601      238.747      -35.577       58.260       70.144       25.884     3394.215     4920.222      669.961        3.415        0.449      240.962       28.653        0.014      327.331       -7.264      869.430
12/31/2014  03:32:00      -19.482      271.502      -37.165       37.894       48.686       21.007     1435.928     2370.294      441.276        3.986        0.212      272.200        9.027        0.001      327.266       -7.371      869.430
12/31/2014  03:33:00      -11.480      219.757      -30.175       31.768       36.465       20.289     1009.214     1329.717      411.634        2.604        0.138      220.056       16.632        0.006      327.220       -7.444      869.454
12/31/2014  03:34:00      -85.637      190.591      -25.993       53.378       69.636       35.144     2849.189     4849.141     1235.126        2.663        0.447      208.946       35.959        0.030      327.351       -7.231      869.481
12/31/2014  03:35:00      -61.523      158.986      -17.800       51.645       64.858       29.584     2667.184     4206.551      875.226        1.856        0.387      170.475       32.232        0.036      327.321       -7.279      869.491
12/31/2014  03:36:00      -18.611      169.897      -20.921       44.668       67.276       22.276     1995.236     4526.083      496.213        1.833        0.351      170.914       25.410        0.022      327.297       -7.317      869.502
12/31/2014  03:37:00      -20.162      191.706      -33.851       57.374       56.753       27.860     3291.753     3220.911      776.169        2.279        0.364      192.764       28.581        0.022      327.304       -7.307      869.511
12/31/2014  03:38:00      -18.516      137.208      -23.061       32.557       27.688       15.875     1059.960      766.602      252.012        1.089        0.104      138.452       10.111        0.005      327.308       -7.298      869.527
12/31/2014  03:39:00      -41.892      162.546      -23.167       30.478       38.024       20.582      928.936     1445.834      423.639        1.576        0.140      167.858       17.031        0.010      327.317       -7.282      869.537
12/31/2014  03:40:00      -22.042      180.403      -26.504       21.547       49.712       18.191      464.290     2471.290      330.915        1.850        0.163      181.745       19.876        0.012      327.286       -7.335      869.523
12/31/2014  03:41:00      -34.721      119.446      -16.710       29.464       32.730       22.839      868.137     1071.229      521.637        0.911        0.123      124.391       13.259        0.011      327.310       -7.297      869.495
12/31/2014  03:42:00      -77.066       86.211      -17.408       36.476       39.176       18.621     1330.529     1534.744      346.728        0.844        0.161      115.636       17.891        0.024      327.410       -7.133      869.483
12/31/2014  03:43:00      -68.455       82.483       -7.363       34.623       37.588       23.653     1198.734     1412.874      559.465        0.736        0.159      107.189       17.881        0.028      327.361       -7.214      869.482
12/31/2014  03:44:00      -79.423      103.063      -20.138       44.622       35.173       20.950     1991.091     1237.132      438.884        1.050        0.183      130.115       13.234        0.010      327.317       -7.284      869.497
12/31/2014  03:45:00      -79.779       88.893      -14.096       47.411       36.298       25.921     2247.806     1317.509      671.906        0.935        0.212      119.443       29.884        0.063      327.422       -7.114      869.521
12/31/2014  03:46:00     -100.714      115.531      -24.250       40.410       46.992       26.637     1632.979     2208.205      709.522        1.431        0.228      153.267       25.006        0.027      327.342       -7.243      869.544
12/31/2014  03:47:00      -39.423      163.583      -19.012       57.273       45.925       22.389     3280.207     2109.072      501.257        1.728        0.295      168.266       17.006        0.010      327.332       -7.259      869.556
12/31/2014  03:48:00        8.404      183.731      -23.853       28.175       34.219       22.333      793.849     1170.934      498.748        1.843        0.123      183.923       20.179        0.012      327.212       -7.455      869.565
12/31/2014  03:49:00      -13.750      140.324      -22.286       17.653       40.742       13.664      311.623     1659.938      186.705        1.127        0.108      140.996       17.383        0.015      327.275       -7.352      869.576
12/31/2014  03:50:00      -25.429      138.153      -16.469       21.603       26.508       16.012      466.704      702.692      256.394        1.071        0.071      140.473       15.348        0.012      327.257       -7.381      869.569
12/31/2014  03:51:00      -66.805      152.313      -26.191       47.880       45.705       27.693     2292.514     2088.978      766.883        1.675        0.257      166.320       30.997        0.035      327.313       -7.290      869.564
12/31/2014  03:52:00      -67.559      110.741      -15.631       36.290       55.377       37.114     1316.934     3066.566     1377.446        1.142        0.288      129.721       38.010        0.086      327.292       -7.324      869.537
12/31/2014  03:53:00      -64.690      190.221      -31.100       41.499       61.957       29.932     1722.130     3838.705      895.917        2.390        0.323      200.920       24.866        0.015      327.307       -7.304      869.523
12/31/2014  03:54:00      -14.513       71.666      -10.594       43.098       35.245       30.728     1857.478     1242.199      944.231        0.475        0.202       73.120       24.188        0.109      327.286       -7.333      869.512
12/31/2014  03:55:00       12.914       81.515       -0.785       44.377       60.152       31.669     1969.352     3618.236     1002.947        0.670        0.330       82.532       33.949        0.169      327.211       -7.456      869.511
12/31/2014  03:56:00        3.881       90.345      -13.627       27.838       43.614       25.025      774.971     1902.179      626.236        0.583        0.165       90.428       23.410        0.067      327.148       -7.558      869.496
12/31/2014  03:57:00      -22.595      120.200      -11.977       28.695       48.479       33.002      823.412     2350.206     1089.104        0.968        0.213      122.305       25.394        0.043      327.331       -7.261      869.464
12/31/2014  03:58:00        7.144      127.579      -20.988       32.548       47.995       20.265     1059.354     2303.485      410.658        1.027        0.189      127.779       17.641        0.019      327.180       -7.506      869.463
12/31/2014  03:59:00       18.774       89.539      -12.443       31.211       39.895       23.182      974.135     1591.584      537.424        0.581        0.155       91.486       21.131        0.053      327.123       -7.599      869.453
12/31/2014  04:00:00       34.723       49.563       -2.652       31.114       26.636       16.827      968.088      709.478      283.154        0.281        0.098       60.516       10.922        0.033      327.086       -7.659      869.449
12/31/2014  04:01:00       22.703       36.614        6.244       28.110       36.638       18.908      790.146     1342.326      357.511        0.219        0.124       43.081       19.524        0.205      327.044       -7.727      869.424
12/31/2014  04:02:00       28.764       62.689       -7.678       19.458       37.687       16.737      378.626     1420.310      280.128        0.345        0.104       68.973       20.767        0.091      327.020       -7.765      869.405
12/31/2014  04:03:00       26.767       67.608       -5.949       21.919       39.940       19.970      480.459     1595.193      398.804        0.390        0.124       72.714       22.346        0.094      326.977       -7.835      869.391
12/31/2014  04:04:00       38.441      106.560      -18.570       23.540       36.254       25.719      554.111     1314.367      661.488        0.785        0.126      113.282       21.881        0.037      327.161       -7.536      869.391
12/31/2014  04:05:00        7.997       48.545        7.708       29.594       58.932       26.235      875.816     3472.975      688.271        0.376        0.252       49.199       32.379        0.433      327.138       -7.575      869.403
12/31/2014  04:06:00       34.403       28.884        0.236       19.973       21.033       13.510      398.935      442.382      182.519        0.152        0.051       44.920       10.212        0.052      326.885       -7.984      869.405
12/31/2014  04:07:00       16.757       25.108       -1.343       19.755       26.395       16.843      390.268      696.682      283.702        0.114        0.069       30.186       16.264        0.290      326.925       -7.920      869.403
12/31/2014  04:08:00       20.144       68.741       -7.108       19.395       21.319       15.262      376.157      454.481      232.933        0.312        0.053       71.632       11.081        0.024      326.928       -7.913      869.390
12/31/2014  04:09:00       38.400       46.769       -4.873       12.404       15.884       11.736      153.857      252.299      137.734        0.211        0.027       60.514        9.336        0.024      326.932       -7.909      869.381
12/31/2014  04:10:00       43.534       42.854        1.054       19.996       16.372       13.607      399.834      268.036      185.154        0.229        0.043       61.087        8.534        0.020      326.920       -7.929      869.387
12/31/2014  04:11:00      125.665       62.868        3.049       26.630       31.246       18.435      709.167      976.339      339.866        1.089        0.101      140.514        8.917        0.004      326.821       -8.087      869.382
12/31/2014  04:12:00       74.642       39.693        4.310       23.086       20.267       16.005      532.964      410.752      256.167        0.418        0.060       84.540        8.605        0.010      326.752       -8.200      869.365
12/31/2014  04:13:00       76.265       40.468       10.837       26.324       18.434       19.303      692.973      339.813      372.602        0.449        0.070       86.337        9.932        0.013      326.850       -8.040      869.346
12/31/2014  04:14:00       83.162       41.181       19.626       24.871       16.459       22.855      618.591      270.909      522.369        0.520        0.071       92.800       16.057        0.030      326.933       -7.905      869.320
12/31/2014  04:15:00       78.692       46.795        8.528       22.672       19.185       14.787      514.025      368.046      218.652        0.478        0.055       91.554        7.759        0.007      326.854       -8.034      869.312
12/31/2014  04:16:00       75.699       48.394        8.560       17.860       13.667       17.246      318.990      186.798      297.425        0.447        0.040       89.846       11.849        0.017      326.810       -8.107      869.314
12/31/2014  04:17:00       71.924       45.477       -1.574       20.525       13.944       14.417      421.289      194.435      207.848        0.403        0.041       85.095        6.529        0.006      326.799       -8.124      869.319
12/31/2014  04:18:00       42.674       31.646       -5.918       24.013       20.996       11.402      576.606      440.815      130.008        0.200        0.057       53.128       10.571        0.040      326.745       -8.212      869.305
12/31/2014  04:19:00       50.812       20.386        1.407       19.172       12.282       15.121      367.567      150.849      228.640        0.187        0.037       54.749       10.011        0.033      326.757       -8.193      869.285
12/31/2014  04:20:00       30.289       41.042       -5.436       14.411       26.219       14.765      207.689      687.438      217.999        0.187        0.056       51.009       15.401        0.091      326.704       -8.280      869.287
12/31/2014  04:21:00       27.078       47.658      -10.600       14.961       19.534       11.148      223.821      381.563      124.285        0.192        0.036       54.813       10.523        0.037      326.661       -8.349      869.291
12/31/2014  04:22:00       25.135       18.456       -0.543       15.213       17.137       11.259      231.446      293.678      126.773        0.081        0.033       31.183       11.430        0.134      326.624       -8.407      869.299
12/31/2014  04:23:00       62.685       33.378        2.280       26.393       12.364       13.934      696.575      152.880      194.165        0.305        0.052       71.017       10.588        0.022      326.650       -8.365      869.297
12/31/2014  04:24:00       71.184       36.194        0.420       37.454       22.464       13.859     1402.798      504.643      192.080        0.424        0.105       79.857       15.434        0.037      326.573       -8.492      869.294
12/31/2014  04:25:00       -1.712      -56.624        0.573       11.710       23.953       13.685      137.126      573.724      187.285        0.205        0.045       56.650        9.689        0.029      326.793       -8.134      869.285
12/31/2014  04:26:00       14.531       16.700       29.292       24.952       16.746       18.497      622.594      280.414      342.141        0.130        0.062       22.137       12.735        0.331      326.646       -8.374      869.283
12/31/2014  04:27:00       35.603       39.936       39.729       37.976       27.251       25.231     1442.206      742.601      636.623        0.363        0.141       53.502       10.473        0.038      326.570       -8.496      869.296
12/31/2014  04:28:00       -1.747       21.827       15.969       21.870       13.719       21.360      478.305      188.203      456.235        0.093        0.056       21.897       17.041        0.606      326.648       -8.369      869.299
12/31/2014  04:29:00       50.359       38.194       20.385       15.333       13.257       14.263      235.101      175.757      203.426        0.251        0.031       63.204        5.468        0.007      326.748       -8.207      869.300
12/31/2014  04:30:00       25.476       34.315       25.100       20.006       21.337       14.894      400.236      455.288      221.824        0.177        0.054       42.738        8.744        0.042      326.729       -8.238      869.299
12/31/2014  04:31:00       64.504       40.218        0.994       16.203       10.355       14.848      262.538      107.230      220.464        0.318        0.030       76.015        6.900        0.008      326.769       -8.173      869.310
12/31/2014  04:32:00       56.686       35.575       -0.611       21.071       13.134       18.273      444.005      172.502      333.905        0.271        0.048       66.924        4.068        0.004      326.590       -8.463      869.320
12/31/2014  04:33:00       24.235       24.009        2.639        8.434        9.226        6.577       71.128       85.119       43.263        0.069        0.010       34.114        1.899        0.003      326.598       -8.449      869.323
12/31/2014  04:34:00        2.624       44.589      -11.821        9.044       13.792       10.322       81.799      190.231      106.546        0.126        0.019       44.666       10.120        0.051      326.730       -8.237      869.324
12/31/2014  04:35:00        0.515       46.131      -10.053       18.842       21.009       14.559      355.037      441.396      211.952        0.162        0.050       46.133       14.026        0.092      326.761       -8.185      869.334
12/31/2014  04:36:00       22.219       58.369       -8.708       13.573       14.956       10.897      184.227      223.681      118.744        0.225        0.026       62.455        8.420        0.018      326.712       -8.264      869.338
12/31/2014  04:37:00       47.110       30.696       -6.632       12.421       19.830       15.034      154.291      393.231      226.032        0.199        0.039       56.228       12.204        0.047      326.560       -8.513      869.328
12/31/2014  04:38:00       14.787        3.705       -4.182       19.158       12.707        6.104      367.047      161.479       37.259        0.041        0.028       15.244        5.547        0.132      326.633       -8.396      869.299
12/31/2014  04:39:00        1.065       12.924       -0.208        9.781       11.895        8.191       95.675      141.499       67.084        0.024        0.015       12.968        8.022        0.383      326.669       -8.336      869.273
12/31/2014  04:40:00       -2.629       44.263       -5.859       10.665       18.871        9.230      113.735      356.118       85.193        0.128        0.028       44.341        7.365        0.028      326.683       -8.313      869.277
12/31/2014  04:41:00      -29.025        1.206       -0.859       14.567       23.511       11.934      212.193      552.770      142.411        0.088        0.045       29.050        9.074        0.098      326.627       -8.404      869.295
12/31/2014  04:42:00        3.374       -1.088        1.127       16.224        8.951       11.733      263.226       80.118      137.671        0.025        0.024        3.545        6.089        2.951      326.495       -8.617      869.320
12/31/2014  04:43:00      -42.450       29.991       -3.625       22.286       26.433       12.009      496.657      698.721      144.227        0.203        0.067       51.976       11.149        0.046      326.483       -8.636      869.338
12/31/2014  04:44:00      -30.017       30.607       -3.359       14.085       16.006       15.019      198.374      256.186      225.582        0.126        0.034       42.870        7.714        0.032      326.603       -8.444      869.353
12/31/2014  04:45:00      -50.601       30.594       -8.418       15.998       14.627       10.635      255.944      213.960      113.112        0.208        0.029       59.131       10.305        0.030      326.592       -8.460      869.371
12/31/2014  04:46:00      -53.901       21.974       -2.120       17.053       10.078       10.809      290.812      101.559      116.836        0.195        0.025       58.208        9.385        0.026      326.588       -8.467      869.376
12/31/2014  04:47:00      -63.524       -4.287      -11.955        7.619       12.439        8.265       58.044      154.722       68.307        0.224        0.014       63.669        5.596        0.008      326.664       -8.345      869.371
12/31/2014  04:48:00      -44.098      -20.860       -8.079        7.890        7.919        6.593       62.246       62.709       43.472        0.131        0.008       48.783        4.123        0.007      326.621       -8.413      869.358
12/31/2014  04:49:00      -50.079       -8.777      -10.413       10.132        8.233        9.296      102.663       67.782       86.415        0.148        0.013       50.842        4.538        0.008      326.468       -8.659      869.328
12/31/2014  04:50:00      -66.847       -3.711      -10.563       15.955       12.827        9.650      254.548      164.526       93.127        0.255        0.026       66.950        9.661        0.021      326.445       -8.697      869.299
12/31/2014  04:51:00      -52.652       18.631      -11.184       15.975       11.871        8.256      255.203      140.921       68.157        0.185        0.023       55.851        7.825        0.020      326.461       -8.674      869.271
12/31/2014  04:52:00      -34.481       -0.184       -6.097       28.062       18.648       11.755      787.475      347.742      138.176        0.125        0.064       34.481       12.007        0.121      326.403       -8.767      869.258
12/31/2014  04:53:00      -50.487        8.882       -5.217       24.266       27.443       12.199      588.851      753.093      148.804        0.207        0.075       51.262        4.851        0.009      326.392       -8.784      869.259
12/31/2014  04:54:00      -96.780       22.039       -9.634       36.341       30.115       17.896     1320.686      906.931      320.279        0.625        0.127       99.257       16.693        0.028      326.365       -8.827      869.266
12/31/2014  04:55:00     -136.014       26.607      -18.574       33.448       32.300       17.158     1118.760     1043.290      294.401        1.100        0.123      138.593       10.098        0.005      326.335       -8.876      869.266
12/31/2014  04:56:00     -109.515        8.916       -6.407       40.056       31.269       23.637     1604.504      977.726      558.723        0.763        0.157      109.877       21.482        0.038      326.290       -8.951      869.258
12/31/2014  04:57:00      -85.126       24.583      -11.907       38.803       34.812       17.482     1505.643     1211.894      305.622        0.551        0.151       88.604       10.751        0.015      326.321       -8.899      869.246
12/31/2014  04:58:00      -88.863       37.253      -15.636       22.513       34.756       14.566      506.857     1208.005      212.164        0.573        0.096       96.356       12.509        0.017      326.349       -8.854      869.228
12/31/2014  04:59:00      -87.594       10.403      -10.562       38.161       20.912       16.892     1456.257      437.310      285.324        0.504        0.109       88.209       16.805        0.036      326.450       -8.690      869.229
12/31/2014  05:00:00      -94.183       -7.855       -8.563       33.851       21.151       17.750     1145.886      447.363      315.063        0.546        0.095       94.510       18.737        0.039      326.459       -8.676      869.232
12/31/2014  05:01:00     -152.714       25.366      -19.488       36.017       28.985       18.557     1297.256      840.141      344.357        1.341        0.124      154.806       10.160        0.004      326.362       -8.833      869.236
12/31/2014  05:02:00     -136.552       11.253      -11.978       79.282       32.445       28.989     6285.710     1052.704      840.352        1.355        0.409      137.015       38.305        0.078      326.174       -9.137      869.237
12/31/2014  05:03:00     -161.554      -16.260      -17.131       44.054       39.245       28.337     1940.736     1540.154      802.976        1.547        0.214      162.371       24.042        0.022      326.130       -9.208      869.230
12/31/2014  05:04:00      -84.719       -7.802      -10.603       45.714       30.132       22.440     2089.739      907.913      503.563        0.543        0.175       85.077       23.634        0.077      326.193       -9.106      869.228
12/31/2014  05:05:00      -85.266        2.749      -10.496       40.334       30.089       18.820     1626.813      905.344      354.189        0.514        0.144       85.310       14.086        0.027      326.247       -9.016      869.235
12/31/2014  05:06:00      -42.286       -4.645      -12.895       23.674       20.565       10.384      560.445      422.939      107.827        0.153        0.055       42.541        8.796        0.043      326.257       -9.003      869.250
12/31/2014  05:07:00      -48.282       30.783      -19.235       24.808       32.036       14.933      615.430     1026.278      222.989        0.276        0.093       57.260       11.153        0.038      326.374       -8.813      869.268
12/31/2014  05:08:00     -111.264       70.807      -27.840       24.967       28.512       17.180      623.358      812.949      295.153        0.995        0.087      131.884       10.266        0.006      326.397       -8.775      869.282
12/31/2014  05:09:00     -113.003       89.622      -28.639       37.167       43.077       18.361     1381.406     1855.632      337.121        1.260        0.179      144.228       16.394        0.013      326.444       -8.699      869.285
12/31/2014  05:10:00     -115.408      133.543      -36.276       21.257       27.415       16.073      451.843      751.559      258.344        1.696        0.073      176.501        9.257        0.003      326.481       -8.641      869.286
12/31/2014  05:11:00      -51.423       69.421       -8.509       50.990       34.866       19.390     2599.996     1215.625      375.962        0.586        0.210       86.392       24.371        0.080      326.547       -8.533      869.286
12/31/2014  05:12:00        5.928       77.566       -9.379       20.144       32.083       19.201      405.781     1029.347      368.660        0.397        0.090       77.793       17.050        0.048      326.475       -8.649      869.293
12/31/2014  05:13:00       30.420       52.784       -5.869       25.671       22.842       17.785      658.999      521.756      316.312        0.262        0.075       60.922       13.832        0.052      326.331       -8.884      869.290
12/31/2014  05:14:00        0.563      104.101       -8.899       21.015       35.789       17.325      441.624     1280.842      300.149        0.647        0.101      104.102       15.268        0.022      326.390       -8.787      869.280
12/31/2014  05:15:00        9.648       61.290      -11.482       15.851       14.971       10.682      251.247      224.116      114.110        0.229        0.029       62.044        8.583        0.019      326.357       -8.840      869.267
12/31/2014  05:16:00       24.749       40.423       -8.810       28.027       27.623       20.639      785.505      763.040      425.979        0.215        0.099       47.398       11.821        0.062      326.219       -9.065      869.264
12/31/2014  05:17:00       21.744       76.766      -17.336       14.274       17.941       11.345      203.751      321.889      128.715        0.366        0.033       79.785        9.623        0.015      326.191       -9.108      869.257
12/31/2014  05:18:00       25.639       49.569       -9.350       16.070       25.772       10.648      258.257      664.218      113.375        0.212        0.052       55.808        6.524        0.014      326.197       -9.100      869.258
12/31/2014  05:19:00       27.456       27.050       -5.541       11.211       15.246       12.541      125.681      232.435      157.284        0.102        0.026       38.543       11.450        0.088      326.106       -9.246      869.271
12/31/2014  05:20:00       33.022       41.330        3.408       26.000       23.682       18.492      676.021      560.855      341.948        0.219        0.079       52.902       15.586        0.087      326.072       -9.302      869.284
12/31/2014  05:21:00       33.930       43.230      -10.405       14.464       21.663       10.541      209.198      469.264      111.114        0.196        0.039       54.956       10.330        0.035      326.095       -9.265      869.304
12/31/2014  05:22:00       24.977       34.862        1.094       19.945       17.236       14.676      397.810      297.066      215.393        0.138        0.046       42.886       11.258        0.069      326.044       -9.348      869.315
12/31/2014  05:23:00       15.470       15.636        3.501       17.299       16.503       11.230      299.264      272.347      126.108        0.060        0.035       21.995        9.518        0.187      326.029       -9.372      869.331
12/31/2014  05:24:00       70.611       25.487       -1.904       16.534       19.887       12.466      273.388      395.478      155.402        0.323        0.041       75.070        6.744        0.008      325.952       -9.498      869.359
12/31/2014  05:25:00       94.514       44.781       11.177       33.612       23.116       20.109     1129.774      534.344      404.363        0.657        0.103      104.586        5.825        0.003      325.873       -9.624      869.366
12/31/2014  05:26:00       71.918       46.186       25.177       39.738       23.224       31.249     1579.116      539.334      976.503        0.552        0.155       85.471       17.528        0.042      325.780       -9.774      869.370
12/31/2014  05:27:00       71.647       43.908       19.247       34.942       22.049       23.983     1220.959      486.162      575.171        0.486        0.114       84.031       11.736        0.020      325.756       -9.814      869.369
12/31/2014  05:28:00       81.099       52.286        9.062       15.491       14.100       14.160      239.963      198.800      200.511        0.502        0.032       96.493       10.675        0.012      325.692       -9.917      869.344
12/31/2014  05:29:00       60.741       41.221        9.011       20.507       16.090       16.549      420.542      258.884      273.874        0.321        0.048       73.407       10.175        0.019      325.665       -9.959      869.326
12/31/2014  05:30:00       93.596       60.266       10.453       27.624       20.903       13.638      763.106      436.927      185.991        0.694        0.069      111.320        7.319        0.004      325.650       -9.984      869.325
12/31/2014  05:31:00      106.386       74.435       12.536       25.640       17.974       15.300      657.430      323.063      234.094        0.911        0.061      129.841        9.943        0.006      325.601      -10.063      869.323
12/31/2014  05:32:00       70.619       51.115        3.992       32.148       29.647       15.402     1033.485      878.930      237.217        0.488        0.107       87.177       12.508        0.021      325.574      -10.106      869.338
12/31/2014  05:33:00       87.263       66.460        5.329       22.672       25.014       18.935      514.019      625.682      358.549        0.678        0.075      109.689        8.264        0.006      325.553      -10.140      869.366
12/31/2014  05:34:00       73.472       51.792        5.544       24.571       17.819       18.994      603.752      317.505      360.772        0.470        0.064       89.892        6.417        0.005      325.591      -10.081      869.378
12/31/2014  05:35:00       44.203       26.079        8.683       19.374       21.192       16.184      375.357      449.085      261.934        0.190        0.054       51.323        6.276        0.015      325.581      -10.097      869.376
12/31/2014  05:36:00       20.831       50.789       -2.136       27.927       25.787       21.199      779.922      664.968      449.383        0.246        0.095       54.896       16.546        0.091      325.587      -10.086      869.352
12/31/2014  05:37:00       18.014       65.073       -8.455       21.184       34.669       18.638      448.766     1201.968      347.382        0.331        0.100       67.520       18.480        0.075      325.641       -9.999      869.344
12/31/2014  05:38:00       11.242      108.236      -17.332       16.508       23.345       10.342      272.509      544.973      106.966        0.653        0.046      108.818        5.964        0.003      325.733       -9.849      869.345
12/31/2014  05:39:00        8.964      122.446      -20.388       14.391       19.186        9.262      207.107      368.118       85.777        0.807        0.033      122.773        8.099        0.004      325.762       -9.804      869.324
12/31/2014  05:40:00       -8.542      113.376      -14.789       12.797       13.607        8.745      163.759      185.146       76.479        0.679        0.021      113.697        4.133        0.001      325.845       -9.670      869.313
12/31/2014  05:41:00       28.758      125.066      -21.250       17.411       21.441       13.970      303.155      459.695      195.165        0.894        0.048      128.329       10.460        0.007      325.667       -9.957      869.331
12/31/2014  05:42:00       24.185       87.872      -13.553       20.387       17.005       15.753      415.647      289.166      248.147        0.472        0.048       91.140       11.136        0.015      325.585      -10.090      869.349
12/31/2014  05:43:00       19.987       54.706       -5.081       21.248       22.076       14.945      451.457      487.333      223.340        0.229        0.058       58.243       14.568        0.063      325.621      -10.031      869.337
12/31/2014  05:44:00       30.190       38.058        0.109       21.568       17.776       15.610      465.162      316.003      243.657        0.169        0.051       48.579       13.153        0.073      325.668       -9.956      869.330
12/31/2014  05:45:00       67.060       47.116       13.065       25.384       18.593       17.300      644.344      345.685      299.286        0.409        0.064       81.957        8.973        0.012      325.746       -9.829      869.341
12/31/2014  05:46:00       30.496       31.514        6.556       21.315       17.846       17.540      454.344      318.465      307.656        0.152        0.054       43.853       12.440        0.080      325.674       -9.946      869.351
12/31/2014  05:47:00       24.835       27.190        2.606       15.189       23.591       16.265      230.709      556.542      264.544        0.121        0.053       36.825       12.502        0.115      325.689       -9.921      869.360
12/31/2014  05:48:00       42.818       39.665       -2.511       28.908       17.144       17.239      835.699      293.913      297.186        0.242        0.071       58.367       13.948        0.057      325.778       -9.777      869.356
12/31/2014  05:49:00       55.606       51.058       -1.911       17.370       15.505       15.343      301.723      240.398      235.415        0.324        0.039       75.491        9.131        0.015      325.861       -9.643      869.360
12/31/2014  05:50:00       34.585       39.240       -3.546       17.498       14.594       12.053      306.176      212.996      145.274        0.171        0.033       52.306        9.138        0.031      325.776       -9.781      869.374
12/31/2014  05:51:00       34.870       28.559       -0.724       17.605        9.156        8.856      309.931       83.837       78.420        0.125        0.024       45.072        4.172        0.009      325.947       -9.505      869.383
12/31/2014  05:52:00       25.616       24.745       -8.412       11.136       15.498        7.522      124.021      240.185       56.576        0.088        0.021       35.616        6.111        0.029      325.970       -9.468      869.402
12/31/2014  05:53:00       34.515       15.528       13.051       11.492       10.537       12.614      132.077      111.037      159.122        0.100        0.020       37.847        5.064        0.018      325.901       -9.577      869.398
12/31/2014  05:54:00       40.343       30.195       -4.305       17.021       13.411       11.548      289.728      179.867      133.355        0.158        0.030       50.391        9.637        0.037      325.964       -9.478      869.402
12/31/2014  05:55:00       39.115       17.186       -7.059       10.786       11.957        9.142      116.339      142.977       83.569        0.111        0.017       42.724        5.402        0.016      325.878       -9.617      869.405
12/31/2014  05:56:00       43.048       30.939       -0.710       12.133       15.819        9.971      147.222      250.254       99.419        0.165        0.025       53.013        6.336        0.014      325.829       -9.696      869.416
12/31/2014  05:57:00       23.849       19.077        5.149       29.280       17.789       12.797      857.330      316.440      163.764        0.115        0.067       30.541        7.512        0.060      325.844       -9.671      869.434
12/31/2014  05:58:00      -56.398       60.898      -19.806       46.598       45.708       24.633     2171.334     2089.256      606.774        0.607        0.243       83.002       25.072        0.091      326.185       -9.119      869.445
12/31/2014  05:59:00      -96.227      108.720      -27.391       26.119       29.779       20.263      682.192      886.812      410.581        1.190        0.099      145.188       13.242        0.008      326.213       -9.073      869.466
12/31/2014  06:00:00      -92.334      101.636      -34.014       30.738       41.232       17.836      944.834     1700.043      318.140        1.149        0.148      137.315       11.185        0.007      326.258       -9.000      869.475
12/31/2014  06:01:00      -75.795       57.977      -17.223       27.497       39.127       22.371      756.103     1530.936      500.445        0.609        0.139       95.427       19.062        0.040      326.205       -9.086      869.473
12/31/2014  06:02:00      -92.103       -1.606      -14.337       15.475       17.638       15.341      239.488      311.110      235.342        0.474        0.039       92.117       10.447        0.013      326.093       -9.269      869.461
12/31/2014  06:03:00      -83.517       -3.177       -8.887       27.315       34.481       19.825      746.116     1188.920      393.016        0.470        0.116       83.578       15.389        0.034      326.104       -9.249      869.462
12/31/2014  06:04:00      -51.983       16.009      -15.766       21.029       28.380       18.416      442.226      805.449      339.150        0.240        0.079       54.393       11.251        0.043      326.102       -9.254      869.470
12/31/2014  06:05:00      -67.545      -18.959       -7.014       32.388       37.492       16.918     1048.973     1405.619      286.231        0.386        0.137       70.155        9.521        0.018      326.133       -9.204      869.479
12/31/2014  06:06:00      -49.423      -16.625       -5.451       39.157       36.266       18.013     1533.249     1315.214      324.483        0.296        0.159       52.144       12.115        0.054      326.037       -9.357      869.490
12/31/2014  06:07:00      -56.189        7.019       -9.894       32.348       26.358       14.017     1046.418      694.718      196.477        0.262        0.097       56.626        9.102        0.026      326.045       -9.346      869.492
12/31/2014  06:08:00      -47.927       -5.566       -0.977       23.260       23.992       15.183      541.009      575.610      230.537        0.184        0.067       48.249        9.990        0.043      326.016       -9.392      869.484
12/31/2014  06:09:00      -57.496        0.687       -7.942       13.986       25.982       11.099      195.615      675.051      123.192        0.218        0.050       57.500        7.340        0.016      325.973       -9.462      869.474
12/31/2014  06:10:00      -46.922      -10.903       -7.379       17.966       13.961        9.818      322.793      194.920       96.396        0.149        0.031       48.172        5.321        0.012      325.960       -9.484      869.457
12/31/2014  06:11:00      -60.278       -5.640       -9.951       12.365       15.213        9.860      152.898      231.450       97.227        0.212        0.024       60.541        6.847        0.013      326.041       -9.353      869.450
12/31/2014  06:12:00      -29.935       38.593      -11.688       24.825       35.653       19.829      616.298     1271.166      393.174        0.240        0.114       48.842       17.112        0.123      326.225       -9.054      869.451
12/31/2014  06:13:00      -28.333      -10.371       -2.143       13.492       11.694       11.311      182.033      136.741      127.939        0.068        0.022       30.171        8.224        0.074      326.080       -9.289      869.467
12/31/2014  06:14:00      -34.821      -18.726       -4.966       11.841       10.995       11.520      140.201      120.881      132.703        0.099        0.020       39.536        6.999        0.031      326.120       -9.223      869.494
12/31/2014  06:15:00      -30.866       -6.302       -9.737        9.918       21.060       13.775       98.370      443.534      189.759        0.091        0.037       31.503       11.575        0.135      326.153       -9.172      869.516
12/31/2014  06:16:00        3.114       -7.554       -4.660       13.925       13.736       13.112      193.918      188.674      171.937        0.032        0.028        8.171        7.521        0.847      326.182       -9.123      869.521
12/31/2014  06:17:00        5.685        4.831       16.096       10.283       12.234        7.278      105.739      149.672       52.968        0.031        0.015        7.461        4.191        0.316      326.179       -9.129      869.521
12/31/2014  06:18:00        4.461       10.364        0.704       16.752       15.084        8.748      280.626      227.518       76.529        0.036        0.029       11.284       11.323        1.007      326.114       -9.234      869.508
12/31/2014  06:19:00      -15.891      -32.963       23.208       19.014       27.914       15.243      361.525      779.179      232.359        0.163        0.069       36.594       12.324        0.113      326.139       -9.193      869.494
12/31/2014  06:20:00       -3.961       -0.327       15.615       10.949       15.115       10.785      119.882      228.450      116.326        0.036        0.023        3.975        5.833        2.153      325.975       -9.459      869.484
12/31/2014  06:21:00        1.022       13.700       27.611       17.042       14.332       11.659      290.442      205.409      135.924        0.079        0.032       13.738       10.689        0.605      325.898       -9.583      869.479
12/31/2014  06:22:00       -7.761      -10.461       12.967       14.716       24.183       14.969      216.573      584.802      224.063        0.068        0.051       13.026       14.573        1.252      325.936       -9.522      869.477
12/31/2014  06:23:00       -4.399        3.272        7.560        7.413        8.732       11.591       54.955       76.247      134.352        0.018        0.013        5.483        7.475        1.859      325.924       -9.541      869.488
12/31/2014  06:24:00      -12.028        5.418       -2.243        6.478        6.589        4.016       41.960       43.416       16.126        0.014        0.005       13.192        1.987        0.023      325.996       -9.425      869.501
12/31/2014  06:25:00       -6.590        8.435        8.281        9.467        9.710        6.703       89.626       94.281       44.932        0.021        0.011       10.704        6.530        0.372      326.031       -9.368      869.505
12/31/2014  06:26:00       26.023       39.900       -1.622       10.354       10.624        9.693      107.211      112.871       93.957        0.129        0.016       47.637        7.980        0.028      325.974       -9.463      869.505
12/31/2014  06:27:00       20.919       33.826       -5.397       12.336        8.669        5.936      152.170       75.149       35.237        0.094        0.013       39.772        7.256        0.033      326.058       -9.324      869.494
12/31/2014  06:28:00       22.409       16.686       -5.888        8.736        6.088        5.079       76.324       37.069       25.792        0.048        0.007       27.939        4.228        0.023      326.093       -9.266      869.484
12/31/2014  06:29:00       36.295       15.533        6.999       11.926       10.482       11.022      142.234      109.869      121.495        0.099        0.019       39.479        4.198        0.011      326.025       -9.379      869.456
12/31/2014  06:30:00       62.068       28.054        3.284       15.657       10.036        8.018      245.139      100.717       64.282        0.253        0.021       68.114        4.433        0.004      325.983       -9.448      869.427
12/31/2014  06:31:00       46.626       34.239        7.831        9.001        9.177        9.716       81.013       84.213       94.400        0.183        0.013       57.847        6.329        0.012      325.938       -9.521      869.407
12/31/2014  06:32:00       34.742       45.978      -10.926       18.523       11.437       10.799      343.091      130.803      116.609        0.202        0.030       57.628       10.312        0.032      326.133       -9.202      869.392
12/31/2014  06:33:00       52.143       40.589       30.270       40.297       36.764       32.078     1623.821     1351.627     1028.979        0.464        0.200       66.078       27.206        0.170      326.006       -9.410      869.382
12/31/2014  06:34:00        2.564       65.383       79.245       24.753       31.960       17.488      612.702     1021.467      305.841        0.625        0.097       65.433       17.089        0.068      325.936       -9.522      869.383
12/31/2014  06:35:00        1.291       62.094       70.434       22.410       24.760       19.911      502.217      613.037      396.447        0.516        0.076       62.108       12.709        0.042      325.893       -9.592      869.395
12/31/2014  06:36:00       13.176       20.435       46.990       27.625       47.102       23.706      763.160     2218.571      561.956        0.317        0.177       24.315       25.877        1.133      325.902       -9.576      869.434
12/31/2014  06:37:00       20.357      -16.471       30.094       32.366       37.136       28.683     1047.548     1379.086      822.710        0.242        0.162       26.186       12.593        0.231      325.816       -9.715      869.462
12/31/2014  06:38:00       70.339      -27.916       29.318       59.230       67.144       43.062     3508.177     4508.286     1854.350        0.823        0.494       75.677       45.962        0.369      325.729       -9.856      869.491
12/31/2014  06:39:00       61.128      -51.253       20.728       47.815       74.800       44.281     2286.266     5595.049     1960.801        0.832        0.492       79.772       53.554        0.451      325.756       -9.813      869.522
12/31/2014  06:40:00       97.351     -113.006      -25.055       44.587       42.022       22.945     1987.974     1765.856      526.470        1.358        0.214      149.156       15.121        0.010      325.824       -9.703      869.547
12/31/2014  06:41:00       58.203      -59.899        0.928       40.391       44.405       31.333     1631.393     1971.825      981.743        0.578        0.229       83.519       26.359        0.100      325.794       -9.752      869.557
12/31/2014  06:42:00       39.819      -24.006       13.265       28.300       38.052       30.568      800.916     1447.954      934.388        0.276        0.159       46.495       31.291        0.453      325.795       -9.749      869.564
12/31/2014  06:43:00       20.812      -11.394       19.642       24.875       26.328       20.587      618.765      693.144      423.834        0.134        0.087       23.727       16.050        0.458      325.805       -9.735      869.547
12/31/2014  06:44:00       29.250       19.676       18.078       31.447       30.352       28.268      988.921      921.272      799.102        0.214        0.135       35.252       26.507        0.565      325.745       -9.832      869.524
12/31/2014  06:45:00       50.306       49.156        8.668       29.860       27.912       14.901      891.640      779.093      222.042        0.346        0.095       70.334       12.923        0.034      325.656       -9.974      869.519
12/31/2014  06:46:00       59.001       44.912        4.090       14.990       11.689       13.715      224.687      136.638      188.089        0.303        0.027       74.150        5.445        0.005      325.694       -9.914      869.524
12/31/2014  06:47:00       88.432       39.961        3.351       25.755       19.774       13.764      663.339      390.996      189.439        0.534        0.062       97.042       11.679        0.014      325.689       -9.922      869.524
12/31/2014  06:48:00      117.848       51.487        7.842       30.013       22.336       20.854      900.810      498.914      434.905        0.922        0.092      128.604        8.460        0.004      325.652       -9.980      869.516
12/31/2014  06:49:00      107.708       64.261       35.091       26.446       21.190       26.998      699.380      449.003      728.915        0.942        0.094      125.421       15.588        0.015      325.690       -9.920      869.525
12/31/2014  06:50:00       98.445       47.239       15.703       36.991       29.983       33.399     1368.350      898.979     1115.498        0.778        0.169      109.193       19.777        0.033      325.588      -10.084      869.527
12/31/2014  06:51:00       97.341       54.305       11.854       25.329       20.698       21.995      641.549      428.411      483.770        0.706        0.078      111.465       12.404        0.012      325.506      -10.218      869.532
12/31/2014  06:52:00      109.016       70.866       -1.344       19.552       18.627       18.851      382.277      346.949      355.369        0.900        0.054      130.025       11.148        0.007      325.475      -10.269      869.542
12/31/2014  06:53:00       95.476       66.245        1.764       24.231       24.776       25.534      587.138      613.833      651.979        0.768        0.093      116.207        9.895        0.007      325.488      -10.246      869.549
12/31/2014  06:54:00      101.876       64.394        5.346       25.177       26.923       23.541      633.897      724.846      554.159        0.823        0.096      120.520       13.428        0.012      325.434      -10.334      869.552
12/31/2014  06:55:00       62.940       42.019        7.363       36.652       34.114       24.216     1343.341     1163.756      586.400        0.444        0.155       75.677       10.671        0.020      325.383      -10.414      869.551
12/31/2014  06:56:00       75.982       52.825       -1.122       31.052       32.226       20.059      964.203     1038.492      402.356        0.548        0.120       92.540       12.957        0.020      325.339      -10.486      869.546
12/31/2014  06:57:00       87.465       43.077        8.680       29.899       28.362       21.647      893.937      804.413      468.602        0.587        0.108       97.497        9.693        0.010      325.346      -10.474      869.559
12/31/2014  06:58:00      105.743       72.656       -3.653       13.848       17.823       12.595      191.766      317.649      158.646        0.857        0.033      128.298        4.338        0.001      325.353      -10.464      869.577
12/31/2014  06:59:00       80.407       47.820        8.179       30.484       23.375       23.986      929.266      546.375      575.328        0.543        0.103       93.553       20.124        0.046      325.386      -10.411      869.592
12/31/2014  07:00:00      101.960       46.705        9.981       39.386       28.365       21.903     1551.241      804.559      479.757        0.776        0.142      112.148       13.411        0.014      325.392      -10.402      869.587
12/31/2014  07:01:00      100.146       61.411       24.407       24.717       22.292       23.081      610.949      496.954      532.739        0.802        0.082      117.476       18.155        0.024      325.340      -10.485      869.593
12/31/2014  07:02:00      115.376       70.686       11.055       24.882       30.806       20.340      619.123      948.987      413.714        1.021        0.099      135.307       13.044        0.009      325.360      -10.452      869.615
12/31/2014  07:03:00      103.801       43.954        4.771       45.462       32.291       29.073     2066.837     1042.683      845.266        0.834        0.198      112.724       15.898        0.020      325.350      -10.469      869.648
12/31/2014  07:04:00       83.260       42.460       19.881       23.459       24.294       25.184      550.348      590.181      634.215        0.545        0.089       93.462       11.770        0.016      325.376      -10.428      869.647
12/31/2014  07:05:00       83.538       55.552       24.260       24.470       23.293       24.360      598.781      542.544      593.426        0.619        0.087      100.322       14.188        0.020      325.328      -10.504      869.639
12/31/2014  07:06:00      100.905       65.895       16.058       41.411       33.847       35.971     1714.833     1145.650     1293.895        0.947        0.208      120.515       21.427        0.032      325.303      -10.545      869.636
12/31/2014  07:07:00       97.335       40.104       32.168       42.048       27.146       31.013     1768.020      736.917      961.791        0.779        0.173      105.273       26.414        0.063      325.269      -10.600      869.631
12/31/2014  07:08:00       97.651       53.924       25.856       46.895       26.273       33.870     2199.141      690.246     1147.152        0.857        0.202      111.550       26.913        0.058      325.318      -10.520      869.627
12/31/2014  07:09:00       68.470       38.757       31.950       30.382       25.846       28.104      923.060      667.993      789.835        0.480        0.119       78.678       21.432        0.074      325.314      -10.527      869.637
12/31/2014  07:10:00       51.598       40.306        2.237       19.319       15.301       17.087      373.211      234.120      291.951        0.260        0.045       65.475        9.155        0.020      325.305      -10.541      869.663
12/31/2014  07:11:00       58.526       54.477       17.050       20.676       26.318       24.963      427.482      692.649      623.143        0.421        0.087       79.957       10.256        0.016      325.349      -10.472      869.678
12/31/2014  07:12:00       67.325       35.075       12.705       24.356       23.775       17.133      593.222      565.262      293.556        0.369        0.073       75.914        6.568        0.007      325.390      -10.404      869.692
12/31/2014  07:13:00      102.679       62.938       10.582       23.863       15.784       16.701      569.459      249.150      278.922        0.786        0.055      120.434        7.765        0.004      325.333      -10.495      869.682
12/31/2014  07:14:00       96.914       63.063       29.528       41.574       23.977       27.746     1728.362      574.876      769.826        0.866        0.154      115.626       19.856        0.029      325.399      -10.390      869.671
12/31/2014  07:15:00      103.378       65.776       19.948       45.157       30.869       32.773     2039.179      952.899     1074.092        0.974        0.203      122.530       22.769        0.035      325.415      -10.364      869.674
12/31/2014  07:16:00       88.746       47.500       15.676       34.636       28.320       26.671     1199.659      802.021      711.357        0.654        0.136      100.659       19.195        0.036      325.362      -10.448      869.689
12/31/2014  07:17:00       88.458       45.254       12.165       27.406       21.788       20.555      751.073      474.735      422.501        0.583        0.082       99.362        3.255        0.001      325.397      -10.393      869.701
12/31/2014  07:18:00       82.160       50.825       20.205       36.885       19.246       22.012     1360.475      370.428      484.511        0.598        0.111       96.610       18.777        0.038      325.392      -10.401      869.691
12/31/2014  07:19:00      102.742       72.683       16.812       20.249       20.418       20.536      410.014      416.915      421.746        0.868        0.062      125.852       13.857        0.012      325.314      -10.528      869.670
12/31/2014  07:20:00       67.330       56.927       34.135       27.590       19.511       22.286      761.204      380.699      496.649        0.529        0.082       88.171        9.356        0.011      325.381      -10.419      869.651
12/31/2014  07:21:00       95.470       45.097       16.631       28.133       27.902       28.984      791.471      778.497      840.062        0.692        0.121      105.585       19.721        0.035      325.330      -10.501      869.645
12/31/2014  07:22:00      109.139       64.945       24.705       26.896       22.256       29.721      723.383      495.348      883.328        0.942        0.105      127.001       18.091        0.020      325.355      -10.460      869.656
12/31/2014  07:23:00      135.649       61.384       20.291       24.622       21.736       20.478      606.265      472.434      419.355        1.204        0.075      148.891       11.666        0.006      325.325      -10.510      869.659
12/31/2014  07:24:00      132.240       63.471       12.689       24.470       25.142       20.568      598.799      632.145      423.061        1.167        0.083      146.683        7.730        0.003      325.290      -10.566      869.657
12/31/2014  07:25:00      105.084       67.857        5.528       22.182       15.959       16.774      492.030      254.696      281.383        0.835        0.051      125.089       10.774        0.007      325.275      -10.589      869.657
12/31/2014  07:26:00       46.647       47.344       46.847       27.384       20.568       18.618      749.892      423.033      346.633        0.407        0.076       66.464       10.970        0.027      325.406      -10.378      869.659
12/31/2014  07:27:00       74.581       48.865       25.115       22.066       17.920       19.501      486.888      321.127      380.299        0.488        0.059       89.163        9.713        0.012      325.430      -10.340      869.683
12/31/2014  07:28:00       87.325       56.618       28.474       24.655       26.981       28.059      607.866      727.997      787.304        0.688        0.106      104.073       12.228        0.014      325.368      -10.440      869.720
12/31/2014  07:29:00       97.525       56.534       22.874       30.230       21.456       24.900      913.824      460.373      619.991        0.761        0.100      112.726       13.391        0.014      325.428      -10.344      869.737
12/31/2014  07:30:00      106.443       48.653       31.458       36.689       32.287       28.310     1346.091     1042.458      801.454        0.894        0.160      117.035       19.043        0.026      325.483      -10.254      869.738
12/31/2014  07:31:00      107.711       41.923        9.128       29.449       30.351       30.748      867.258      921.181      945.444        0.809        0.137      115.582       20.260        0.031      325.423      -10.351      869.740
12/31/2014  07:32:00      108.545       65.635       27.212       30.022       24.106       27.136      901.292      581.090      736.339        0.952        0.111      126.846       12.280        0.009      325.442      -10.320      869.731
12/31/2014  07:33:00       50.464       25.379       23.275       44.876       26.941       21.299     2013.867      725.794      453.652        0.346        0.160       56.487       16.915        0.090      325.464      -10.285      869.723
12/31/2014  07:34:00       38.240       34.630       49.883       42.185       29.696       26.102     1779.533      881.854      681.294        0.425        0.167       51.590       23.089        0.200      325.555      -10.138      869.720
12/31/2014  07:35:00      139.122       77.256       32.341       48.537       27.362       26.958     2355.855      748.657      726.708        1.510        0.192      159.134       19.754        0.015      325.506      -10.216      869.718
12/31/2014  07:36:00       95.996       79.040       29.931       42.059       19.564       33.803     1768.966      382.731     1142.665        0.983        0.165      124.349       29.490        0.056      325.498      -10.230      869.717
12/31/2014  07:37:00       12.586       20.011       49.167       25.563       38.860       18.978      653.488     1510.116      360.179        0.275        0.126       23.640       18.538        0.615      325.571      -10.112      869.706
12/31/2014  07:38:00       -6.900       34.061       55.205       18.564       31.530       18.398      344.623      994.136      338.476        0.297        0.084       34.753       11.352        0.107      325.628      -10.019      869.700
12/31/2014  07:39:00        7.378       -5.319       33.568       20.163       23.008       13.774      406.547      529.359      189.730        0.117        0.056        9.096        9.770        1.154      325.665       -9.960      869.717
12/31/2014  07:40:00       10.551       42.544       43.438       24.748       25.863       22.867      612.468      668.918      522.881        0.281        0.090       43.833        7.698        0.031      325.603      -10.060      869.742
12/31/2014  07:41:00        2.861        7.832       12.512       13.903       12.008       19.427      193.296      144.204      377.418        0.047        0.036        8.338        9.866        1.400      325.618      -10.036      869.752
12/31/2014  07:42:00       39.069       29.821       19.136       32.522       33.598       21.279     1057.684     1128.810      452.811        0.271        0.132       49.150        8.973        0.033      325.584      -10.090      869.760
12/31/2014  07:43:00       57.970       55.164       44.384       33.857       29.184       41.410     1146.314      851.734     1714.787        0.604        0.186       80.022       23.183        0.084      325.524      -10.186      869.762
12/31/2014  07:44:00       35.078       26.584       16.899       29.833       31.417       31.962      890.036      987.039     1021.579        0.256        0.145       44.013       23.838        0.293      325.490      -10.243      869.761
12/31/2014  07:45:00       59.636       46.068        9.626       21.295       19.595       20.065      453.479      383.977      402.595        0.351        0.062       75.357       12.351        0.027      325.434      -10.334      869.771
12/31/2014  07:46:00       59.808       53.831        7.409       20.763       21.364       20.354      431.093      456.420      414.300        0.392        0.065       80.466       11.844        0.022      325.431      -10.339      869.786
12/31/2014  07:47:00       96.029       64.917       12.090       31.084       25.854       21.626      966.213      668.455      467.670        0.784        0.105      115.913       14.671        0.016      325.416      -10.362      869.801
12/31/2014  07:48:00      120.300       74.820       19.199       28.765       20.278       23.601      827.399      411.212      557.005        1.112        0.090      141.669       12.570        0.008      325.416      -10.360      869.813
12/31/2014  07:49:00      100.681       51.808       30.347       36.951       21.133       26.355     1365.346      446.608      694.603        0.812        0.125      113.229       19.273        0.029      325.439      -10.325      869.800
12/31/2014  07:50:00      103.186       39.820       15.883       34.327       24.004       30.146     1178.328      576.178      908.764        0.757        0.133      110.603       18.973        0.029      325.516      -10.200      869.806
12/31/2014  07:51:00       52.582       46.395       46.166       30.439       25.199       22.393      926.528      635.005      501.455        0.456        0.103       70.124       12.044        0.029      325.591      -10.080      869.795
12/31/2014  07:52:00        7.109       32.602       53.022       20.597       25.908       14.646      424.220      671.201      214.496        0.262        0.065       33.368       15.331        0.211      325.748       -9.825      869.778
12/31/2014  07:53:00       43.229       35.259       12.274       35.052       20.848       22.694     1228.652      434.643      514.999        0.272        0.109       55.785       16.745        0.090      325.677       -9.941      869.789
12/31/2014  07:54:00       73.344       62.622       19.869       33.363       28.327       31.512     1113.096      802.433      993.028        0.630        0.145       96.441       24.986        0.067      325.561      -10.128      869.785
12/31/2014  07:55:00       16.049       34.502       54.776       24.790       28.879       14.134      614.551      834.017      199.759        0.305        0.082       38.052       16.177        0.181      325.774       -9.784      869.783
12/31/2014  07:56:00       11.811       44.475       61.270       26.450       38.590       28.043      699.629     1489.189      786.436        0.442        0.149       46.016       22.486        0.239      325.799       -9.744      869.755
12/31/2014  07:57:00       35.526       40.980       64.452       42.237       67.542       31.565     1783.950     4561.892      996.337        0.722        0.367       54.236       43.199        0.634      325.716       -9.877      869.748
12/31/2014  07:58:00        2.741       22.028       57.579       19.471       43.545       19.219      379.136     1896.126      369.383        0.323        0.132       22.198       18.875        0.723      325.949       -9.501      869.750
12/31/2014  07:59:00        6.728       26.506       49.144       20.400       35.316       33.482      416.144     1247.188     1121.052        0.297        0.139       27.347       30.076        1.210      325.872       -9.626      869.748
12/31/2014  08:00:00       49.921       62.821       57.502       43.684       38.868       34.002     1908.314     1510.687     1156.154        0.716        0.229       80.241       26.614        0.110      325.582      -10.093      869.757
12/31/2014  08:01:00       44.739       21.587       53.953       43.202       38.835       30.972     1866.438     1508.184      959.247        0.486        0.217       49.675       32.397        0.425      325.651       -9.982      869.766
12/31/2014  08:02:00       26.006       -4.844       10.699       36.387       36.699       34.429     1323.991     1346.806     1185.387        0.233        0.193       26.453       20.421        0.596      325.760       -9.807      869.771
12/31/2014  08:03:00       20.173       23.014       35.058       37.235       23.279       17.405     1386.461      541.924      302.925        0.220        0.112       30.604       11.208        0.134      325.860       -9.645      869.782
12/31/2014  08:04:00       90.041       74.101       27.475       28.996       25.324       24.303      840.753      641.305      590.615        0.821        0.104      116.612       18.457        0.025      325.641       -9.999      869.793
12/31/2014  08:05:00       67.420       21.905       22.104       26.073       22.603       20.604      679.805      510.907      424.517        0.356        0.081       70.889       14.819        0.044      325.737       -9.844      869.795
12/31/2014  08:06:00       46.929       17.121       24.496       29.874       25.349       28.671      892.463      642.580      822.052        0.273        0.118       49.954       14.938        0.089      325.809       -9.727      869.796
12/31/2014  08:07:00       41.265        5.945       11.138       32.910       19.824       18.617     1083.070      392.986      346.592        0.184        0.091       41.691       16.467        0.156      325.830       -9.695      869.794
12/31/2014  08:08:00       80.781       69.881       10.179       23.720       28.299       25.323      562.635      800.832      641.277        0.676        0.100      106.813       13.704        0.016      325.720       -9.870      869.796
12/31/2014  08:09:00       69.216       54.387       12.913       25.742       22.113       26.210      662.645      488.969      686.939        0.488        0.092       88.027       14.728        0.028      325.806       -9.732      869.801
12/31/2014  08:10:00       82.244       51.625       15.335       38.490       25.961       25.309     1481.512      673.985      640.524        0.623        0.140       97.104       26.175        0.073      325.852       -9.658      869.797
12/31/2014  08:11:00       81.275       63.740        7.656       22.293       30.427       26.322      496.988      925.778      692.830        0.642        0.106      103.288       12.560        0.015      325.775       -9.783      869.813
12/31/2014  08:12:00       95.492       66.732        5.866       24.342       20.115       24.062      592.544      404.620      578.998        0.759        0.079      116.498       12.336        0.011      325.780       -9.774      869.821
12/31/2014  08:13:00      112.901       61.708       11.502       28.682       28.177       25.365      822.682      793.944      643.400        0.947        0.113      128.665        7.305        0.003      325.757       -9.811      869.827
12/31/2014  08:14:00       94.182       75.363       19.226       24.823       24.858       25.759      616.205      617.941      663.530        0.841        0.095      120.622       15.818        0.017      325.734       -9.849      869.820
12/31/2014  08:15:00      111.489       84.344       19.953       30.742       22.596       31.732      945.062      510.592     1006.906        1.120        0.123      139.799       22.272        0.025      325.718       -9.875      869.805
12/31/2014  08:16:00       75.159       64.370       22.271       33.930       25.341       27.769     1151.237      642.176      771.135        0.643        0.128       98.957       15.233        0.024      325.811       -9.724      869.790
12/31/2014  08:17:00      100.710       79.016       20.775       31.122       24.057       26.666      968.608      578.735      711.068        0.954        0.113      128.008        9.999        0.006      325.809       -9.727      869.774
12/31/2014  08:18:00       75.353       57.033       28.167       38.526       35.322       26.244     1484.287     1247.614      688.730        0.657        0.171       94.503        9.438        0.010      325.909       -9.566      869.768
12/31/2014  08:19:00      103.989       44.708       -0.796       34.613       33.550       28.767     1198.033     1125.599      827.562        0.798        0.158      113.192       17.889        0.025      325.943       -9.512      869.779
12/31/2014  08:20:00       74.731       37.583       15.605       24.991       37.595       26.828      624.555     1413.348      719.730        0.500        0.138       83.650       13.202        0.025      326.039       -9.356      869.785
12/31/2014  08:21:00       60.352       58.581       25.240       31.434       35.284       36.010      988.073     1244.951     1296.709        0.562        0.176       84.108       22.715        0.073      326.027       -9.374      869.801
12/31/2014  08:22:00       29.259       31.822       37.838       34.314       40.286       32.271     1177.461     1622.943     1041.396        0.357        0.192       43.229       28.343        0.430      326.175       -9.135      869.821
12/31/2014  08:23:00       36.004       37.058        0.010       45.645       54.591       33.990     2083.451     2980.156     1155.312        0.444        0.311       51.668       31.757        0.378      326.107       -9.246      869.817
12/31/2014  08:24:00       23.672       57.717       48.113       41.915       37.498       41.784     1756.893     1406.125     1745.926        0.556        0.245       62.382       36.922        0.350      326.258       -9.001      869.804
12/31/2014  08:25:00       48.908       61.288       51.525       57.951       33.408       41.702     3358.306     1116.095     1739.098        0.751        0.311       78.411       37.438        0.228      326.192       -9.107      869.796
12/31/2014  08:26:00       50.214       74.589       11.215       41.087       32.669       34.500     1688.131     1067.283     1190.241        0.608        0.197       89.916       26.361        0.086      326.113       -9.236      869.802
12/31/2014  08:27:00       18.785       88.760       70.508       37.163       43.429       27.280     1381.097     1886.106      744.197        0.861        0.201       90.726       22.453        0.061      326.224       -9.056      869.821
12/31/2014  08:28:00       -6.272       31.662       73.367       20.603       31.164       22.856      424.472      971.204      522.383        0.417        0.096       32.277       16.129        0.250      326.511       -8.592      869.849
12/31/2014  08:29:00       13.270       76.690       85.623       61.396       41.465       29.461     3769.462     1719.365      867.974        0.987        0.318       77.829       23.559        0.092      326.284       -8.960      869.870
12/31/2014  08:30:00       95.287       66.327       43.320       41.205       31.519       32.145     1697.815      993.456     1033.277        0.954        0.186      116.098       25.641        0.049      325.981       -9.450      869.891
12/31/2014  08:31:00      114.062       45.693       20.023       44.203       35.453       36.325     1953.922     1256.948     1319.498        1.001        0.227      122.874       30.016        0.060      326.086       -9.280      869.898
12/31/2014  08:32:00       92.022       55.534       10.904       42.690       34.965       25.418     1822.461     1222.516      646.079        0.768        0.185      107.481       19.112        0.032      326.158       -9.162      869.900
12/31/2014  08:33:00      106.281       53.041       -3.852       36.626       35.743       29.093     1341.453     1277.587      846.428        0.879        0.173      118.781       13.310        0.013      326.179       -9.128      869.909
12/31/2014  08:34:00       59.904       62.367        1.716       36.206       33.155       23.420     1310.866     1099.287      548.500        0.522        0.148       86.476        7.884        0.008      326.160       -9.161      869.930
12/31/2014  08:35:00      121.084       55.242       -0.104       38.131       33.960       36.800     1454.002     1153.262     1354.234        1.084        0.198      133.090       15.956        0.014      326.131       -9.206      869.951
12/31/2014  08:36:00      119.742       81.817        3.142       25.798       23.441       24.770      665.520      549.491      613.568        1.143        0.091      145.025       16.902        0.014      325.969       -9.470      869.968
12/31/2014  08:37:00      100.815       66.300       -5.773       40.778       29.383       27.734     1662.845      863.346      769.191        0.894        0.165      120.662       15.577        0.017      326.094       -9.268      869.982
12/31/2014  08:38:00       81.978       89.543       -1.462       38.194       27.567       28.821     1458.767      759.912      830.659        0.889        0.152      121.402       18.112        0.022      326.181       -9.125      869.993
12/31/2014  08:39:00      111.802       82.643       12.490       36.613       30.892       34.323     1340.531      954.300     1178.050        1.148        0.174      139.031       21.312        0.023      326.180       -9.128      870.006
12/31/2014  08:40:00       75.409       69.890       13.918       44.783       26.867       34.238     2005.488      721.814     1172.234        0.733        0.195      102.816       29.018        0.080      326.326       -8.889      870.017
12/31/2014  08:41:00        4.950       67.133       83.418       29.505       34.527       20.939      870.557     1192.092      438.459        0.699        0.125       67.315       19.153        0.081      326.572       -8.493      870.034
12/31/2014  08:42:00       63.891       55.387       50.834       42.199       28.956       36.304     1780.719      838.423     1317.987        0.683        0.197       84.556       27.225        0.104      326.396       -8.779      870.049
12/31/2014  08:43:00       32.723       70.255       65.508       39.305       33.754       28.275     1544.883     1139.355      799.466        0.689        0.174       77.502       17.755        0.052      326.482       -8.638      870.060
12/31/2014  08:44:00       27.815       55.513       67.689       43.741       42.603       33.251     1913.309     1815.017     1105.598        0.663        0.242       62.092       31.515        0.258      326.704       -8.278      870.074
12/31/2014  08:45:00       52.883       22.005       51.102       49.314       39.605       36.099     2431.851     1568.535     1303.121        0.560        0.265       57.278       29.161        0.259      326.636       -8.388      870.086
12/31/2014  08:46:00        9.986       57.440       87.169       35.220       49.779       27.338     1240.448     2477.966      747.342        0.773        0.223       58.302       29.848        0.262      326.710       -8.268      870.091
12/31/2014  08:47:00       59.197       60.878       67.916       45.147       49.553       37.190     2038.250     2455.465     1383.076        0.885        0.294       84.914       37.448        0.194      326.416       -8.745      870.109
12/31/2014  08:48:00       77.739       45.306       46.078       66.351       62.573       38.843     4402.441     3915.365     1508.808        1.002        0.491       89.977       35.607        0.157      326.386       -8.795      870.105
12/31/2014  08:49:00       28.890       91.025       94.338       40.271       55.329       34.393     1621.767     3061.268     1182.876        1.194        0.293       95.499       37.898        0.157      326.564       -8.506      870.104
12/31/2014  08:50:00       51.849        2.823       30.720       40.235       40.662       37.739     1618.827     1653.375     1424.223        0.417        0.235       51.926       35.472        0.467      326.602       -8.444      870.108
12/31/2014  08:51:00       35.678       79.240       86.158       57.574       54.576       39.434     3314.746     2978.546     1555.064        1.141        0.392       86.902       36.776        0.179      326.733       -8.232      870.088
12/31/2014  08:52:00      102.783       48.366       27.947       51.650       56.277       38.247     2667.680     3167.143     1462.842        1.049        0.365      113.594       25.032        0.049      326.520       -8.576      870.086
12/31/2014  08:53:00       59.292       77.001       82.863       51.281       43.398       33.327     2629.696     1883.352     1110.662        1.097        0.281       97.184       29.595        0.093      326.699       -8.287      870.102
12/31/2014  08:54:00       69.598       96.647       88.942       42.492       44.736       38.493     1805.606     2001.334     1481.739        1.369        0.264      119.099       25.805        0.047      326.545       -8.536      870.102
12/31/2014  08:55:00      115.565       60.538       33.770       35.954       34.012       31.667     1292.695     1156.847     1002.785        1.081        0.173      130.461       18.239        0.020      326.496       -8.615      870.127
12/31/2014  08:56:00       85.614       48.075       22.688       38.976       37.772       31.627     1519.150     1426.742     1000.250        0.705        0.197       98.188       20.541        0.044      326.688       -8.305      870.145
12/31/2014  08:57:00      125.452       86.203       16.853       45.851       33.031       35.490     2102.313     1091.079     1259.575        1.395        0.223      152.214       16.264        0.011      326.669       -8.336      870.159
12/31/2014  08:58:00      114.180       93.038        2.397       52.307       38.078       35.485     2736.017     1449.924     1259.174        1.357        0.272      147.286       19.543        0.018      326.570       -8.496      870.161
12/31/2014  08:59:00      128.722       97.859       -1.728       37.339       26.493       28.819     1394.234      701.872      830.540        1.454        0.146      161.697       14.015        0.008      326.500       -8.610      870.154
12/31/2014  09:00:00      119.996       83.555        5.737       43.574       30.758       27.784     1898.693      946.064      771.946        1.251        0.181      146.220       19.409        0.018      326.507       -8.597      870.148
12/31/2014  09:01:00      140.068       78.623       28.880       45.437       41.607       40.115     2064.520     1731.174     1609.248        1.602        0.270      160.626       31.462        0.038      326.662       -8.347      870.136
12/31/2014  09:02:00       43.791       33.010       52.522       46.595       39.092       25.394     2171.127     1528.171      644.858        0.505        0.217       54.839       18.888        0.119      326.914       -7.938      870.132
12/31/2014  09:03:00       39.203       56.818       33.394       58.923       42.166       55.064     3471.875     1777.933     3032.013        0.708        0.414       69.030       44.447        0.415      326.944       -7.889      870.122
12/31/2014  09:04:00       73.380       44.512       29.161       57.556       49.450       37.262     3312.721     2445.299     1388.425        0.768        0.357       85.825       18.642        0.047      326.773       -8.165      870.129
12/31/2014  09:05:00       87.894       72.662        8.154       33.792       35.674       28.452     1141.904     1272.663      809.499        0.815        0.161      114.040       15.910        0.019      326.719       -8.253      870.128
12/31/2014  09:06:00       75.607       75.216       18.784       46.485       42.908       37.279     2160.864     1841.094     1389.712        0.856        0.270      106.649       33.348        0.098      327.083       -7.663      870.131
12/31/2014  09:07:00       92.258       84.924       12.666       51.984       38.908       34.477     2702.347     1513.869     1188.658        1.064        0.270      125.394       21.234        0.029      326.676       -8.324      870.142
12/31/2014  09:08:00      131.650       94.837       18.608       50.997       38.780       37.179     2600.696     1503.922     1382.302        1.608        0.274      162.252       27.153        0.028      326.679       -8.319      870.136
12/31/2014  09:09:00       49.854       67.581       71.513       39.231       46.556       39.736     1539.069     2167.440     1578.945        0.873        0.264       83.980       26.716        0.101      327.226       -7.432      870.143
12/31/2014  09:10:00       70.230      109.635       90.968       55.630       50.651       49.483     3094.736     2565.512     2448.561        1.667        0.405      130.200       40.547        0.097      326.930       -7.913      870.153
12/31/2014  09:11:00       69.195       65.544       68.970       44.359       44.107       42.401     1967.763     1945.449     1797.862        0.977        0.286       95.310       28.881        0.092      326.829       -8.076      870.152
12/31/2014  09:12:00       44.236       89.351       99.028       43.795       44.544       25.205     1918.040     1984.185      635.309        1.214        0.227       99.701       28.421        0.081      326.746       -8.211      870.148
12/31/2014  09:13:00       68.957       70.850       63.102       60.384       52.657       36.710     3646.196     2772.724     1347.635        1.076        0.388       98.868       31.841        0.104      327.040       -7.735      870.150
12/31/2014  09:14:00      142.365       82.209        8.433       45.907       35.504       39.145     2107.468     1260.507     1532.328        1.600        0.245      164.396       25.072        0.023      326.697       -8.290      870.156
12/31/2014  09:15:00       45.595       36.091       71.794       39.773       39.010       33.305     1581.889     1521.810     1109.222        0.637        0.211       58.150       24.640        0.180      327.252       -7.388      870.151
12/31/2014  09:16:00       98.516       86.035       32.081       67.764       43.430       39.592     4591.898     1886.141     1567.561        1.309        0.402      130.795       42.591        0.106      326.990       -7.814      870.161
12/31/2014  09:17:00      133.123       74.809       17.000       51.325       46.493       33.007     2634.213     2161.601     1089.474        1.474        0.294      152.702       14.903        0.010      326.838       -8.061      870.155
12/31/2014  09:18:00      100.357       73.730       45.332       75.291       68.815       37.941     5668.773     4735.506     1439.541        1.470        0.592      124.529       43.548        0.122      327.152       -7.551      870.150
12/31/2014  09:19:00       80.110       36.891       73.728       73.011       50.198       33.471     5330.667     2519.888     1120.332        1.109        0.449       88.197       31.990        0.132      327.075       -7.676      870.149
12/31/2014  09:20:00       67.843       43.133       34.902       64.833       50.233       48.922     4203.334     2523.348     2393.371        0.840        0.456       80.393       34.943        0.189      327.281       -7.341      870.148
12/31/2014  09:21:00       18.065       60.117       65.438       28.037       28.795       29.581      786.054      829.165      875.020        0.536        0.125       62.772       20.879        0.111      327.209       -7.459      870.156
12/31/2014  09:22:00       27.670       29.197       57.165       35.596       44.352       31.060     1267.073     1967.070      964.700        0.454        0.210       40.225       25.097        0.389      327.597       -6.828      870.149
12/31/2014  09:23:00       19.123       20.942       32.849       38.746       49.322       35.495     1501.264     2432.680     1259.893        0.354        0.260       28.359       24.170        0.726      327.507       -6.974      870.151
12/31/2014  09:24:00       32.337       31.684       75.152       45.694       52.745       36.736     2087.985     2782.046     1349.540        0.696        0.311       45.272       31.515        0.485      327.399       -7.150      870.153
12/31/2014  09:25:00       58.803       75.746       76.008       67.108       55.103       52.348     4503.458     3036.384     2740.278        1.262        0.514       95.891       43.563        0.206      327.293       -7.323      870.164
12/31/2014  09:26:00       63.815      107.588       92.532       46.562       35.352       36.231     2167.983     1249.797     1312.696        1.447        0.237      125.090       32.607        0.068      326.950       -7.880      870.198
12/31/2014  09:27:00       92.979      118.388       78.696       39.619       24.953       40.609     1569.704      622.645     1649.068        1.635        0.192      150.535       32.375        0.046      326.916       -7.936      870.212
12/31/2014  09:28:00       43.564       54.921       71.888       50.698       44.546       36.815     2570.252     1984.307     1355.353        0.799        0.295       70.101       29.227        0.174      327.072       -7.681      870.214
12/31/2014  09:29:00       57.378       67.104       86.988       64.494       60.749       45.532     4159.495     3690.481     2073.154        1.264        0.496       88.290       43.950        0.248      327.187       -7.495      870.199
12/31/2014  09:30:00       73.786      104.975       91.466       53.014       38.728       44.133     2810.449     1499.859     1947.726        1.554        0.313      128.313       39.799        0.096      327.158       -7.542      870.190
12/31/2014  09:31:00       75.257      162.902      143.638       43.491       40.672       22.242     1891.492     1654.187      494.695        2.844        0.202      179.446       20.456        0.013      326.912       -7.944      870.176
12/31/2014  09:32:00       80.723       93.372       83.460       30.079       40.990       36.872      904.724     1680.177     1359.538        1.307        0.197      123.428       32.104        0.068      326.888       -7.979      870.180
12/31/2014  09:33:00       96.863       96.921       73.176       68.211       42.824       42.123     4652.717     1833.894     1774.351        1.619        0.413      137.026       34.738        0.064      326.955       -7.872      870.176
12/31/2014  09:34:00       39.559      -71.158       23.999       50.791       72.454       47.479     2579.707     5249.609     2254.219        0.864        0.504       81.415       42.133        0.268      327.358       -7.217      870.170
12/31/2014  09:35:00       69.139      -47.935       40.101       52.115       84.602       53.681     2715.936     7157.428     2881.629        1.072        0.638       84.131       59.341        0.498      327.297       -7.314      870.178
12/31/2014  09:36:00       13.279       49.843       76.103       47.538       51.288       32.199     2259.882     2630.503     1036.798        0.719        0.296       51.581       26.492        0.264      327.542       -6.919      870.182
12/31/2014  09:37:00      110.309       47.564       88.191       82.705       65.262       42.783     6840.106     4259.188     1830.388        1.757        0.646      120.127       53.221        0.196      327.149       -7.557      870.190
12/31/2014  09:38:00       93.544       72.579       51.358       72.210       52.467       53.466     5214.251     2752.805     2858.603        1.374        0.541      118.399       41.943        0.125      327.082       -7.665      870.195
12/31/2014  09:39:00       91.226       83.311       47.917       41.633       39.317       49.665     1733.302     1545.857     2466.589        1.165        0.287      123.544       29.830        0.058      327.124       -7.598      870.186
12/31/2014  09:40:00       21.702       21.603       55.001       42.118       59.406       31.235     1773.962     3529.131      975.613        0.512        0.314       30.621       18.413        0.362      327.433       -7.095      870.196
12/31/2014  09:41:00       43.270       42.971       71.847       63.874       80.034       40.413     4079.895     6405.413     1633.191        1.050        0.606       60.982       41.489        0.463      327.509       -6.973      870.196
12/31/2014  09:42:00       54.323      -58.537       24.651       45.841       85.810       40.712     2101.406     7363.365     1657.494        0.905        0.556       79.859       46.407        0.338      327.547       -6.908      870.185
12/31/2014  09:43:00       69.347      -64.509       36.611       64.961      113.351       54.783     4219.893    12848.341     3001.148        1.519        1.003       94.713       68.890        0.529      327.483       -7.014      870.178
12/31/2014  09:44:00       59.085      -18.881       38.342       58.068       98.890       48.574     3371.901     9779.201     2359.397        1.041        0.776       62.029       46.365        0.559      327.661       -6.725      870.165
12/31/2014  09:45:00       97.880       97.760       66.420       75.534       38.667       52.115     5705.370     1495.150     2715.958        1.673        0.496      138.338       45.977        0.110      327.334       -7.255      870.176
12/31/2014  09:46:00       86.380       77.173       68.350       48.329       40.871       46.519     2335.722     1670.468     2163.997        1.213        0.309      115.833       35.073        0.092      327.189       -7.491      870.173
12/31/2014  09:47:00      110.097       89.475       88.833       60.415       65.837       47.408     3649.947     4334.489     2247.476        1.912        0.512      141.870       46.185        0.106      327.236       -7.416      870.181
12/31/2014  09:48:00       94.180       67.754       25.959       55.237       30.498       31.991     3051.155      930.108     1023.454        0.957        0.250      116.020       16.225        0.020      327.048       -7.721      870.181
12/31/2014  09:49:00       58.643       45.848       58.267       54.449       40.017       33.842     2964.726     1601.363     1145.271        0.732        0.286       74.438       29.787        0.160      327.492       -6.999      870.178
12/31/2014  09:50:00       79.505       67.460       49.327       67.063       44.602       33.934     4497.381     1989.310     1151.511        1.047        0.382      104.269       30.136        0.084      327.413       -7.128      870.177
12/31/2014  09:51:00       59.381       77.090       81.456       54.204       42.579       34.732     2938.059     1812.975     1206.333        1.103        0.298       97.309       27.096        0.078      327.461       -7.050      870.157
12/31/2014  09:52:00       45.015       78.129       68.915       54.868       58.578       60.449     3010.504     3431.425     3654.097        1.149        0.505       90.169       42.228        0.219      327.733       -6.609      870.143
12/31/2014  09:53:00      115.455      120.491       96.106       61.357       42.981       56.266     3764.696     1847.352     3165.841        2.293        0.439      166.877       40.086        0.058      327.174       -7.517      870.135
12/31/2014  09:54:00      106.784       94.873       68.574       51.831       42.299       45.957     2686.463     1789.179     2112.054        1.585        0.329      142.842       32.585        0.052      327.279       -7.345      870.129
12/31/2014  09:55:00       50.788       62.857       77.839       58.455       48.189       37.542     3416.962     2322.184     1409.373        0.987        0.357       80.811       41.680        0.266      327.546       -6.911      870.123
12/31/2014  09:56:00       72.189       85.113       96.509       75.202       55.315       46.364     5655.290     3059.731     2149.615        1.631        0.543      111.604       45.674        0.167      327.500       -6.986      870.126
12/31/2014  09:57:00      119.555      103.599       70.556       50.764       44.473       40.795     2577.011     1977.859     1664.205        1.811        0.311      158.197       28.161        0.032      327.348       -7.234      870.112
12/31/2014  09:58:00      123.872      116.899      108.914       77.084       58.270       56.172     5941.926     3395.382     3155.349        2.668        0.625      170.322       46.969        0.076      327.252       -7.393      870.082
12/31/2014  09:59:00      105.513       96.812       79.893       59.173       41.764       38.515     3501.438     1744.236     1483.401        1.681        0.336      143.197       28.449        0.039      327.380       -7.182      870.065
12/31/2014  10:00:00       71.804      118.297      102.147       81.554       46.884       51.405     6651.043     2198.083     2642.519        2.054        0.575      138.384       56.173        0.165      327.559       -6.890      870.039
12/31/2014  10:01:00       30.057      107.971      105.953       63.731       55.108       59.273     4061.614     3036.899     3513.257        1.720        0.531      112.076       46.041        0.169      327.575       -6.863      870.035
12/31/2014  10:02:00      174.639      120.850       67.582       45.995       41.740       43.646     2115.520     1742.243     1904.937        2.772        0.288      212.376       34.832        0.027      327.161       -7.540      870.025
12/31/2014  10:03:00      144.966      101.869       56.524       70.119       70.573       74.331     4916.639     4980.519     5525.079        2.500        0.771      177.179       53.774        0.092      327.342       -7.246      870.014
12/31/2014  10:04:00      170.449      142.026       68.176       41.524       44.122       40.559     1724.225     1946.755     1645.062        2.959        0.266      221.866       30.822        0.019      327.187       -7.499      870.016
12/31/2014  10:05:00       77.896       94.761       93.146       65.204       45.512       43.658     4251.529     2071.299     1906.023        1.597        0.411      122.668       42.664        0.121      327.424       -7.111      870.019
12/31/2014  10:06:00       89.780       91.463       87.323       72.345       40.233       41.314     5233.795     1618.691     1706.877        1.630        0.428      128.164       40.761        0.101      327.542       -6.919      870.016
12/31/2014  10:07:00      130.115       99.510       54.523       75.400       54.587       63.708     5685.119     2979.778     4058.666        2.126        0.636      163.805       58.069        0.126      327.581       -6.857      870.025
12/31/2014  10:08:00      135.514      104.136       45.858       63.548       46.348       41.058     4038.370     2148.154     1685.782        1.959        0.394      170.905       28.302        0.027      327.454       -7.063      870.026
12/31/2014  10:09:00      138.387      117.824       82.044       63.068       58.508       51.095     3977.622     3423.183     2610.733        2.489        0.501      181.751       45.970        0.064      327.524       -6.950      870.036
12/31/2014  10:10:00      161.914       71.961       56.649       80.962       59.291       63.362     6554.864     3515.418     4014.804        2.434        0.704      177.185       45.509        0.066      327.401       -7.149      870.037
12/31/2014  10:11:00      109.039      141.462      129.229       51.330       48.141       38.405     2634.736     2317.537     1474.978        2.751        0.321      178.609       28.529        0.026      327.507       -6.976      870.046
12/31/2014  10:12:00       58.322       83.996       99.036       64.787       57.275       37.219     4197.361     3280.480     1385.224        1.456        0.443      102.258       40.960        0.160      327.564       -6.882      870.062
12/31/2014  10:13:00      116.916       58.095       27.246       64.524       57.973       52.316     4163.304     3360.830     2736.928        1.402        0.513      130.555       35.383        0.073      327.602       -6.820      870.077
12/31/2014  10:14:00      129.934       79.176       45.108       79.883       87.697       53.615     6381.339     7690.678     2874.536        2.106        0.847      152.157       42.268        0.077      327.790       -6.517      870.085
12/31/2014  10:15:00      119.254       74.789       63.100       82.274       62.201       43.627     6769.038     3868.935     1903.329        1.817        0.627      140.766       41.203        0.086      327.674       -6.704      870.113
12/31/2014  10:16:00       86.662       81.592       67.934       69.404       39.970       54.181     4816.857     1597.625     2935.587        1.406        0.468      119.027       51.568        0.188      327.811       -6.481      870.124
12/31/2014  10:17:00      120.784       76.523       15.132       52.529       43.630       36.335     2759.272     1903.544     1320.245        1.333        0.299      142.984       26.882        0.035      327.514       -6.964      870.129
12/31/2014  10:18:00      124.597       96.181       46.717       60.465       46.087       39.973     3656.049     2123.968     1597.834        1.717        0.369      157.401       14.955        0.009      327.624       -6.786      870.140
12/31/2014  10:19:00      154.975      112.819       23.289       57.349       35.364       48.737     3288.916     1250.622     2375.312        2.210        0.346      191.691       27.613        0.021      327.659       -6.730      870.154
12/31/2014  10:20:00       80.456       68.372       46.047       59.354       36.642       41.922     3522.870     1342.659     1757.456        0.994        0.331      105.583       37.503        0.126      327.709       -6.647      870.179
12/31/2014  10:21:00       73.688       61.081       23.819       43.611       37.600       39.575     1901.935     1413.735     1566.183        0.730        0.244       95.712       33.754        0.124      327.988       -6.191      870.164
12/31/2014  10:22:00       58.007       47.349       61.638       68.467       55.702       40.720     4687.783     3102.695     1658.117        0.943        0.472       74.878       40.959        0.299      328.096       -6.018      870.159
12/31/2014  10:23:00       60.719       88.189       99.843       51.710       70.511       49.916     2673.974     4971.794     2491.603        1.578        0.507      107.070       49.989        0.218      327.904       -6.330      870.149
12/31/2014  10:24:00       30.488      115.724      119.231       53.106       71.941       32.330     2820.209     5175.485     1045.259        1.879        0.452      119.673       36.380        0.092      327.853       -6.414      870.143
12/31/2014  10:25:00       47.910       16.201       25.501       60.518       47.022       52.753     3662.435     2211.100     2782.885        0.593        0.433       50.575       47.149        0.869      327.780       -6.531      870.154
12/31/2014  10:26:00       31.624      134.515      156.639       74.058       65.877       46.857     5484.562     4339.726     2195.532        2.782        0.601      138.182       47.585        0.119      327.848       -6.422      870.146
12/31/2014  10:27:00      171.056       92.261       18.105       62.199       60.154       50.400     3868.725     3618.554     2540.159        2.406        0.501      194.351       38.991        0.040      327.701       -6.660      870.142
12/31/2014  10:28:00      137.256      103.503       31.152       53.920       42.010       38.493     2907.401     1764.800     1481.678        1.834        0.308      171.907       21.738        0.016      327.840       -6.435      870.135
12/31/2014  10:29:00      112.064       97.388       60.153       50.129       49.421       47.053     2512.895     2442.391     2213.980        1.641        0.358      148.468       26.510        0.032      328.321       -5.651      870.098
12/31/2014  10:30:00       92.038       79.421       28.103       96.183       64.151       50.787     9251.089     4115.315     2579.311        1.575        0.797      121.567       25.863        0.045      328.120       -5.979      870.074
12/31/2014  10:31:00       98.198       55.158       25.483       59.004       45.046       43.775     3481.502     2029.174     1916.277        1.038        0.371      112.629       26.117        0.054      327.943       -6.266      870.034
12/31/2014  10:32:00      103.808       90.087       30.465       46.987       42.487       60.513     2207.807     1805.110     3661.867        1.375        0.384      137.448       21.558        0.025      328.032       -6.121      870.001
12/31/2014  10:33:00      111.107       73.426       62.122      109.674       71.278       53.256    12028.277     5080.614     2836.189        2.077        0.997      133.177       56.045        0.177      328.361       -5.587      869.964
12/31/2014  10:34:00      139.964      116.633       71.215      104.847       66.300       75.269    10992.895     4395.682     5665.373        2.966        1.053      182.190       77.540        0.181      327.828       -6.453      869.960
12/31/2014  10:35:00       78.212      105.824      130.457       90.211       84.274       65.151     8138.091     7102.101     4244.714        2.691        0.974      131.590       68.350        0.270      327.886       -6.359      869.939
12/31/2014  10:36:00      151.630      121.242       77.853       74.365       75.191       62.332     5530.121     5653.661     3885.229        2.941        0.753      194.143       43.160        0.049      328.215       -5.827      869.921
12/31/2014  10:37:00      203.560      124.519       14.710       49.215       41.715       44.730     2422.074     1740.150     2000.783        3.166        0.308      238.624       27.135        0.013      327.786       -6.524      869.903
12/31/2014  10:38:00       59.813      102.667       77.233       52.867       69.041       76.485     2794.919     4766.720     5849.931        1.674        0.671      118.820       45.948        0.150      328.159       -5.914      869.874
12/31/2014  10:39:00      123.143      137.630      105.140       72.050       51.739       57.069     5191.198     2676.958     3256.923        2.814        0.556      184.679       45.240        0.060      328.015       -6.150      869.845
12/31/2014  10:40:00      127.367       89.761       36.237       64.250       43.921       47.252     4128.067     1929.070     2232.782        1.694        0.414      155.818       35.767        0.053      328.146       -5.935      869.838
12/31/2014  10:41:00      137.790       72.175       37.314       96.424       51.316       41.508     9297.573     2633.358     1722.936        1.962        0.683      155.548       36.133        0.054      328.272       -5.731      869.834
12/31/2014  10:42:00      137.641       92.043        6.450       45.696       45.001       34.305     2088.084     2025.082     1176.807        1.637        0.264      165.581       21.911        0.018      327.843       -6.429      869.827
12/31/2014  10:43:00       19.977      121.722      111.255       51.729       61.241       64.360     2675.839     3750.441     4142.154        1.908        0.528      123.350       58.500        0.225      328.213       -5.827      869.799
12/31/2014  10:44:00       58.212      121.751      129.771       58.375       66.895       39.176     3407.681     4474.898     1534.744        2.223        0.471      134.952       44.219        0.107      328.069       -6.061      869.779
12/31/2014  10:45:00       62.847       39.240       66.834       80.141       80.145       50.543     6422.540     6423.256     2554.637        1.268        0.770       74.091       48.179        0.423      328.281       -5.716      869.753
12/31/2014  10:46:00       29.372       65.599       60.180       55.553       61.815       50.026     3086.092     3821.115     2502.650        0.910        0.470       71.874       28.174        0.154      328.575       -5.235      869.733
12/31/2014  10:47:00       93.873       73.517       53.293       77.910       56.981       55.298     6069.988     3246.871     3057.833        1.471        0.619      119.235       38.836        0.106      328.355       -5.595      869.720
12/31/2014  10:48:00      194.942      117.527       33.970       74.747       65.652       58.644     5587.159     4310.229     3439.124        3.315        0.667      227.629       39.497        0.030      327.919       -6.308      869.687
12/31/2014  10:49:00       26.561       36.163       75.407       59.172       77.196       42.933     3501.374     5959.162     1843.215        0.950        0.565       44.869       31.506        0.493      328.712       -5.013      869.655
12/31/2014  10:50:00       24.295      102.587      100.243       58.113       48.474       38.662     3377.123     2349.719     1494.715        1.419        0.361      105.425       37.111        0.124      328.595       -5.203      869.624
12/31/2014  10:51:00        0.584       25.758       23.630       29.290       41.954       41.392      857.878     1760.154     1713.305        0.278        0.217       25.764       22.700        0.776      328.489       -5.375      869.578
12/31/2014  10:52:00       39.858       79.260      105.816       86.740      127.050       81.021     7523.782    16141.649     6564.345        2.464        1.511       88.718       91.182        1.056      328.479       -5.393      869.541
12/31/2014  10:53:00      184.137      101.022       27.666       55.441       55.227       41.170     3073.719     3050.003     1694.972        2.635        0.391      210.028       25.512        0.015      327.854       -6.414      869.521
12/31/2014  10:54:00      121.427      105.690       45.479       50.689       43.076       49.444     2569.375     1855.512     2444.733        1.742        0.343      160.981       31.911        0.039      328.139       -5.948      869.503
12/31/2014  10:55:00       52.789      121.151      133.279       54.122       79.470       46.707     2929.232     6315.494     2181.553        2.332        0.571      132.152       46.748        0.125      328.249       -5.770      869.469
12/31/2014  10:56:00       27.765       12.130       22.195       32.667       24.205       22.815     1067.103      585.902      520.515        0.179        0.109       30.299       12.332        0.166      328.254       -5.758      869.456
12/31/2014  10:57:00        8.966      -13.742       56.687       40.060       75.877       43.913     1604.836     5757.292     1928.321        0.638        0.465       16.409       36.650        4.989      328.688       -5.051      869.422
12/31/2014  10:58:00       80.190       63.527       76.490       65.526       66.966       49.924     4293.602     4484.462     2492.443        1.379        0.564      102.304       39.498        0.149      328.748       -4.953      869.416
12/31/2014  10:59:00      131.279      102.379       33.440       67.374       52.033       57.426     4539.268     2707.385     3297.719        1.969        0.527      166.480       32.362        0.038      328.580       -5.229      869.414
12/31/2014  11:00:00      184.869      115.756       11.616       41.517       33.897       42.645     1723.621     1149.039     1818.580        2.620        0.235      218.119       29.481        0.018      328.125       -5.972      869.401
12/31/2014  11:01:00       82.322       54.627       -5.870       42.495       27.588       22.435     1805.799      761.102      503.310        0.643        0.154       98.798       21.189        0.046      328.098       -6.013      869.381
12/31/2014  11:02:00      203.099      101.173       28.753       69.985       56.011       45.463     4897.890     3137.247     2066.928        3.120        0.505      226.903       28.994        0.016      328.140       -5.947      869.335
12/31/2014  11:03:00      133.799      112.393       63.929       56.466       44.125       53.343     3188.463     1946.974     2845.456        2.130        0.399      174.741       39.946        0.052      328.333       -5.630      869.311
12/31/2014  11:04:00       88.901       93.699       74.961       45.103       41.169       52.353     2034.245     1694.884     2740.857        1.438        0.323      129.162       38.611        0.089      328.357       -5.591      869.278
12/31/2014  11:05:00       84.314       44.481       70.088       79.035       78.547       62.289     6246.521     6169.687     3879.904        1.514        0.815       95.328       66.551        0.487      328.191       -5.861      869.263
12/31/2014  11:06:00       57.411       96.669       86.673       65.508       37.849       39.743     4291.310     1432.535     1579.497        1.373        0.365      112.432       19.326        0.030      328.410       -5.504      869.237
12/31/2014  11:07:00       40.176       68.320       76.574       53.240       36.811       35.940     2834.478     1355.085     1291.653        0.881        0.274       79.257       26.177        0.109      328.690       -5.047      869.221
12/31/2014  11:08:00       16.753       31.933       62.054       44.084       67.248       48.800     1943.387     4522.298     2381.413        0.700        0.442       36.061       49.191        1.861      329.094       -4.389      869.209
12/31/2014  11:09:00      133.058       64.329       -1.500       48.425       53.420       46.325     2344.947     2853.667     2146.023        1.459        0.367      147.792       13.876        0.009      328.606       -5.186      869.189
12/31/2014  11:10:00       76.943      -20.019       32.969       55.896       72.208       51.944     3124.331     5214.046     2698.160        0.922        0.552       79.505       45.868        0.333      328.693       -5.044      869.177
12/31/2014  11:11:00       74.764       79.895       82.316       66.420       86.545       55.288     4411.564     7490.046     3056.720        1.685        0.748      109.421       57.227        0.274      328.612       -5.175      869.145
12/31/2014  11:12:00      100.400      156.017      133.409       70.223       62.919       59.291     4931.339     3958.821     3515.385        3.231        0.620      185.530       54.948        0.088      328.462       -5.422      869.120
12/31/2014  11:13:00      140.114      156.588      108.990       81.967       52.473       59.217     6718.548     2753.459     3506.633        3.450        0.649      210.124       50.188        0.057      328.405       -5.517      869.093
12/31/2014  11:14:00      121.988      165.599      132.459       78.045       65.958       53.248     6090.959     4350.397     2835.324        3.656        0.664      205.679       44.804        0.047      328.281       -5.718      869.075
12/31/2014  11:15:00      104.282       78.867       22.420       31.401       34.075       28.980      986.032     1161.128      839.848        1.029        0.149      130.747       15.583        0.014      328.212       -5.827      869.075
12/31/2014  11:16:00      147.377      106.318       27.067       50.467       39.816       47.241     2546.937     1585.307     2231.732        2.006        0.318      181.724       27.346        0.023      328.306       -5.676      869.040
12/31/2014  11:17:00      107.898       90.359       38.411       72.031       68.598       45.705     5188.413     4705.649     2088.992        1.663        0.599      140.736       42.071        0.089      328.624       -5.157      869.037
12/31/2014  11:18:00      123.258      102.951       18.844       49.531       40.719       40.781     2453.365     1658.078     1663.108        1.596        0.289      160.597       12.969        0.007      328.376       -5.560      869.016
12/31/2014  11:19:00       49.739       48.552       14.720       21.177       28.687       31.665      448.464      822.945     1002.644        0.366        0.114       69.507       19.234        0.077      328.474       -5.400      869.003
12/31/2014  11:20:00       11.079        5.593       18.143       18.546       18.732       21.011      343.939      350.880      441.453        0.081        0.057       12.411        6.876        0.307      329.132       -4.325      868.983
12/31/2014  11:21:00       47.643       41.244       23.905       50.804       68.509       58.439     2581.073     4693.433     3415.146        0.761        0.534       63.015       48.450        0.591      328.607       -5.183      868.976
12/31/2014  11:22:00      101.498       97.486       53.399      106.432       57.824       53.187    11327.828     3343.558     2828.894        2.008        0.875      140.732       57.181        0.165      328.763       -4.931      868.954
12/31/2014  11:23:00      154.732      128.275       42.632       62.014       42.805       44.408     3845.790     1832.270     1972.057        2.493        0.383      200.989       27.476        0.019      328.666       -5.089      868.933
12/31/2014  11:24:00       84.719       87.184       49.137       57.582       52.655       52.995     3315.666     2772.543     2808.459        1.304        0.445      121.566       26.920        0.049      328.866       -4.760      868.923
12/31/2014  11:25:00      134.107       60.678       32.280       68.409       53.459       46.512     4679.743     2857.859     2163.354        1.620        0.485      147.196       43.220        0.086      328.500       -5.359      868.905
12/31/2014  11:26:00       64.297       44.451       20.454       29.865       26.696       24.314      891.932      712.652      591.184        0.436        0.110       78.166       16.371        0.044      328.595       -5.202      868.900
12/31/2014  11:27:00       44.884       -5.958       39.535       57.625       72.296       46.653     3320.601     5226.737     2176.493        0.717        0.536       45.277       42.547        0.883      328.934       -4.650      868.864
12/31/2014  11:28:00       51.658       54.518       89.577       70.253       56.507       44.867     4935.453     3193.017     2013.061        1.190        0.507       75.105       33.408        0.198      328.839       -4.805      868.853
12/31/2014  11:29:00       79.560       48.718       66.235       91.647       68.523       46.704     8399.198     4695.355     2181.236        1.418        0.764       93.292       49.747        0.284      328.840       -4.804      868.839
12/31/2014  11:30:00      154.641       89.116       76.612       84.435       63.944       68.103     7129.223     4088.872     4638.045        2.679        0.793      178.481       60.782        0.116      328.640       -5.132      868.825
12/31/2014  11:31:00       50.316       86.152      102.899       41.278       41.084       25.142     1703.865     1687.855      632.117        1.228        0.201       99.769       22.653        0.052      328.742       -4.965      868.829
12/31/2014  11:32:00       60.345       16.041       21.873       42.568       41.311       35.639     1812.057     1706.632     1270.154        0.458        0.239       62.440       33.647        0.290      328.680       -5.065      868.816
12/31/2014  11:33:00       30.753       62.221       63.692       30.132       49.982       41.778      907.940     2498.214     1745.378        0.701        0.258       69.406       40.298        0.337      329.003       -4.537      868.794
12/31/2014  11:34:00       78.380       25.790       68.621       51.356       53.720       37.222     2637.475     2885.888     1385.448        0.921        0.345       82.514       38.448        0.217      328.942       -4.637      868.777
12/31/2014  11:35:00       84.329       59.668       94.910       75.603       70.696       59.124     5715.740     4997.902     3495.632        1.694        0.710      103.304       60.508        0.343      328.918       -4.675      868.756
12/31/2014  11:36:00      163.181       79.022       26.271       66.851       55.446       62.337     4469.039     3074.217     3885.897        2.249        0.571      181.308       35.839        0.039      328.928       -4.661      868.736
12/31/2014  11:37:00      143.533      102.832        5.235       64.192       60.570       36.519     4120.567     3668.710     1333.628        2.016        0.456      176.568       22.625        0.016      328.666       -5.090      868.744
12/31/2014  11:38:00      131.951       97.721        3.368       70.396       51.729       36.306     4955.655     2675.899     1318.119        1.796        0.447      164.196       30.935        0.035      328.811       -4.852      868.712
12/31/2014  11:39:00      112.096       90.081        7.401       48.669       33.125       34.405     2368.637     1097.277     1183.726        1.269        0.232      143.806       16.674        0.013      328.922       -4.671      868.682
12/31/2014  11:40:00       84.524       33.129        1.882       41.142       35.739       30.801     1692.703     1277.250      948.701        0.608        0.196       90.784       16.234        0.032      329.316       -4.026      868.662
12/31/2014  11:41:00       61.136      126.662      114.174       58.983       51.208       47.405     3478.938     2622.244     2247.194        2.058        0.417      140.644       41.564        0.087      329.097       -4.385      868.659
12/31/2014  11:42:00      115.348       93.119       58.441       48.223       44.896       49.745     2325.451     2015.657     2474.593        1.610        0.341      148.245       30.582        0.043      329.046       -4.469      868.644
12/31/2014  11:43:00      116.060      148.932       87.680       86.260       80.528       71.497     7440.745     6484.746     5111.844        3.118        0.952      188.814       57.442        0.093      329.142       -4.313      868.631
12/31/2014  11:44:00      134.860       65.516       13.816       73.376       52.672       63.585     5383.982     2774.373     4043.024        1.743        0.610      149.932       37.918        0.064      328.805       -4.862      868.627
12/31/2014  11:45:00       53.954       61.309        3.077       47.738       51.616       37.978     2278.906     2664.213     1442.357        0.653        0.319       81.669       29.480        0.130      328.959       -4.610      868.596
12/31/2014  11:46:00       93.621       83.959        5.013       60.420       38.464       42.954     3650.563     1479.442     1845.032        1.141        0.349      125.754       27.214        0.047      328.885       -4.731      868.584
12/31/2014  11:47:00       93.389       49.616       17.494       49.474       31.681       33.733     2447.630     1003.685     1137.889        0.804        0.229      105.751       21.494        0.041      329.021       -4.509      868.559
12/31/2014  11:48:00       19.906       55.215       17.479       33.440       34.844       33.533     1118.265     1214.136     1124.446        0.360        0.173       58.693       25.190        0.184      329.395       -3.898      868.535
12/31/2014  11:49:00       38.083       40.182       34.425       45.304       40.537       36.342     2052.462     1643.288     1320.741        0.463        0.251       55.362       24.899        0.202      329.542       -3.656      868.534
12/31/2014  11:50:00       59.331       70.479       30.746       45.798       39.387       36.884     2097.479     1551.315     1360.410        0.722        0.250       92.127       22.127        0.058      329.493       -3.737      868.501
12/31/2014  11:51:00       22.265      -41.263       48.348       62.357       77.726       45.884     3888.339     6041.358     2105.371        0.828        0.602       46.887       41.212        0.773      329.494       -3.735      868.482
12/31/2014  11:52:00       59.737        4.082       31.305       34.322       61.838       33.567     1178.030     3823.970     1126.753        0.535        0.306       59.876       31.891        0.284      329.359       -3.957      868.458
12/31/2014  11:53:00       35.782       46.259       27.965       50.010       33.152       30.361     2501.040     1099.046      921.816        0.436        0.226       58.483       29.052        0.247      329.529       -3.678      868.412
12/31/2014  11:54:00       36.453        9.536       41.789       36.696       28.283       21.168     1346.579      799.933      448.076        0.288        0.130       37.680       11.508        0.093      329.945       -2.998      868.376
12/31/2014  11:55:00       14.377        3.975       54.253       32.876       74.264       27.005     1080.821     5515.184      729.275        0.524        0.366       14.916       27.239        3.335      329.859       -3.138      868.329
12/31/2014  11:56:00       11.589      -15.841       32.885       36.685       70.769       41.489     1345.789     5008.228     1721.324        0.477        0.404       19.627       43.935        5.011      329.944       -2.998      868.306
12/31/2014  11:57:00       33.414      -44.537       45.428       65.385       89.362       43.975     4275.139     7985.574     1933.824        0.968        0.710       55.678       27.668        0.247      329.922       -3.034      868.277
12/31/2014  11:58:00       51.905       72.029      106.419       85.034      100.555       57.893     7230.840    10111.402     3351.654        1.995        1.035       88.782       59.915        0.455      329.626       -3.521      868.270
12/31/2014  11:59:00       97.201       59.274       85.761       72.919       85.446       67.335     5317.197     7301.051     4534.043        1.873        0.858      113.849       68.536        0.362      329.065       -4.437      868.283
12/31/2014  12:00:00       12.536       84.022      112.013       43.578       72.807       66.171     1899.040     5300.875     4378.614        1.567        0.579       84.952       63.330        0.556      329.316       -4.026      868.260
12/31/2014  12:01:00       34.408        0.209       29.037       57.950       67.109       45.707     3358.183     4503.649     2089.105        0.599        0.498       34.409       51.450        2.236      329.399       -3.890      868.260
12/31/2014  12:02:00       47.191      -98.682       -9.696       58.597       76.542       46.574     3433.576     5858.630     2169.109        1.176        0.573      109.386       57.186        0.273      329.232       -4.162      868.231
12/31/2014  12:03:00       54.813      -90.410        7.113       58.385       62.842       45.379     3408.821     3949.101     2059.295        1.032        0.471      105.728       32.521        0.095      329.435       -3.831      868.211
12/31/2014  12:04:00       30.664       13.923       44.598       35.174       70.512       40.476     1237.205     4971.964     1638.328        0.548        0.392       33.677       48.858        2.105      329.364       -3.949      868.192
12/31/2014  12:05:00       33.766       14.960       55.335       39.122       81.707       42.694     1530.533     6676.017     1822.741        0.723        0.501       36.931       51.623        1.954      329.425       -3.847      868.170
12/31/2014  12:06:00        1.330       22.737       48.643       20.610       36.095       24.139      424.768     1302.874      582.688        0.260        0.116       22.776       16.536        0.527      329.920       -3.037      868.143
12/31/2014  12:07:00       52.355       50.007       23.182       48.041       29.866       31.508     2307.954      891.999      992.743        0.499        0.210       72.400       24.144        0.111      329.645       -3.487      868.120
12/31/2014  12:08:00       25.621       55.616       23.151       33.933       41.689       47.610     1151.442     1737.989     2266.713        0.472        0.258       61.234       32.835        0.288      329.781       -3.266      868.095
12/31/2014  12:09:00       85.656       97.213       69.565       58.938       48.429       58.068     3473.718     2345.325     3371.908        1.541        0.460      129.566       42.384        0.107      329.418       -3.861      868.056
12/31/2014  12:10:00       59.259      -75.606       21.496       48.024       54.992       44.130     2306.304     3024.072     1947.480        0.848        0.364       96.062       41.258        0.184      329.363       -3.949      868.037
12/31/2014  12:11:00       69.640     -119.581      -10.361       39.243       50.440       24.805     1540.025     2544.223      615.291        1.198        0.235      138.381       14.816        0.011      329.506       -3.716      868.002
12/31/2014  12:12:00       76.639      -80.968       19.398       73.484       77.558       52.331     5399.856     6015.316     2738.540        1.348        0.708      111.487       43.083        0.149      329.789       -3.252      867.972
12/31/2014  12:13:00       74.812       68.489       70.395       59.549       61.784       56.869     3546.066     3817.282     3234.119        1.292        0.530      101.428       49.510        0.238      329.429       -3.841      867.958
12/31/2014  12:14:00      171.530      107.203       48.733       93.906       64.796       65.208     8818.422     4198.525     4252.023        3.028        0.863      202.275       47.857        0.056      329.257       -4.126      867.924
12/31/2014  12:15:00       72.885       -7.062       54.596       65.044      101.409       59.119     4230.701    10283.778     3495.016        1.317        0.900       73.226       67.097        0.840      329.708       -3.386      867.921
12/31/2014  12:16:00       15.494       -9.642       52.914       47.778       74.422       36.254     2282.747     5538.658     1314.364        0.613        0.457       18.249       25.987        2.028      329.947       -2.994      867.902
12/31/2014  12:17:00      160.066      101.104       63.675      103.185       62.088       67.543    10647.226     3854.863     4562.008        2.948        0.953      189.323       66.520        0.123      329.475       -3.769      867.872
12/31/2014  12:18:00      113.564       92.722      100.473       82.189       77.152       74.750     6754.968     5952.391     5587.547        2.494        0.915      146.609       58.168        0.157      329.501       -3.727      867.852
12/31/2014  12:19:00       79.397      158.815      144.976       88.265       78.699       59.771     7790.720     6193.580     3572.533        3.505        0.878      177.556       59.155        0.111      329.428       -3.847      867.826
12/31/2014  12:20:00       94.791      123.935       97.003      100.042       63.912       71.733    10008.333     4084.693     5145.685        2.649        0.962      156.030       71.025        0.207      329.284       -4.081      867.813
12/31/2014  12:21:00       86.959      112.054       84.032       73.939       49.654       52.368     5466.903     2465.496     2742.380        1.892        0.534      141.838       53.600        0.143      329.205       -4.207      867.810
12/31/2014  12:22:00       52.666       20.356       35.880       36.831       27.804       32.566     1356.524      773.078     1060.533        0.383        0.160       56.463       18.660        0.109      329.344       -3.981      867.794
12/31/2014  12:23:00       24.660       19.247       18.974       34.151       31.295       23.629     1166.290      979.378      558.312        0.202        0.135       31.282        8.046        0.066      329.736       -3.341      867.787
12/31/2014  12:24:00       27.964       44.745       56.903       34.588       32.547       26.486     1196.343     1059.337      701.501        0.449        0.148       52.765       24.726        0.220      329.486       -3.749      867.790
12/31/2014  12:25:00       88.045       74.215       28.448       45.174       32.203       36.609     2040.651     1037.049     1340.216        0.924        0.221      115.151       16.115        0.020      329.211       -4.198      867.781
12/31/2014  12:26:00        3.412       44.410      -14.980       29.723       35.972       24.151      883.476     1294.003      583.258        0.248        0.138       44.541       21.954        0.243      329.298       -4.054      867.746
12/31/2014  12:27:00       31.936     -103.157      -14.694       81.735       62.282       35.244     6680.622     3879.057     1242.172        1.184        0.590      107.988       33.639        0.097      329.336       -3.995      867.713
12/31/2014  12:28:00       -0.552        2.520       12.959       24.908       34.156       28.841      620.423     1166.659      831.800        0.140        0.131        2.579       26.130      102.619      329.703       -3.393      867.677
12/31/2014  12:29:00        4.148       33.138       17.629       18.880       36.531       18.058      356.444     1334.539      326.094        0.172        0.101       33.396       18.683        0.313      329.889       -3.088      867.638
12/31/2014  12:30:00       13.642        5.216       26.810       20.532       16.998       16.383      421.569      288.934      268.417        0.096        0.049       14.605        8.436        0.334      329.910       -3.053      867.587
12/31/2014  12:31:00      -14.055       -6.849       -6.931       21.001       36.694       11.696      441.055     1346.414      136.803        0.111        0.096       15.635        8.673        0.308      329.617       -3.533      867.561
12/31/2014  12:32:00      -88.965      -25.783       -4.825       19.972       19.863       17.365      398.889      394.524      301.538        0.485        0.055       92.626       10.373        0.013      329.428       -3.843      867.547
12/31/2014  12:33:00       -1.054       12.132       23.282       35.750       22.247       17.448     1278.054      494.918      304.424        0.138        0.104       12.178       14.899        1.497      330.085       -2.768      867.527
12/31/2014  12:34:00       73.829       50.455        2.425       42.794       25.069       33.774     1831.310      628.471     1140.670        0.580        0.180       89.423       18.594        0.043      329.721       -3.363      867.501
12/31/2014  12:35:00       54.964       53.696       14.595       37.665       38.829       29.404     1418.679     1507.704      864.571        0.495        0.190       76.840       19.919        0.067      329.610       -3.544      867.486
12/31/2014  12:36:00       50.848       -1.230       19.816       41.082       84.124       43.346     1687.722     7076.905     1878.840        0.681        0.532       50.863       18.189        0.128      329.969       -2.959      867.456
12/31/2014  12:37:00       70.157       60.781       85.670       86.640       88.233       53.114     7506.413     7785.082     2821.148        1.703        0.906       92.824       51.021        0.302      330.051       -2.824      867.429
12/31/2014  12:38:00       97.734      128.171      130.943       88.689       75.668       67.621     7865.704     5725.604     4572.550        3.064        0.908      161.182       55.055        0.117      329.579       -3.599      867.416
12/31/2014  12:39:00      151.423      151.857      127.559      109.558       83.859       76.860    12002.905     7032.406     5907.459        4.360        1.247      214.451       63.359        0.087      329.511       -3.709      867.398
12/31/2014  12:40:00       19.695       21.995       24.320       65.181       45.319       41.066     4248.593     2053.830     1686.430        0.472        0.399       29.524       26.052        0.779      329.985       -2.930      867.424
12/31/2014  12:41:00       76.545      101.061       69.005       64.825       56.536       43.974     4202.335     3196.365     1933.732        1.508        0.467      126.777       37.800        0.089      329.972       -2.953      867.409
12/31/2014  12:42:00       74.152       93.706       49.043       61.522       49.865       53.641     3784.954     2486.480     2877.328        1.291        0.457      119.496       36.125        0.091      329.870       -3.120      867.411
12/31/2014  12:43:00       90.605       67.276       -3.255       39.921       38.702       38.180     1593.708     1497.817     1457.727        0.865        0.227      112.851       22.049        0.038      329.590       -3.579      867.412
12/31/2014  12:44:00       15.524       49.981       63.950       49.092       61.360       37.227     2410.066     3765.083     1385.856        0.719        0.378       52.337       34.866        0.444      329.945       -2.997      867.416
12/31/2014  12:45:00      113.261       90.098       49.940      103.735       41.383       51.617    10760.904     1712.521     2664.358        1.929        0.757      144.727       65.198        0.203      329.641       -3.494      867.394
12/31/2014  12:46:00       63.329       47.745       24.231       55.913       42.882       31.151     3126.238     1838.824      970.393        0.641        0.297       79.310       18.079        0.052      329.700       -3.398      867.367
12/31/2014  12:47:00       86.446       62.153       22.958       30.948       35.023       28.440      957.773     1226.612      808.848        0.743        0.150      106.470       11.827        0.012      329.445       -3.815      867.330
12/31/2014  12:48:00      117.266       45.753       -5.616       52.296       36.445       30.160     2734.918     1328.242      909.625        1.042        0.249      125.875        9.310        0.005      329.506       -3.717      867.306
12/31/2014  12:49:00       25.011       80.122       -1.626       43.474       56.603       38.678     1889.959     3203.894     1496.006        0.682        0.329       83.935       33.582        0.160      329.630       -3.512      867.294
12/31/2014  12:50:00       25.576       68.009        5.408       43.791       49.454       36.945     1917.625     2445.740     1364.946        0.552        0.286       72.660       27.768        0.146      329.693       -3.409      867.282
12/31/2014  12:51:00       56.349       96.205       -5.145       64.642       53.306       35.804     4178.536     2841.542     1281.913        1.038        0.415      111.493       24.806        0.050      329.816       -3.208      867.267
12/31/2014  12:52:00       75.549      102.365       56.984       71.908       34.193       44.652     5170.706     1169.136     1993.776        1.388        0.417      127.225       44.367        0.122      329.867       -3.126      867.260
12/31/2014  12:53:00       96.699       98.832      101.736       88.131       74.868       54.918     7766.991     5605.292     3015.986        2.293        0.819      138.269       55.456        0.161      329.934       -3.016      867.237
12/31/2014  12:54:00      142.202       52.673       25.136       40.511       55.426       55.669     1641.119     3072.067     3099.018        1.572        0.391      151.644       41.279        0.074      329.405       -3.882      867.236
12/31/2014  12:55:00       53.842       41.397       40.214       45.896       51.950       45.925     2106.434     2698.837     2109.098        0.657        0.346       67.917       40.230        0.351      329.799       -3.236      867.217
12/31/2014  12:56:00       61.074       92.913      100.301       66.987       56.286       45.090     4487.228     3168.112     2033.088        1.605        0.484      111.189       44.586        0.161      329.753       -3.311      867.224
12/31/2014  12:57:00      112.492      103.412       79.764       60.994       51.432       51.789     3720.277     2645.222     2682.129        1.938        0.452      152.802       42.084        0.076      329.639       -3.499      867.244
12/31/2014  12:58:00       89.934       77.076       58.091       50.876       38.912       40.577     2588.381     1514.169     1646.525        1.158        0.287      118.444       24.310        0.042      329.659       -3.467      867.247
12/31/2014  12:59:00       29.751       76.939       96.367       75.364       68.987       50.267     5679.773     4759.262     2526.791        1.453        0.648       82.491       49.965        0.367      329.937       -3.010      867.233
12/31/2014  13:00:00       84.597       26.825       56.318       53.630       88.164       46.536     2876.188     7772.918     2165.620        1.193        0.641       88.748       50.836        0.328      329.672       -3.445      867.221
12/31/2014  13:01:00       75.461       72.198       51.041       81.221       45.071       59.398     6596.922     2031.415     3528.170        1.283        0.608      104.436       59.160        0.321      329.762       -3.296      867.215
12/31/2014  13:02:00      115.556       85.502       -8.585       54.873       38.378       28.011     3011.025     1472.871      784.590        1.300        0.263      143.749       15.354        0.011      329.763       -3.295      867.194
12/31/2014  13:03:00       56.334       88.462       71.342       49.874       54.728       62.597     2487.387     2995.165     3918.372        1.274        0.470      104.876       41.225        0.155      329.990       -2.924      867.187
12/31/2014  13:04:00       86.295       38.993       34.062       70.852       42.309       50.854     5020.016     1790.083     2586.084        0.976        0.470       94.696       29.914        0.100      329.911       -3.053      867.173
12/31/2014  13:05:00       41.601       80.164       67.136       53.421       48.641       71.341     2853.778     2365.968     5089.534        1.148        0.515       90.315       59.759        0.438      330.065       -2.800      867.148
12/31/2014  13:06:00      105.723       67.197       76.184       61.575       61.388       58.496     3791.459     3768.546     3421.752        1.624        0.549      125.271       56.938        0.207      329.782       -3.264      867.137
12/31/2014  13:07:00       64.285       94.279      108.584       65.197       62.787       48.799     4250.630     3942.214     2381.316        1.769        0.529      114.110       48.864        0.183      330.095       -2.752      867.133
12/31/2014  13:08:00       34.955      -72.098       13.853       41.660       83.642       48.462     1735.543     6996.040     2348.612        0.884        0.554       80.124       55.349        0.477      330.147       -2.667      867.107
12/31/2014  13:09:00       45.425       64.874       77.387       58.711       62.955       52.345     3446.935     3963.278     2739.997        1.120        0.508       79.197       52.740        0.443      330.206       -2.570      867.070
12/31/2014  13:10:00      142.714       69.813       27.156       65.212       62.576       56.658     4252.668     3915.711     3210.173        1.868        0.569      158.874       30.113        0.036      329.883       -3.100      867.058
12/31/2014  13:11:00      136.217      107.918       33.380       67.457       55.194       50.551     4550.484     3046.427     2555.432        2.073        0.508      173.785       18.292        0.011      329.866       -3.128      867.042
12/31/2014  13:12:00      141.727       96.057       33.562       57.824       45.715       44.769     3343.562     2089.823     2004.242        1.894        0.372      171.212       33.815        0.039      329.690       -3.414      867.035
12/31/2014  13:13:00      143.212       86.084       35.143       51.228       47.019       48.795     2624.290     2210.748     2380.944        1.818        0.361      167.093       32.129        0.037      329.683       -3.427      867.011
12/31/2014  13:14:00       -4.810       59.538       62.776       48.882       41.671       46.891     2389.420     1736.481     2198.738        0.692        0.316       59.732       28.279        0.224      329.998       -2.909      866.968
12/31/2014  13:15:00      136.700       76.019       29.334       67.591       52.944       49.897     4568.533     2803.041     2489.714        1.759        0.493      156.415       32.155        0.042      330.039       -2.844      866.939
12/31/2014  13:16:00      144.695       84.445       24.584       37.455       45.855       45.666     1402.851     2102.645     2085.429        1.713        0.280      167.534       16.061        0.009      329.828       -3.189      866.943
12/31/2014  13:17:00       57.452       -4.199        0.068       61.133       37.216       31.971     3737.269     1385.043     1022.174        0.473        0.307       57.605       22.370        0.151      329.787       -3.255      866.938
12/31/2014  13:18:00       38.845       23.753       13.768       24.729       28.063       27.521      611.524      787.537      757.423        0.221        0.108       45.532       19.942        0.192      329.836       -3.176      866.884
12/31/2014  13:19:00      -48.244       26.722       -4.983       36.580       35.830       35.590     1338.112     1283.789     1266.656        0.348        0.194       55.150       21.800        0.156      330.186       -2.601      866.860
12/31/2014  13:20:00       18.243       61.309       69.528       56.744       49.867       37.082     3219.933     2486.709     1375.039        0.800        0.354       63.966       35.575        0.309      330.336       -2.356      866.850
12/31/2014  13:21:00       42.027       73.637      101.142       89.340       73.588       66.208     7981.643     5415.203     4383.517        1.760        0.889       84.787       66.470        0.615      330.245       -2.507      866.822
12/31/2014  13:22:00       56.650       72.152      102.276       87.397       77.975       61.224     7638.223     6080.040     3748.356        1.817        0.873       91.734       63.363        0.477      330.038       -2.846      866.841
12/31/2014  13:23:00       -8.019      125.636      -18.820       41.647       73.147       49.728     1734.494     5350.468     2472.857        1.288        0.478      125.892       33.095        0.069      330.000       -2.908      866.856
12/31/2014  13:24:00       71.233       65.599       31.821       57.319       32.975       50.232     3285.412     1087.348     2523.276        0.864        0.345       96.836       27.814        0.083      329.925       -3.030      866.828
12/31/2014  13:25:00      124.254       73.242       66.006       77.852       76.577       53.968     6060.981     5864.007     2912.562        2.000        0.742      144.234       48.445        0.113      330.042       -2.841      866.821
12/31/2014  13:26:00       66.885       69.107       34.208       78.285       58.048       55.408     6128.550     3369.567     3070.051        1.149        0.628       96.174       46.725        0.236      330.170       -2.629      866.826
12/31/2014  13:27:00      215.610      147.033       32.664       63.115       51.054       50.953     3983.477     2606.467     2596.256        3.918        0.459      260.972       17.208        0.004      329.924       -3.036      866.801
12/31/2014  13:28:00      126.447       97.191       54.538       67.009       52.767       45.957     4490.170     2784.401     2112.019        1.890        0.469      159.483       23.986        0.023      330.009       -2.894      866.765
12/31/2014  13:29:00       76.180       27.195       27.796       87.820       52.233       40.613     7712.322     2728.294     1649.453        0.970        0.605       80.889       29.269        0.131      330.206       -2.569      866.736
12/31/2014  13:30:00       46.108       49.212       11.801       41.454       29.981       29.527     1718.394      898.854      871.825        0.409        0.174       67.438       17.002        0.064      330.095       -2.753      866.736
12/31/2014  13:31:00      159.451      115.282        8.582       83.352       65.137       56.091     6947.568     4242.792     3146.177        2.656        0.717      196.760       32.857        0.028      329.903       -3.069      866.705
12/31/2014  13:32:00      100.396       91.250       21.632       81.686       56.902       48.805     6672.593     3237.832     2381.920        1.558        0.615      135.669       29.287        0.047      329.964       -2.966      866.655
12/31/2014  13:33:00      105.037       91.328       12.155       72.126       49.631       37.422     5202.155     2463.228     1400.369        1.429        0.453      139.189       17.174        0.015      329.916       -3.046      866.635
12/31/2014  13:34:00       98.581      127.822       -3.507       81.241       70.130       41.727     6600.103     4918.167     1741.125        1.966        0.663      161.420       36.852        0.052      329.962       -2.972      866.627
12/31/2014  13:35:00      -11.756      127.099      -22.013       26.531       58.059       22.741      703.888     3370.859      517.135        1.068        0.230      127.641       25.733        0.041      329.830       -3.186      866.601
12/31/2014  13:36:00       21.050       12.970       22.213       34.056       22.659       17.897     1159.816      513.427      320.306        0.155        0.100       24.725       11.090        0.201      330.306       -2.405      866.557
12/31/2014  13:37:00       35.096       18.774       25.935       15.846       19.425       20.122      251.107      377.328      404.896        0.164        0.052       39.802       12.967        0.106      330.122       -2.708      866.551
12/31/2014  13:38:00       51.326        2.493       12.751       24.969       15.013       19.656      623.446      225.395      386.377        0.202        0.062       51.386       11.866        0.053      329.947       -2.994      866.549
12/31/2014  13:39:00       21.207        6.428        1.799       20.268       16.554       12.266      410.806      274.025      150.465        0.066        0.042       22.160       10.419        0.221      330.039       -2.844      866.537
12/31/2014  13:40:00       41.697       30.981       52.094       56.263       34.451       41.548     3165.480     1186.898     1726.254        0.574        0.304       51.946       20.391        0.154      330.422       -2.216      866.537
12/31/2014  13:41:00        2.710        2.345       52.794       35.089       64.031       47.551     1231.220     4099.963     2261.140        0.519        0.380        3.584       43.000      143.952      330.497       -2.093      866.550
12/31/2014  13:42:00      121.394       72.362       14.634       52.315       42.600       43.787     2736.838     1814.788     1917.268        1.333        0.323      141.325       30.241        0.046      330.171       -2.626      866.566
12/31/2014  13:43:00      100.134       70.091        5.872       48.121       45.833       40.509     2315.617     2100.683     1640.953        1.051        0.303      122.228       28.172        0.053      330.114       -2.720      866.558
12/31/2014  13:44:00       89.021       61.419       24.366       47.052       34.305       43.286     2213.906     1176.807     1873.675        0.878        0.263      108.153       19.841        0.034      329.953       -2.984      866.558
12/31/2014  13:45:00      137.639       72.914       19.721       59.944       38.291       40.820     3593.304     1466.172     1666.234        1.569        0.336      155.759       22.893        0.022      329.846       -3.160      866.574
12/31/2014  13:46:00      145.619       65.140       20.437       74.673       50.088       46.405     5576.115     2508.817     2153.444        1.805        0.512      159.525       19.957        0.016      330.004       -2.902      866.555
12/31/2014  13:47:00      205.146       99.718       32.586       86.506       52.050       52.598     7483.266     2709.190     2766.544        3.302        0.648      228.098       51.314        0.051      329.906       -3.065      866.508
12/31/2014  13:48:00      114.497      101.624       86.101       76.237       68.610       47.279     5812.024     4707.285     2235.333        2.180        0.638      153.091       45.226        0.087      329.949       -2.994      866.488
12/31/2014  13:49:00       28.462        2.756       29.533       30.439       56.924       46.616      926.532     3240.353     2173.061        0.401        0.317       28.595       45.780        2.563      329.899       -3.072      866.489
12/31/2014  13:50:00       51.723       21.841       54.181       63.658       82.914       41.001     4052.396     6874.790     1681.110        0.935        0.630       56.145       44.270        0.622      330.163       -2.640      866.446
12/31/2014  13:51:00       44.564       49.271       53.817       43.765       44.955       36.983     1915.361     2020.983     1367.750        0.631        0.265       66.435       23.828        0.129      330.197       -2.586      866.416
12/31/2014  13:52:00       44.973     -104.992        5.330       41.815       43.232       29.670     1748.535     1868.981      880.318        0.879        0.225      114.219       26.512        0.054      330.274       -2.457      866.397
12/31/2014  13:53:00       44.728       27.760       36.456       68.790       72.488       37.269     4732.039     5254.565     1388.988        0.774        0.569       52.642       26.423        0.252      330.357       -2.321      866.384
12/31/2014  13:54:00       68.582       52.521       43.574       46.790       33.950       24.119     2189.281     1152.584      581.715        0.664        0.196       86.382        9.020        0.011      329.978       -2.944      866.356
12/31/2014  13:55:00       94.822       80.744       76.616       55.099       55.306       51.189     3035.919     3058.805     2620.316        1.505        0.436      124.542       41.514        0.111      330.018       -2.879      866.350
12/31/2014  13:56:00       61.058       64.186       61.405       58.194       66.512       44.268     3386.519     4423.851     1959.645        1.069        0.489       88.588       45.917        0.269      330.106       -2.733      866.370
12/31/2014  13:57:00       60.344        8.767       29.310       49.206       45.797       35.621     2421.229     2097.336     1268.886        0.518        0.289       60.978       36.608        0.360      330.210       -2.562      866.355
12/31/2014  13:58:00       49.082       31.968       73.805       48.160       53.712       47.075     2319.401     2884.926     2216.032        0.815        0.371       58.574       32.221        0.303      330.436       -2.191      866.352
12/31/2014  13:59:00       26.044       40.311       74.110       56.494       57.776       48.399     3191.556     3338.092     2342.426        0.833        0.444       47.992       43.077        0.806      330.601       -1.922      866.348
12/31/2014  14:00:00      110.663       99.594       44.250       89.969       59.518       46.404     8094.446     3542.442     2153.342        1.895        0.690      148.880       45.441        0.093      330.154       -2.655      866.348
12/31/2014  14:01:00      121.536       88.684       26.858       92.998       51.224       50.148     8648.630     2623.851     2514.857        1.857        0.689      150.452       22.182        0.022      330.071       -2.793      866.335
12/31/2014  14:02:00       31.275       86.492        7.343       59.354       68.435       37.423     3522.903     4683.327     1400.509        0.906        0.480       91.973       27.077        0.087      330.201       -2.577      866.330
12/31/2014  14:03:00       91.138       77.681       14.411       82.949       68.771       45.168     6880.491     4729.500     2040.154        1.410        0.683      119.752       40.734        0.116      330.224       -2.540      866.321
12/31/2014  14:04:00       79.419       40.447       22.136       55.855       57.589       38.829     3119.736     3316.508     1507.668        0.819        0.397       89.125       21.535        0.058      330.192       -2.593      866.325
12/31/2014  14:05:00      104.984       62.272       30.586       46.767       34.548       37.289     2187.109     1193.558     1390.488        1.030        0.239      122.064       11.393        0.009      330.205       -2.572      866.303
12/31/2014  14:06:00       61.188       63.357        1.697       37.422       26.976       39.411     1400.381      727.698     1553.193        0.572        0.184       88.080       25.400        0.083      330.045       -2.833      866.268
12/31/2014  14:07:00      -12.326       14.051        0.379       15.010       23.705       26.629      225.296      561.918      709.082        0.092        0.075       18.691       21.254        1.293      330.455       -2.160      866.233
12/31/2014  14:08:00       16.272       -0.386        2.272       22.081       27.201       19.192      487.587      739.915      368.350        0.093        0.080       16.276       11.318        0.484      330.421       -2.217      866.226
12/31/2014  14:09:00       16.016      -12.826       10.738       34.734       39.325       26.636     1206.444     1546.482      709.473        0.200        0.173       20.519       25.766        1.577      330.457       -2.157      866.220
12/31/2014  14:10:00       20.721      -47.917        9.100       47.050       62.275       41.490     2213.690     3878.139     1721.410        0.531        0.391       52.205       31.182        0.357      330.589       -1.941      866.212
12/31/2014  14:11:00       21.543       21.762       18.644       32.636       49.526       50.761     1065.125     2452.817     2576.679        0.369        0.305       30.622       19.158        0.391      330.579       -1.958      866.228
12/31/2014  14:12:00      107.285       90.261       29.445       85.610       49.300       45.736     7329.121     2430.504     2091.801        1.619        0.593      140.204       26.403        0.035      330.238       -2.519      866.236
12/31/2014  14:13:00      161.756       66.235        6.508       62.251       44.981       47.002     3875.203     2023.330     2209.204        1.935        0.405      174.791       22.264        0.016      330.073       -2.789      866.226
12/31/2014  14:14:00      157.415      123.436        9.211       82.091       59.343       56.087     6738.867     3521.605     3145.722        2.675        0.670      200.040       29.990        0.022      330.124       -2.706      866.203
12/31/2014  14:15:00      177.186      147.995       -0.963       83.752       53.446       49.698     7014.418     2856.524     2469.897        3.282        0.617      230.862       34.792        0.023      330.032       -2.859      866.202
12/31/2014  14:16:00       38.567      169.861       -9.041       60.674       77.681       56.196     3681.292     6034.380     3157.998        2.165        0.644      174.184       54.594        0.098      330.120       -2.712      866.199
12/31/2014  14:17:00       76.782       87.530      -10.086       59.870       50.018       43.804     3584.435     2501.805     1918.830        1.083        0.400      116.434       34.995        0.090      330.063       -2.806      866.187
12/31/2014  14:18:00        4.885       24.851       10.128       14.627       22.929       20.395      213.948      525.734      415.972        0.095        0.058       25.326       13.045        0.265      330.306       -2.405      866.179
12/31/2014  14:19:00       14.874       26.712        3.910       27.628       14.950       16.166      763.284      223.515      261.334        0.110        0.062       30.574       14.192        0.215      330.235       -2.523      866.162
12/31/2014  14:20:00       20.995       95.697       -4.064       47.209       57.281       29.428     2228.713     3281.158      866.009        0.799        0.319       97.973       32.381        0.109      330.159       -2.646      866.154
12/31/2014  14:21:00       24.763      126.242      -23.895       29.507       46.088       26.508      870.691     2124.085      702.693        1.041        0.185      128.648       23.087        0.032      330.076       -2.782      866.130
12/31/2014  14:22:00        2.840      102.545      -17.175       23.947       54.917       23.561      573.462     3015.893      555.124        0.748        0.207      102.585       26.718        0.068      330.178       -2.616      866.106
12/31/2014  14:23:00       -5.709      123.382      -11.536       21.814       55.752       24.676      475.855     3108.251      608.928        0.979        0.210      123.514       27.402        0.049      330.149       -2.663      866.102
12/31/2014  14:24:00      -12.091       80.526       -7.573       27.748       30.725       24.035      769.965      944.043      577.694        0.449        0.115       81.428       16.667        0.042      330.319       -2.385      866.094
12/31/2014  14:25:00       -5.253      106.731      -16.362       23.696       30.662       19.042      561.488      940.178      362.589        0.678        0.093      106.860       16.278        0.023      330.158       -2.647      866.080
12/31/2014  14:26:00      -60.638       58.554      -19.879       59.104       44.961       33.287     3493.229     2021.496     1108.050        0.706        0.331       84.295       31.126        0.136      330.325       -2.375      866.058
12/31/2014  14:27:00      -62.580      150.525      -18.764       45.446       84.200       21.451     2065.334     7089.707      460.143        1.827        0.481      163.015       20.043        0.015      330.364       -2.311      866.042
12/31/2014  14:28:00      -48.801      168.656      -20.485       38.015       60.893       28.692     1445.175     3707.923      823.212        1.861        0.299      175.574       28.089        0.026      330.271       -2.465      866.041
12/31/2014  14:29:00      -55.443      120.729       -3.867       48.488       61.237       40.550     2351.118     3749.957     1644.271        1.270        0.387      132.851       31.053        0.055      330.461       -2.153      866.045
12/31/2014  14:30:00       33.442       53.436       12.169       63.176       46.651       35.286     3991.245     2176.358     1245.096        0.577        0.371       63.038       29.594        0.220      330.573       -1.968      866.044
12/31/2014  14:31:00       26.032       43.161       -7.667       44.141       37.189       21.740     1948.462     1383.048      472.632        0.320        0.190       50.404       19.126        0.144      330.548       -2.008      866.034
12/31/2014  14:32:00      123.478       87.003       -1.432       70.994       68.932       54.191     5040.148     4751.626     2936.624        1.777        0.636      151.051       37.528        0.062      330.457       -2.160      866.051
12/31/2014  14:33:00       58.443       90.090        7.029       66.185       57.101       43.932     4380.447     3260.568     1930.023        1.057        0.479      107.386       35.951        0.112      330.297       -2.421      866.075
12/31/2014  14:34:00       61.697       83.903        1.153       57.678       60.421       43.294     3326.784     3650.672     1874.346        0.985        0.443      104.145       34.453        0.109      330.312       -2.397      866.075
12/31/2014  14:35:00       79.239       59.201       -0.215       54.773       42.015       34.508     3000.083     1765.229     1190.778        0.787        0.298       98.912       26.699        0.073      330.356       -2.324      866.071
12/31/2014  14:36:00       23.217       90.265        5.648       32.467       64.204       38.527     1054.082     4122.191     1484.318        0.769        0.333       93.203       38.665        0.172      330.357       -2.322      866.068
12/31/2014  14:37:00        1.499       57.516       -6.765       32.956       44.091       22.718     1086.120     1943.976      516.096        0.345        0.177       57.536        6.374        0.012      330.257       -2.486      866.068
12/31/2014  14:38:00      -37.586       55.377      -23.972       14.434       27.898       11.754      208.327      778.303      138.146        0.309        0.056       66.928        9.147        0.019      330.197       -2.585      866.066
12/31/2014  14:39:00      -59.704       88.007       -8.140       44.314       53.440       33.856     1963.761     2855.813     1146.233        0.867        0.298      106.348       35.181        0.109      330.578       -1.961      866.062
12/31/2014  14:40:00       13.206      147.100      -28.279       26.102       39.476       21.755      681.339     1558.370      473.289        1.266        0.136      147.691       20.737        0.020      330.301       -2.414      866.081
12/31/2014  14:41:00       26.177      104.107      -11.353       30.839       38.463       30.743      951.043     1479.380      945.132        0.751        0.169      107.348       27.838        0.067      330.401       -2.249      866.103
12/31/2014  14:42:00       59.449      107.017      -12.935       55.632       74.545       39.795     3094.923     5556.893     1583.640        1.269        0.512      122.420       42.268        0.119      330.413       -2.232      866.109
12/31/2014  14:43:00       42.723       70.022       -0.215       56.852       70.241       40.919     3232.150     4933.821     1674.401        0.828        0.492       82.026       39.044        0.227      330.504       -2.082      866.104
12/31/2014  14:44:00       38.252      107.977       -5.688       39.967       64.998       43.775     1597.330     4224.794     1916.254        1.044        0.387      114.553       46.734        0.166      330.487       -2.110      866.104
12/31/2014  14:45:00       12.223      134.449      -11.379       53.109       61.917       32.458     2820.540     3833.724     1053.490        1.303        0.385      135.004       34.345        0.065      330.453       -2.166      866.104
12/31/2014  14:46:00       32.501      101.098        9.384       57.957       47.608       37.888     3359.008     2266.509     1435.474        0.921        0.353      106.194       41.734        0.154      330.515       -2.063      866.112
12/31/2014  14:47:00       -4.992       51.119       -9.886       24.926       41.055       19.862      621.301     1685.487      394.495        0.272        0.135       51.362       11.968        0.054      330.726       -1.716      866.108
12/31/2014  14:48:00        9.768       70.903        5.527       26.039       45.375       31.075      678.017     2058.879      965.644        0.443        0.185       71.572       24.559        0.118      330.647       -1.847      866.108
12/31/2014  14:49:00       45.440       69.437       59.318       52.030       49.770       50.820     2707.127     2477.006     2582.696        0.908        0.388       82.984       42.742        0.265      330.655       -1.833      866.113
12/31/2014  14:50:00       58.549       72.591       42.644       61.477       44.400       54.762     3779.417     1971.374     2998.837        0.963        0.437       93.260       37.675        0.163      330.627       -1.879      866.108
12/31/2014  14:51:00       54.618       90.951       82.691       74.738       65.275       49.706     5585.785     4260.785     2470.707        1.520        0.616      106.091       46.514        0.192      330.628       -1.878      866.110
12/31/2014  14:52:00      174.069      128.138       29.900       97.329       55.618       56.260     9472.986     3093.381     3165.157        3.167        0.787      216.146       46.064        0.045      330.437       -2.194      866.099
12/31/2014  14:53:00      116.896       47.030       17.036       63.889       60.941       39.413     4081.853     3713.790     1553.374        1.276        0.467      126.002       29.921        0.056      330.621       -1.888      866.112
12/31/2014  14:54:00       94.891       65.250        3.951       62.307       48.446       34.739     3882.122     2347.003     1206.779        1.036        0.372      115.160       23.309        0.041      330.385       -2.275      866.113
12/31/2014  14:55:00      114.043       79.799       21.901       53.680       55.387       33.508     2881.585     3067.738     1122.808        1.346        0.354      139.190       16.537        0.014      330.385       -2.277      866.122
12/31/2014  14:56:00       51.876       42.493        2.611       61.048       40.252       26.655     3726.803     1620.239      710.500        0.528        0.303       67.058       17.283        0.066      330.511       -2.069      866.122
12/31/2014  14:57:00      186.832      119.408       22.472       63.377       49.221       34.227     4016.657     2422.730     1171.455        2.864        0.381      221.731       15.523        0.005      330.411       -2.237      866.125
12/31/2014  14:58:00      141.740       97.229        6.265       77.454       51.362       42.206     5999.120     2638.074     1781.376        2.000        0.521      171.883       31.119        0.033      330.409       -2.238      866.129
12/31/2014  14:59:00      104.683       51.081       11.117       81.583       37.120       27.276     6655.787     1377.908      743.994        1.123        0.439      116.481        6.852        0.003      330.422       -2.215      866.138
12/31/2014  15:00:00       41.719       46.647        2.218       57.131       51.853       34.512     3263.980     2688.785     1191.048        0.553        0.357       62.581       17.958        0.082      330.489       -2.105      866.143
12/31/2014  15:01:00       63.363       53.757       23.971       56.215       40.133       37.255     3160.077     1610.651     1387.965        0.682        0.308       83.094       36.915        0.197      330.556       -1.994      866.152
12/31/2014  15:02:00       53.196       61.365       -1.365       56.272       41.426       34.047     3166.557     1716.152     1159.181        0.632        0.302       81.212       26.102        0.103      330.621       -1.889      866.183
12/31/2014  15:03:00        6.864      131.485      -16.498       41.217       54.305       27.312     1698.820     2949.032      745.969        1.150        0.270      131.664       20.630        0.025      330.686       -1.783      866.210
12/31/2014  15:04:00       43.568      103.143        0.704       47.902       72.086       40.869     2294.589     5196.325     1670.299        1.085        0.458      111.967       40.924        0.134      330.706       -1.749      866.232
12/31/2014  15:05:00      140.595       86.850       11.054       94.944       69.540       55.784     9014.302     4835.762     3111.853        2.219        0.848      165.257       33.483        0.041      330.586       -1.949      866.236
12/31/2014  15:06:00       66.986       67.970       -1.256       52.003       37.411       30.313     2704.278     1399.546      918.875        0.706        0.251       95.431       16.862        0.031      330.504       -2.081      866.235
12/31/2014  15:07:00      114.738      105.849       -8.325       74.044       43.003       38.471     5482.579     1849.253     1480.005        1.662        0.441      156.106       26.557        0.029      330.311       -2.398      866.228
12/31/2014  15:08:00       77.446       68.794        0.048       46.764       34.723       31.950     2186.872     1205.700     1020.784        0.757        0.221      103.588       18.411        0.032      330.332       -2.363      866.227
12/31/2014  15:09:00       86.250       80.376        2.193       41.618       40.646       41.567     1732.068     1652.126     1727.812        0.951        0.256      117.896       26.047        0.049      330.469       -2.139      866.222
12/31/2014  15:10:00      165.835       96.606       23.485       72.002       52.232       52.707     5184.359     2728.197     2778.041        2.404        0.535      191.922       28.839        0.023      330.505       -2.080      866.216
12/31/2014  15:11:00      118.575      105.334       -9.319       68.174       58.514       41.405     4647.751     3423.900     1714.353        1.751        0.489      158.604       33.622        0.045      330.536       -2.030      866.204
12/31/2014  15:12:00       62.860       46.623        1.680       42.519       28.749       25.545     1807.872      826.505      652.563        0.471        0.164       78.263       17.264        0.049      330.442       -2.183      866.194
12/31/2014  15:13:00        1.807       73.481       -1.290       40.554       60.447       31.846     1644.661     3653.860     1014.140        0.586        0.316       73.504       30.119        0.168      330.645       -1.849      866.170
12/31/2014  15:14:00       37.421       64.848        4.007       49.252       44.652       34.730     2425.749     1993.788     1206.150        0.562        0.281       74.871       28.504        0.145      330.452       -2.165      866.158
12/31/2014  15:15:00       40.617       44.445      -14.972       15.855       28.183       18.273      251.390      794.258      333.903        0.261        0.069       60.208       14.989        0.062      330.363       -2.312      866.150
12/31/2014  15:16:00       22.145       31.264        6.368       15.489       20.704       12.893      239.917      428.673      166.234        0.117        0.042       38.313       12.209        0.102      330.531       -2.036      866.138
12/31/2014  15:17:00       66.770       72.825        4.966       58.789       41.691       31.580     3456.171     1738.156      997.298        0.799        0.310       98.802       32.472        0.108      330.451       -2.168      866.131
12/31/2014  15:18:00       70.906       69.119       10.983       70.374       41.740       39.409     4952.496     1742.187     1553.090        0.909        0.412       99.021       16.234        0.027      330.458       -2.157      866.113
12/31/2014  15:19:00      -15.161       98.567       -3.556       35.713       74.428       33.687     1275.447     5539.488     1134.824        0.895        0.397       99.726       44.227        0.197      330.506       -2.078      866.109
12/31/2014  15:20:00      -48.273       51.585      -31.981       36.873       43.583       18.589     1359.599     1899.446      345.558        0.481        0.180       70.650       17.332        0.060      330.411       -2.234      866.131
12/31/2014  15:21:00      -26.810       30.172      -17.633       27.785       23.271       17.719      771.987      541.525      313.960        0.178        0.081       40.363       14.580        0.130      330.503       -2.082      866.146
12/31/2014  15:22:00        0.586       -5.205       -7.085       21.162       34.675       17.794      447.833     1202.340      316.615        0.102        0.098        5.238       13.573        6.714      330.611       -1.905      866.131
12/31/2014  15:23:00      -53.134       60.541      -11.596       50.909       62.726       25.652     2591.695     3934.513      658.018        0.690        0.359       80.551       36.653        0.207      330.713       -1.739      866.133
12/31/2014  15:24:00       -7.930       98.725       -2.596       61.846       30.519       30.743     3824.942      931.409      945.110        0.776        0.285       99.043       30.271        0.093      330.660       -1.826      866.141
12/31/2014  15:25:00       63.976       57.605       33.489       46.793       33.054       32.270     2189.575     1092.537     1041.333        0.643        0.216       86.089       25.599        0.088      330.640       -1.857      866.151
12/31/2014  15:26:00       76.925       86.295       66.474       67.809       48.995       57.677     4598.068     2400.517     3326.593        1.405        0.516      115.605       50.643        0.192      330.596       -1.930      866.165
12/31/2014  15:27:00       67.712       41.678       57.290       60.706       37.445       37.007     3685.259     1402.152     1369.515        0.803        0.323       79.510       29.895        0.141      330.532       -2.036      866.175
12/31/2014  15:28:00       80.059       55.033       33.543       34.727       28.840       37.098     1205.949      831.730     1376.225        0.699        0.171       97.150       15.685        0.026      330.476       -2.126      866.178
12/31/2014  15:29:00      -11.538       71.305        6.412       20.703       75.084       32.369      428.627     5637.645     1047.724        0.618        0.356       72.233       44.700        0.383      330.615       -1.898      866.170
12/31/2014  15:30:00       33.177      163.122      -17.375       53.834       72.449       33.253     2898.108     5248.808     1105.747        1.863        0.463      166.462       36.116        0.047      330.467       -2.142      866.164
12/31/2014  15:31:00       48.868       96.793       -7.077       58.802       40.500       28.867     3457.630     1640.224      833.323        0.887        0.297      108.429       21.794        0.040      330.450       -2.170      866.159
12/31/2014  15:32:00       50.919       83.362        4.111       57.926       59.212       39.153     3355.390     3506.042     1532.951        0.897        0.420       97.683       29.127        0.089      330.461       -2.151      866.144
12/31/2014  15:33:00       33.342      102.721      -16.698       59.586       54.480       30.870     3550.479     2968.120      952.943        0.971        0.374      107.997       37.996        0.124      330.475       -2.129      866.128
12/31/2014  15:34:00       -8.676       92.896      -11.485       23.424       29.142       28.442      548.701      849.278      808.931        0.552        0.110       93.300       13.034        0.020      330.552       -2.001      866.109
12/31/2014  15:35:00       15.684       44.549      -12.906       25.679       37.705       16.119      659.412     1421.630      259.826        0.237        0.117       47.229       20.505        0.188      330.434       -2.197      866.084
12/31/2014  15:36:00       64.857       57.542        3.373       45.308       40.711       26.753     2052.824     1657.417      715.699        0.598        0.221       86.704       19.746        0.052      330.427       -2.206      866.061
12/31/2014  15:37:00       43.051       69.331       -2.285       37.573       38.037       23.975     1411.766     1446.792      574.782        0.505        0.172       81.610       21.969        0.072      330.478       -2.124      866.042
12/31/2014  15:38:00       62.267       81.793       -0.959       32.506       40.822       21.605     1056.646     1666.437      466.786        0.688        0.159      102.797       14.386        0.020      330.442       -2.184      866.034
12/31/2014  15:39:00       55.213       59.917       -3.507       47.424       58.786       40.675     2249.002     3455.788     1654.463        0.700        0.368       81.477       35.498        0.190      330.435       -2.193      866.027
12/31/2014  15:40:00       58.955       61.294        8.274       51.556       41.945       36.021     2657.978     1759.346     1297.484        0.651        0.286       85.045       29.912        0.124      330.375       -2.291      866.011
12/31/2014  15:41:00       47.876       92.415      -10.015       41.847       62.539       30.487     1751.208     3911.089      929.466        0.876        0.330      104.080       30.863        0.088      330.393       -2.263      865.984
12/31/2014  15:42:00       67.905       95.722        0.821       58.207       51.118       35.549     3388.025     2613.067     1263.706        1.052        0.363      117.362       32.614        0.077      330.436       -2.191      865.982
12/31/2014  15:43:00       38.616      103.552      -11.437       34.437       46.908       32.295     1185.901     2200.374     1042.963        0.839        0.221      110.518       28.953        0.069      330.357       -2.320      865.989
12/31/2014  15:44:00       24.743      146.694      -16.625       38.169       53.167       30.633     1456.859     2826.771      938.370        1.381        0.261      148.766       28.924        0.038      330.340       -2.352      865.996
12/31/2014  15:45:00       39.825      120.598      -16.369       26.267       30.997       24.110      689.953      960.792      581.310        0.931        0.112      127.004       21.915        0.030      330.406       -2.242      865.996
12/31/2014  15:46:00       53.067       83.865      -15.125       20.945       28.382       15.789      438.687      805.530      249.291        0.579        0.075       99.244       14.429        0.021      330.340       -2.348      865.995
12/31/2014  15:47:00       49.750       61.138       -1.921       43.649       27.851       19.563     1905.205      775.692      382.712        0.464        0.153       78.822       18.350        0.054      330.337       -2.354      865.988
12/31/2014  15:48:00       65.996       54.058        3.272       46.097       35.665       29.746     2124.900     1272.024      884.833        0.578        0.214       85.310       22.203        0.068      330.379       -2.287      865.963
12/31/2014  15:49:00       63.486       45.914       13.818       54.381       30.261       21.933     2957.302      915.717      481.043        0.534        0.218       78.349       19.544        0.062      330.355       -2.325      865.941
12/31/2014  15:50:00       58.958       54.314        1.156       28.770       27.618       22.545      827.691      762.753      508.289        0.426        0.105       80.162       18.301        0.052      330.357       -2.323      865.915
12/31/2014  15:51:00       18.990       40.611        3.494       29.804       32.441       21.412      888.260     1052.400      458.463        0.221        0.120       44.832       19.045        0.180      330.415       -2.227      865.891
12/31/2014  15:52:00       54.307       48.725        0.645       39.318       29.466       21.171     1545.907      868.241      448.231        0.409        0.143       72.962       18.597        0.065      330.412       -2.232      865.878
12/31/2014  15:53:00       68.087       44.493       11.649       55.554       39.267       27.462     3086.206     1541.904      754.156        0.607        0.269       81.335       20.434        0.063      330.441       -2.185      865.868
12/31/2014  15:54:00       56.963       63.689        8.922       38.917       39.968       35.459     1514.534     1597.425     1257.320        0.587        0.218       85.447       27.162        0.101      330.376       -2.291      865.864
12/31/2014  15:55:00       53.011       95.870       -4.688       38.193       64.238       43.824     1458.677     4126.467     1920.552        0.976        0.375      109.550       42.067        0.147      330.355       -2.324      865.860
12/31/2014  15:56:00       34.072      103.507      -15.727       41.147       51.823       29.112     1693.056     2685.671      847.481        0.867        0.261      108.970       27.164        0.062      330.391       -2.267      865.835
12/31/2014  15:57:00       25.157       61.408        1.307       39.752       45.068       31.035     1580.221     2031.119      963.172        0.449        0.229       66.361       29.938        0.204      330.444       -2.181      865.819
12/31/2014  15:58:00       15.491       81.969        4.553       32.011       38.323       27.096     1024.674     1468.630      734.187        0.510        0.161       83.420       24.447        0.086      330.393       -2.262      865.807
12/31/2014  15:59:00       49.274       49.836        4.361       45.662       22.507       24.804     2085.034      506.585      615.224        0.407        0.160       70.083       17.513        0.062      330.427       -2.208      865.799
12/31/2014  16:00:00      128.228       56.920       13.436       48.006       35.784       33.658     2304.555     1280.488     1132.830        1.229        0.236      140.294       21.203        0.023      330.441       -2.183      865.785
12/31/2014  16:01:00       94.710       60.942       18.547       53.581       32.746       25.329     2870.960     1072.311      641.538        0.881        0.229      112.623       17.180        0.023      330.349       -2.336      865.784
12/31/2014  16:02:00       54.429       23.680       15.240       43.708       32.819       22.452     1910.369     1077.106      504.097        0.362        0.175       59.357       14.371        0.059      330.411       -2.233      865.772
12/31/2014  16:03:00       48.483       49.390        1.545       33.182       17.510       19.200     1101.061      306.615      368.654        0.328        0.089       69.210       14.798        0.046      330.349       -2.335      865.748
12/31/2014  16:04:00        3.971       25.255        5.426       24.952       34.133       25.941      622.626     1165.066      672.955        0.157        0.123       25.565       15.362        0.361      330.461       -2.151      865.715
12/31/2014  16:05:00       83.570       59.210        3.473       34.328       26.232       19.744     1178.400      688.130      389.826        0.638        0.113      102.419       15.757        0.024      330.383       -2.280      865.691
12/31/2014  16:06:00       46.398       22.307       -0.903       33.127       24.446       20.765     1097.428      597.597      431.194        0.239        0.106       51.481       16.933        0.108      330.364       -2.310      865.683
12/31/2014  16:07:00       75.438       53.514        4.545       26.596       20.240       22.299      707.338      409.657      497.257        0.509        0.081       92.491       12.667        0.019      330.328       -2.371      865.670
12/31/2014  16:08:00       42.117       45.966        2.740       36.037       32.694       21.565     1298.697     1068.887      465.031        0.336        0.142       62.344       21.373        0.118      330.359       -2.319      865.642
12/31/2014  16:09:00       15.478       75.216      -10.097       15.628       15.585       14.963      244.220      242.885      223.888        0.335        0.036       76.792       11.080        0.021      330.347       -2.339      865.628
12/31/2014  16:10:00       28.700       47.624        0.813       28.851       36.564       26.642      832.374     1336.955      709.788        0.299        0.144       55.604       24.000        0.186      330.411       -2.233      865.626
12/31/2014  16:11:00       26.891       26.377       -3.092       22.449       19.070       16.914      503.958      363.660      286.097        0.129        0.058       37.668       14.123        0.141      330.410       -2.234      865.614
12/31/2014  16:12:00       20.160       63.672      -10.278       22.997       17.033       15.380      528.885      290.134      236.531        0.281        0.053       66.787       13.354        0.040      330.342       -2.346      865.607
12/31/2014  16:13:00       50.077       51.018       -2.620       38.403       20.486       19.890     1474.773      419.693      395.597        0.370        0.115       71.489       14.439        0.041      330.374       -2.296      865.613
12/31/2014  16:14:00      101.025       83.765        2.218       37.245       24.813       24.560     1387.199      615.690      603.174        0.992        0.130      131.235       17.246        0.017      330.335       -2.357      865.637
12/31/2014  16:15:00       90.316       78.798       10.448       38.414       33.148       31.664     1475.646     1098.813     1002.609        0.903        0.179      119.859       19.218        0.026      330.334       -2.360      865.643
12/31/2014  16:16:00       48.931       49.349       43.904       39.527       31.838       34.933     1562.396     1013.649     1220.324        0.528        0.190       69.496       22.454        0.104      330.401       -2.250      865.639
12/31/2014  16:17:00       58.289       69.278       55.095       56.400       34.984       30.986     3180.996     1223.853      960.155        0.830        0.268       90.538       23.097        0.065      330.516       -2.062      865.645
12/31/2014  16:18:00      105.556       65.195       22.614       43.297       34.729       36.750     1874.644     1206.131     1350.580        1.017        0.222      124.066       21.834        0.031      330.360       -2.318      865.643
12/31/2014  16:19:00      107.880       63.453        5.588       40.584       34.734       29.014     1647.030     1206.483      841.806        0.969        0.185      125.157       16.474        0.017      330.308       -2.402      865.633
12/31/2014  16:20:00       79.200       52.277        3.240       30.093       32.385       26.497      905.595     1048.776      702.082        0.584        0.133       94.898       15.960        0.028      330.277       -2.453      865.627
12/31/2014  16:21:00       60.937       28.582        9.501       27.781       27.576       17.439      771.794      760.421      304.130        0.323        0.092       67.308       11.030        0.027      330.249       -2.499      865.635
12/31/2014  16:22:00      106.786       68.302       16.522       32.841       30.495       24.313     1078.540      929.935      591.115        0.947        0.130      126.761       16.653        0.017      330.243       -2.509      865.629
12/31/2014  16:23:00      120.685       65.891       37.923       42.891       40.006       24.679     1839.649     1600.515      609.067        1.220        0.202      137.501       15.238        0.012      330.238       -2.518      865.626
12/31/2014  16:24:00      141.961       67.941       15.318       55.107       42.669       36.523     3036.785     1820.620     1333.961        1.560        0.310      157.382       25.035        0.025      330.226       -2.538      865.629
12/31/2014  16:25:00      142.390       93.152       10.225       42.077       33.780       40.901     1770.508     1141.099     1672.895        1.682        0.229      170.154       16.628        0.010      330.196       -2.586      865.628
12/31/2014  16:26:00      150.958      101.453       17.478       46.393       40.099       34.345     2152.265     1607.921     1179.591        1.916        0.247      181.882       33.293        0.034      330.199       -2.583      865.617
12/31/2014  16:27:00       91.374       49.804       36.754       48.999       31.239       27.198     2400.907      975.905      739.717        0.815        0.206      104.066       19.724        0.036      330.199       -2.581      865.609
12/31/2014  16:28:00      109.284       70.788       12.717       47.289       26.397       25.246     2236.286      696.827      637.359        1.034        0.179      130.207       16.048        0.015      330.203       -2.575      865.595
12/31/2014  16:29:00       76.002       46.124       36.206       46.518       32.897       29.556     2163.929     1082.221      873.561        0.667        0.206       88.903       26.652        0.090      330.209       -2.564      865.595
12/31/2014  16:30:00       68.640       56.380       30.353       32.375       21.312       26.107     1048.172      454.203      681.596        0.550        0.109       88.827       21.664        0.059      330.220       -2.547      865.604
12/31/2014  16:31:00       93.232       52.332       15.605       15.563       18.910       16.123      242.207      357.577      259.965        0.627        0.043      106.915       12.018        0.013      330.255       -2.490      865.611
12/31/2014  16:32:00       60.246       36.104       29.454       28.494       24.075       29.329      811.933      579.627      860.214        0.403        0.113       70.236        9.337        0.018      330.220       -2.546      865.620
12/31/2014  16:33:00      101.527       55.352       29.470       43.764       28.691       31.341     1915.328      823.193      982.276        0.898        0.186      115.636       14.867        0.017      330.235       -2.522      865.618
12/31/2014  16:34:00       94.575       57.614        7.801       28.518       23.649       23.257      813.252      559.281      540.868        0.712        0.096      110.742       17.208        0.024      330.211       -2.562      865.615
12/31/2014  16:35:00       90.683       67.178       10.142       27.990       27.873       23.546      783.421      776.924      554.401        0.748        0.106      112.855       13.079        0.013      330.191       -2.594      865.603
12/31/2014  16:36:00       72.395       44.234       12.985       25.243       22.440       18.913      637.196      503.536      357.708        0.443        0.075       84.839       10.351        0.015      330.208       -2.567      865.586
12/31/2014  16:37:00       73.250       55.729        9.725       34.514       29.021       18.938     1191.250      842.219      358.653        0.548        0.120       92.040       11.992        0.017      330.167       -2.635      865.573
12/31/2014  16:38:00       97.475       56.416        6.623       31.527       22.597       18.923      993.933      510.629      358.094        0.730        0.093      112.625       11.787        0.011      330.194       -2.589      865.568
12/31/2014  16:39:00       57.353       34.314       -1.074       33.384       18.569       17.031     1114.521      344.818      290.071        0.311        0.087       66.835        8.312        0.015      330.172       -2.626      865.552
12/31/2014  16:40:00       44.535       60.189       -3.696       26.372       16.042       11.341      695.497      257.355      128.614        0.335        0.054       74.874        8.255        0.012      330.192       -2.595      865.549
12/31/2014  16:41:00       26.156       26.844       -1.603       12.187       17.118       11.559      148.532      293.022      133.612        0.099        0.029       37.480        8.774        0.055      330.175       -2.621      865.557
12/31/2014  16:42:00       21.595       43.215       -7.696       18.290       16.959       10.926      334.508      287.595      119.381        0.157        0.037       48.310       11.263        0.054      330.208       -2.567      865.562
12/31/2014  16:43:00        8.709       23.669        0.282       17.976       17.456        8.987      323.141      304.726       80.765        0.067        0.035       25.220        8.923        0.125      330.200       -2.580      865.559
12/31/2014  16:44:00      -27.724       51.849       -0.629       21.506       20.367       13.717      462.529      414.822      188.145        0.226        0.053       58.795       10.173        0.030      330.211       -2.561      865.546
12/31/2014  16:45:00      -33.515       47.152       -7.052       25.958       30.789       19.113      673.837      947.949      365.321        0.269        0.099       57.850       14.778        0.065      330.160       -2.645      865.523
12/31/2014  16:46:00      -17.091       64.501       -3.807       23.662       36.708       17.804      559.894     1347.479      316.984        0.335        0.111       66.727       21.280        0.102      330.181       -2.613      865.511
12/31/2014  16:47:00      -61.211       70.336      -14.325       33.135       28.324       14.023     1097.932      802.234      196.644        0.550        0.105       93.241        8.295        0.008      330.233       -2.526      865.502
12/31/2014  16:48:00      -67.916       87.159      -20.585       34.709       36.274       19.578     1204.698     1315.818      383.309        0.777        0.145      110.495       13.665        0.015      330.323       -2.379      865.495
12/31/2014  16:49:00      -75.265      110.911      -27.598       30.627       30.178       20.740      938.004      910.692      430.135        1.050        0.114      134.037       11.906        0.008      330.237       -2.518      865.486
12/31/2014  16:50:00       -5.481      135.494      -19.253       32.441       35.727       22.597     1052.404     1276.441      510.629        1.080        0.142      135.605       19.325        0.020      330.213       -2.558      865.478
12/31/2014  16:51:00      -11.347      171.386      -30.756       27.598       42.569       16.341      761.648     1812.095      267.042        1.664        0.142      171.761       17.062        0.010      330.169       -2.632      865.450
12/31/2014  16:52:00      -26.474      148.370      -23.071       32.846       44.406       13.478     1078.890     1971.910      181.665        1.324        0.162      150.713       12.269        0.007      330.197       -2.585      865.431
12/31/2014  16:53:00      -36.761      109.612      -16.527       51.041       38.055       19.236     2605.171     1448.175      370.010        0.903        0.221      115.612       16.399        0.020      330.161       -2.645      865.425
12/31/2014  16:54:00      -23.394      109.791      -13.966       26.128       60.758       21.092      682.680     3691.586      444.873        0.881        0.241      112.256       25.701        0.052      330.124       -2.705      865.428
12/31/2014  16:55:00       -1.060      141.812      -17.533       27.188       36.906       22.402      739.170     1362.074      501.859        1.151        0.130      141.816       18.093        0.016      330.070       -2.794      865.429
12/31/2014  16:56:00       -6.357      173.007      -23.661       21.278       44.324       14.430      452.734     1964.637      208.223        1.658        0.131      173.124       14.329        0.007      330.059       -2.810      865.417
12/31/2014  16:57:00      -21.485      189.164      -25.098       21.287       36.378       14.569      453.136     1323.382      212.248        1.943        0.099      190.380        7.678        0.002      330.080       -2.778      865.415
12/31/2014  16:58:00      -41.486      124.976      -17.358       25.664       25.328       15.164      658.616      641.498      229.948        0.959        0.077      131.681       13.055        0.010      330.149       -2.663      865.414
12/31/2014  16:59:00       20.600       72.858      -10.988       21.207       20.924       14.132      449.752      437.815      199.715        0.347        0.054       75.714        3.274        0.002      330.012       -2.889      865.406
12/31/2014  17:00:00       36.909       28.155        3.290       18.507       18.745       13.661      342.512      351.393      186.636        0.152        0.044       46.421        7.342        0.025      329.976       -2.947      865.392
12/31/2014  17:01:00       39.425       61.629      -11.059       26.547       24.622       17.988      704.737      606.239      323.576        0.355        0.082       73.161       14.547        0.040      329.990       -2.923      865.384
12/31/2014  17:02:00       22.886       84.241      -10.196       21.713       23.717       15.255      471.434      562.495      232.713        0.450        0.063       87.294       11.564        0.018      329.992       -2.919      865.371
12/31/2014  17:03:00       19.946       83.496      -14.680       18.796       31.132       17.285      353.272      969.194      298.788        0.460        0.081       85.845       14.109        0.027      329.959       -2.974      865.365
12/31/2014  17:04:00       25.094      101.769      -16.740       19.858       23.488       13.090      394.341      551.685      171.361        0.619        0.056      104.817       12.637        0.015      329.935       -3.016      865.361
12/31/2014  17:05:00       11.382      123.674      -22.762       17.974       33.197       14.077      323.072     1102.008      198.154        0.878        0.081      124.196       13.643        0.012      329.944       -3.000      865.373
12/31/2014  17:06:00       -6.151       95.243      -17.631       26.525       26.810       13.035      703.570      718.766      169.913        0.551        0.080       95.442       14.186        0.022      329.967       -2.962      865.379
12/31/2014  17:07:00        5.874      101.953      -15.710       15.086       17.115       11.401      227.580      292.933      129.979        0.566        0.033      102.122        5.924        0.003      329.964       -2.967      865.373
12/31/2014  17:08:00       11.080       86.647      -14.363       10.453       13.448        7.863      109.259      180.858       61.827        0.409        0.018       87.353        6.395        0.005      329.957       -2.978      865.376
12/31/2014  17:09:00       13.392       48.153       -7.743       18.628       23.174       11.012      346.985      537.056      121.275        0.178        0.050       49.981        5.181        0.011      329.919       -3.040      865.376
12/31/2014  17:10:00       37.929       91.265      -17.486       22.984       37.453       17.021      528.257     1402.740      289.709        0.615        0.111       98.833       17.753        0.032      329.923       -3.034      865.368
12/31/2014  17:11:00       14.856       98.382      -17.143       32.120       47.759       20.307     1031.717     2280.905      412.382        0.696        0.186       99.497       27.051        0.074      329.897       -3.077      865.364
12/31/2014  17:12:00      -18.157      139.360      -23.526       22.295       23.256       10.632      497.076      540.849      113.033        1.073        0.058      140.538        4.798        0.001      329.961       -2.972      865.361
12/31/2014  17:13:00      -30.649      140.165      -25.450       19.122       16.579       10.932      365.655      274.872      119.506        1.100        0.038      143.477        4.167        0.001      329.995       -2.916      865.354
12/31/2014  17:14:00      -39.526      125.500      -18.226       19.677       22.507       17.847      387.192      506.568      318.498        0.943        0.061      131.577       14.604        0.012      330.007       -2.896      865.351
12/31/2014  17:15:00      -60.240      109.499      -18.050       38.555       32.846       21.162     1486.502     1078.887      447.823        0.948        0.151      124.975       18.956        0.023      330.001       -2.904      865.368
12/31/2014  17:16:00      -25.720      150.977      -23.843       28.190       25.381       13.992      794.671      644.215      195.789        1.283        0.082      153.152       11.492        0.006      329.998       -2.911      865.402
12/31/2014  17:17:00      -63.780      101.687       -5.418       40.518       41.783       27.253     1641.734     1745.789      742.723        0.928        0.207      120.034       24.279        0.041      330.049       -2.827      865.423
12/31/2014  17:18:00      -33.677       96.782      -10.424       23.730       26.113       17.532      563.102      681.898      307.355        0.608        0.078      102.474       14.196        0.019      330.077       -2.782      865.432
12/31/2014  17:19:00      -74.219       86.216      -18.510       32.066       29.978       16.059     1028.223      898.710      257.893        0.773        0.109      113.761       14.517        0.016      330.023       -2.869      865.424
12/31/2014  17:20:00      -16.051       87.664      -10.188       33.978       36.262       15.336     1154.474     1314.952      235.189        0.537        0.135       89.121       13.933        0.024      330.013       -2.886      865.417
12/31/2014  17:21:00      -22.896      148.203      -23.706       26.843       30.149       16.915      720.551      908.936      286.112        1.248        0.096      149.961       14.087        0.009      329.978       -2.943      865.417
12/31/2014  17:22:00      -11.247      147.818      -18.648       19.257       28.739       11.582      370.832      825.906      134.151        1.183        0.067      148.245        8.403        0.003      329.914       -3.049      865.426
12/31/2014  17:23:00       18.596       91.014      -10.883       23.916       43.634       20.169      571.974     1903.895      406.775        0.581        0.144       92.894       23.385        0.063      329.801       -3.234      865.436
12/31/2014  17:24:00       27.906       80.774      -10.740       19.220       32.892       19.350      369.404     1081.858      374.422        0.462        0.091       85.458       19.501        0.052      329.786       -3.257      865.424
12/31/2014  17:25:00       34.952       39.134        8.939       29.918       22.860       22.678      895.086      522.565      514.288        0.238        0.097       52.470       16.283        0.096      329.780       -3.267      865.381
12/31/2014  17:26:00       -5.660      123.909      -15.188       20.026       50.297       20.109      401.042     2529.768      404.353        0.947        0.167      124.038       23.097        0.035      329.797       -3.240      865.351
12/31/2014  17:27:00      -15.509      150.595      -27.987       21.876       24.526       13.937      478.558      601.513      194.226        1.249        0.064      151.392       10.929        0.005      329.809       -3.221      865.350
12/31/2014  17:28:00        5.891      118.950      -21.844       20.876       18.685       14.367      435.803      349.140      206.413        0.783        0.050      119.096       11.370        0.009      329.810       -3.219      865.360
12/31/2014  17:29:00        6.569      128.290      -23.540       20.485       19.374       11.754      419.621      375.360      138.158        0.899        0.047      128.458        7.343        0.003      329.769       -3.284      865.365
12/31/2014  17:30:00       19.909      108.707      -21.956       12.819       26.860       10.785      164.316      721.486      116.324        0.685        0.050      110.515        9.669        0.008      329.759       -3.298      865.372
12/31/2014  17:31:00      -36.172       68.712      -12.447       25.669       33.757       20.016      658.896     1139.560      400.649        0.419        0.110       77.652       21.076        0.074      329.817       -3.206      865.374
12/31/2014  17:32:00       14.552       66.781       -4.508       25.239       21.058       15.761      637.020      443.448      248.394        0.301        0.066       68.348       14.269        0.044      329.775       -3.274      865.378
12/31/2014  17:33:00       16.368       90.779      -15.246       13.392       16.192       15.029      179.348      262.193      225.859        0.470        0.033       92.243        8.552        0.009      329.774       -3.276      865.392
12/31/2014  17:34:00       12.508      103.622      -18.958       11.086       20.159        7.643      122.896      406.396       58.415        0.592        0.029      104.374        7.188        0.005      329.762       -3.294      865.398
12/31/2014  17:35:00       18.758       58.974       -9.270       17.300       27.270       13.715      299.290      743.654      188.114        0.257        0.062       61.886       13.086        0.045      329.709       -3.381      865.388
12/31/2014  17:36:00       13.672        9.118        3.831       24.587        9.005       14.660      604.528       81.097      214.923        0.059        0.045       16.434       15.191        0.855      329.655       -3.470      865.388
12/31/2014  17:37:00       -7.195       28.705       -0.480       28.624       15.946       10.791      819.334      254.260      116.445        0.103        0.060       29.593       10.696        0.131      329.720       -3.364      865.382
12/31/2014  17:38:00       -1.559       26.032       -2.274       25.938       18.069       18.578      672.775      326.496      345.153        0.101        0.067       26.078       16.195        0.386      329.697       -3.402      865.379
12/31/2014  17:39:00      -18.933       31.051       -4.500       22.454       16.809       10.441      504.180      282.555      109.011        0.112        0.045       36.368        9.585        0.069      329.735       -3.340      865.362
12/31/2014  17:40:00      -30.151       30.952       -8.085       23.351       14.290       16.765      545.264      204.194      281.078        0.148        0.052       43.210       15.468        0.128      329.843       -3.164      865.361
12/31/2014  17:41:00      -16.859       30.047       -2.430       23.052       21.237       13.496      531.389      450.996      182.147        0.118        0.058       34.453        6.695        0.038      329.749       -3.318      865.348
12/31/2014  17:42:00       -9.069       31.486        3.644       20.029       22.821       15.585      401.157      520.778      242.906        0.113        0.058       32.766       11.419        0.121      329.706       -3.388      865.364
12/31/2014  17:43:00        7.859       67.142       -4.451       18.037       16.934       16.738      325.348      286.762      280.151        0.274        0.045       67.600       13.256        0.038      329.639       -3.499      865.368
12/31/2014  17:44:00      -34.265       23.771       -0.808       15.171       26.925       10.163      230.171      724.935      103.287        0.140        0.053       41.703        8.376        0.040      329.811       -3.217      865.389
12/31/2014  17:45:00       -6.231       10.391       11.515       10.919        7.968        7.589      119.225       63.496       57.596        0.026        0.012       12.116        6.595        0.296      329.647       -3.485      865.398
12/31/2014  17:46:00       -3.131       37.814       -3.814       11.020        9.889        9.956      121.429       97.794       99.129        0.089        0.016       37.943        9.214        0.059      329.626       -3.520      865.412
12/31/2014  17:47:00      -10.195       57.761      -12.040       11.429       14.087        6.617      130.612      198.450       43.782        0.198        0.019       58.654        3.574        0.004      329.621       -3.526      865.429
12/31/2014  17:48:00      -49.514       35.211       -8.223       17.373       22.747       10.852      301.809      517.428      117.775        0.235        0.047       60.758        6.063        0.010      329.666       -3.454      865.437
12/31/2014  17:49:00      -59.703       40.399      -13.192       12.397       19.781       10.164      153.692      391.296      103.305        0.301        0.032       72.087        7.626        0.011      329.701       -3.397      865.463
12/31/2014  17:50:00      -63.965       49.115      -18.365       13.487       19.170        7.781      181.905      367.483       60.537        0.373        0.030       80.646        7.288        0.008      329.628       -3.518      865.478
12/31/2014  17:51:00      -68.715       41.465      -16.421       11.777       18.085       10.428      138.687      327.073      108.749        0.364        0.029       80.257        9.894        0.015      329.654       -3.475      865.484
12/31/2014  17:52:00      -49.495       23.051        0.124       17.024       10.578       12.435      289.816      111.896      154.632        0.177        0.028       54.600        7.941        0.021      329.575       -3.603      865.486
12/31/2014  17:53:00      -41.936       30.533       -5.749       12.421        8.186        7.952      154.281       67.018       63.231        0.150        0.014       51.874        7.235        0.019      329.603       -3.560      865.477
12/31/2014  17:54:00       -5.114       16.129        2.969       16.534       12.468       11.293      273.385      155.452      127.538        0.043        0.028       16.920       11.475        0.460      329.582       -3.591      865.478
12/31/2014  17:55:00       -4.849       21.207       -0.453       12.419       13.450        9.785      154.235      180.912       95.739        0.045        0.022       21.754        6.801        0.098      329.571       -3.611      865.491
12/31/2014  17:56:00      -10.763        8.188        5.048       15.350        7.688       10.930      235.625       59.108      119.454        0.031        0.021       13.524        5.786        0.183      329.530       -3.675      865.499
12/31/2014  17:57:00       15.422       19.368        0.767       12.769       13.223       11.388      163.059      174.849      129.695        0.054        0.023       24.758        5.009        0.041      329.574       -3.603      865.482
12/31/2014  17:58:00       36.751       21.098       -2.249       13.475       12.742        8.967      181.579      162.358       80.406        0.111        0.021       42.376        6.475        0.023      329.596       -3.568      865.464
12/31/2014  17:59:00       28.743       15.678       11.966       13.026       12.170       12.312      169.679      148.105      151.581        0.084        0.023       32.741        5.960        0.033      329.556       -3.635      865.455
12/31/2014  18:00:00       65.286       26.111        3.172       17.282       19.178       13.664      298.654      367.813      186.703        0.290        0.043       70.314        6.442        0.008      329.526       -3.681      865.447
12/31/2014  18:01:00       46.904       33.624        2.572       19.048       11.270       10.753      362.818      127.015      115.630        0.197        0.030       57.711        6.876        0.014      329.549       -3.644      865.449
12/31/2014  18:02:00       64.835       33.578       11.850       16.027       12.560       13.028      256.850      157.748      169.741        0.303        0.029       73.014        6.479        0.008      329.559       -3.629      865.439
12/31/2014  18:03:00       75.317       50.604        5.948       22.717       13.821       13.298      516.056      191.007      176.845        0.458        0.044       90.738       10.463        0.013      329.562       -3.624      865.440
12/31/2014  18:04:00       88.142       54.536        5.452       20.627       16.856       22.515      425.463      284.115      506.938        0.599        0.061      103.649       11.558        0.012      329.521       -3.690      865.467
12/31/2014  18:05:00      101.517       56.204       -5.307       20.711       20.500       14.710      428.943      420.267      216.388        0.728        0.053      116.038        7.126        0.004      329.490       -3.741      865.481
12/31/2014  18:06:00       78.250       41.826       -2.922       22.958       17.816       12.883      527.051      317.398      165.976        0.445        0.051       88.727        7.883        0.008      329.502       -3.722      865.491
12/31/2014  18:07:00       23.613       38.868       -5.116       15.326        9.134        7.074      234.876       83.438       50.047        0.123        0.018       45.478        5.188        0.013      329.468       -3.777      865.506
12/31/2014  18:08:00       36.281       15.839       -3.744       17.310       14.128        8.360      299.630      199.609       69.896        0.108        0.028       39.587        4.067        0.011      329.505       -3.717      865.498
12/31/2014  18:09:00       41.861       21.145        0.817       19.283        9.446        9.400      371.835       89.231       88.367        0.137        0.027       46.898        7.263        0.024      329.478       -3.761      865.490
12/31/2014  18:10:00       66.808       27.438        7.813       13.034       14.405       11.156      169.879      207.512      124.460        0.289        0.025       72.223        7.820        0.012      329.478       -3.758      865.487
12/31/2014  18:11:00       73.954       34.161        3.881       14.089       11.058        9.325      198.487      122.281       86.958        0.353        0.020       81.463        7.458        0.008      329.468       -3.780      865.477
12/31/2014  18:12:00       72.434       39.001        5.792       16.225       10.308       11.182      263.255      106.259      125.039        0.365        0.025       82.267        4.135        0.003      329.433       -3.835      865.487
12/31/2014  18:13:00       51.645       40.903       19.289       18.101       12.666       16.025      327.630      160.426      256.808        0.273        0.037       65.881        8.597        0.017      329.412       -3.870      865.496
12/31/2014  18:14:00       46.528       35.788       13.234        9.606        9.520        9.415       92.266       90.627       88.637        0.195        0.014       58.700        6.428        0.012      329.384       -3.916      865.494
12/31/2014  18:15:00       38.123       32.796       -0.722        5.804        7.030        5.996       33.684       49.418       35.955        0.132        0.006       50.289        3.427        0.005      329.393       -3.901      865.515
12/31/2014  18:16:00       37.351       25.573       11.505       11.968       11.089       11.677      143.221      122.968      136.355        0.129        0.020       45.267        9.349        0.043      329.320       -4.021      865.535
12/31/2014  18:17:00       68.178       25.807        4.027       18.418       11.522       14.243      339.229      132.763      202.852        0.300        0.034       72.899        8.912        0.015      329.344       -3.982      865.539
12/31/2014  18:18:00       87.233       35.228        5.051       33.009       20.391       15.656     1089.591      415.800      245.117        0.531        0.088       94.078       12.491        0.018      329.329       -4.005      865.543
12/31/2014  18:19:00       92.137       48.320        9.250       26.655       28.839       26.982      710.482      831.693      728.032        0.659        0.114      104.038       14.784        0.020      329.259       -4.120      865.560
12/31/2014  18:20:00       91.276       47.265        9.916       23.501       21.441       19.244      552.301      459.725      370.324        0.602        0.069      102.787       11.364        0.012      329.231       -4.164      865.562
12/31/2014  18:21:00       87.008       43.538        4.122       24.680       22.239       17.427      609.106      494.551      303.695        0.544        0.070       97.293       10.432        0.011      329.218       -4.186      865.558
12/31/2014  18:22:00       95.518       45.762        2.426       24.092       19.752       18.102      580.439      390.150      327.696        0.626        0.065      105.914       14.105        0.018      329.238       -4.154      865.552
12/31/2014  18:23:00       97.159       60.978       23.118       22.608       21.105       26.118      511.100      445.405      682.136        0.767        0.082      114.709       17.322        0.023      329.276       -4.092      865.556
12/31/2014  18:24:00       84.865       66.216       41.885       31.364       19.569       25.262      983.705      382.962      638.149        0.767        0.100      107.642       17.094        0.025      329.238       -4.154      865.550
12/31/2014  18:25:00       76.832       47.108       35.080       38.761       31.469       29.460     1502.416      990.311      867.917        0.636        0.168       90.123       18.425        0.042      329.253       -4.130      865.550
12/31/2014  18:26:00       83.705       51.278       23.348       27.577       19.550       20.645      760.478      382.204      426.234        0.587        0.078       98.163        7.863        0.006      329.161       -4.281      865.543
12/31/2014  18:27:00       31.196        9.217       17.181       20.382       22.282       17.291      415.426      496.497      298.988        0.128        0.061       32.529       12.396        0.145      329.157       -4.285      865.525
12/31/2014  18:28:00        8.777       34.121       31.145       25.148       20.431       23.976      632.443      417.406      574.844        0.192        0.081       35.232       21.749        0.381      329.168       -4.267      865.526
12/31/2014  18:29:00       28.471       10.493       20.947       31.865       16.607       15.819     1015.409      275.800      250.254        0.145        0.077       30.343       13.006        0.184      329.159       -4.284      865.525
12/31/2014  18:30:00       92.512       52.094       17.495       22.884       19.487       20.793      523.674      379.733      432.352        0.646        0.067      106.171       14.372        0.018      329.108       -4.367      865.523
12/31/2014  18:31:00       48.753       25.163       13.037       21.075       17.232       15.140      444.151      296.927      229.225        0.207        0.049       54.863        9.996        0.033      329.058       -4.448      865.534
12/31/2014  18:32:00       55.262       23.136       11.541       27.640       17.672       16.866      763.956      312.300      284.479        0.254        0.068       59.910        9.023        0.023      329.058       -4.448      865.533
12/31/2014  18:33:00       38.367       61.062        1.922       30.110       23.385       21.105      906.585      546.869      445.417        0.355        0.095       72.115       17.513        0.059      329.062       -4.441      865.544
12/31/2014  18:34:00       46.698       34.069        3.126       25.772       17.891       16.453      664.213      320.100      270.701        0.230        0.063       57.805       13.947        0.058      329.033       -4.488      865.557
12/31/2014  18:35:00       39.079       28.296        1.008       15.025       25.252       14.877      225.748      637.684      221.311        0.171        0.054       48.248       16.055        0.111      329.032       -4.490      865.551
12/31/2014  18:36:00       48.552       29.046        3.499       32.863       23.334       15.951     1079.986      544.456      254.420        0.255        0.094       56.577       13.325        0.055      329.050       -4.460      865.568
12/31/2014  18:37:00       59.273       56.932       -0.795       21.379       30.189       26.832      457.064      911.358      719.938        0.442        0.104       82.185       22.044        0.072      329.024       -4.502      865.584
12/31/2014  18:38:00       52.222       50.666       -0.699       23.687       15.102       16.022      561.064      228.062      256.710        0.317        0.052       72.761        9.808        0.018      329.018       -4.512      865.589
12/31/2014  18:39:00       51.746       51.832       21.870       20.910       19.669       24.875      437.239      386.876      618.776        0.364        0.072       73.241       12.915        0.031      329.031       -4.492      865.601
12/31/2014  18:40:00       65.097       53.842       26.884       25.885       16.208       23.276      670.008      262.694      541.788        0.467        0.074       84.478       19.920        0.056      329.051       -4.460      865.607
12/31/2014  18:41:00       26.370       66.927       73.883       36.885       39.277       29.612     1360.507     1542.670      876.886        0.721        0.189       71.935       27.166        0.143      328.915       -4.680      865.620
12/31/2014  18:42:00       97.423       29.616       53.284       71.997       46.469       39.624     5183.631     2159.338     1570.098        1.106        0.446      101.825       42.215        0.172      328.832       -4.816      865.633
12/31/2014  18:43:00       52.889       35.517       59.341       50.855       37.624       24.608     2586.249     1415.567      605.571        0.609        0.230       63.708       24.670        0.150      328.786       -4.892      865.632
12/31/2014  18:44:00       88.151       25.119       43.245       46.550       33.111       28.791     2166.914     1096.346      828.894        0.718        0.205       91.660       21.687        0.056      328.785       -4.894      865.635
12/31/2014  18:45:00      119.341       64.231       21.235       30.856       32.441       24.167      952.068     1052.434      584.029        1.070        0.129      135.528       14.712        0.012      328.797       -4.874      865.663
12/31/2014  18:46:00       95.402       77.075        7.923       35.128       30.362       25.592     1233.982      921.847      654.932        0.896        0.141      122.647       12.779        0.011      328.720       -4.998      865.683
12/31/2014  18:47:00       71.329       38.541        0.264       32.598       31.253       17.162     1062.647      976.736      294.529        0.445        0.117       81.075       18.367        0.051      328.674       -5.074      865.693
12/31/2014  18:48:00       31.650       17.999        2.610       14.643       15.508       13.400      214.430      240.495      179.570        0.098        0.032       36.410        9.625        0.070      328.685       -5.056      865.703
12/31/2014  18:49:00       38.489       40.476       -3.563       15.588       15.895       12.181      242.988      252.657      148.386        0.189        0.032       55.854        7.863        0.020      328.718       -5.004      865.706
12/31/2014  18:50:00       80.535       54.274       10.087       28.094       24.258       19.497      789.298      588.475      380.114        0.565        0.088       97.116       15.178        0.024      328.686       -5.056      865.729
12/31/2014  18:51:00       73.590       48.202        7.874       32.704       28.408       22.564     1069.557      807.024      509.132        0.509        0.119       87.971       16.342        0.035      328.670       -5.081      865.755
12/31/2014  18:52:00       44.780       46.521        1.912       27.383       28.865       23.608      749.844      833.198      557.350        0.316        0.107       64.571       18.671        0.084      328.657       -5.103      865.774
12/31/2014  18:53:00       84.760       56.974       12.790       28.741       25.489       15.246      826.053      649.682      232.438        0.615        0.085      102.129       14.523        0.020      328.640       -5.130      865.794
12/31/2014  18:54:00       84.742       49.309        7.794       28.725       20.018       21.100      825.115      400.704      445.221        0.567        0.084       98.044       13.460        0.019      328.649       -5.115      865.797
12/31/2014  18:55:00       77.998       59.083        9.153       28.859       24.749       18.401      832.864      612.521      338.604        0.572        0.089       97.849       13.292        0.018      328.659       -5.100      865.798
12/31/2014  18:56:00       68.581       62.197       11.196       27.232       18.611       21.505      741.606      346.366      462.450        0.512        0.078       92.585       11.896        0.017      328.650       -5.114      865.805
12/31/2014  18:57:00       68.743       40.642       17.215       23.839       19.731       22.424      568.297      389.302      502.838        0.407        0.073       79.859       10.894        0.019      328.727       -4.988      865.782
12/31/2014  18:58:00       84.474       55.989       11.945       39.113       25.478       19.020     1529.820      649.105      361.774        0.648        0.127      101.344        4.584        0.002      328.771       -4.916      865.773
12/31/2014  18:59:00       82.823       47.027       -1.992       28.233       22.928       14.922      797.096      525.702      222.679        0.531        0.077       95.243        5.215        0.003      328.792       -4.881      865.776
12/31/2014  19:00:00       81.866       37.635        4.584       24.401       18.405       18.076      595.426      338.737      326.752        0.470        0.063       90.103       15.052        0.028      328.823       -4.832      865.791
12/31/2014  19:01:00       70.780       42.681       17.369       17.020       15.777       12.956      289.686      248.923      167.868        0.392        0.035       82.653        9.655        0.014      328.822       -4.833      865.814
12/31/2014  19:02:00       47.763       32.558        1.942       18.150       12.346        9.856      329.436      152.427       97.131        0.196        0.029       57.804        4.566        0.006      328.832       -4.815      865.840
12/31/2014  19:03:00       31.657       45.045       -9.521       21.571       13.003        8.209      465.291      169.086       67.380        0.191        0.035       55.057        3.005        0.003      328.867       -4.760      865.851
12/31/2014  19:04:00       24.871       46.643       -6.017       14.874       26.468       10.912      221.244      700.566      119.075        0.194        0.052       52.859       13.835        0.069      328.898       -4.709      865.856
12/31/2014  19:05:00       18.216       39.166       -2.342       10.702       16.702        9.987      114.543      278.958       99.748        0.118        0.025       43.195       11.623        0.072      328.917       -4.678      865.866
12/31/2014  19:06:00       18.602       45.758       -7.576       13.327       16.785        8.245      177.618      281.740       67.977        0.151        0.026       49.395       10.039        0.041      328.917       -4.679      865.872
12/31/2014  19:07:00       16.817       38.916       -1.952        9.862        8.373       10.120       97.264       70.102      102.414        0.104        0.013       42.394        7.648        0.033      328.910       -4.689      865.874
12/31/2014  19:08:00       19.284       34.886       -5.513        7.872       11.455        6.823       61.968      131.209       46.547        0.093        0.012       39.861        4.766        0.014      328.882       -4.736      865.886
12/31/2014  19:09:00       15.893       50.048      -10.856        7.998        7.099        5.174       63.971       50.395       26.768        0.151        0.007       52.510        3.009        0.003      329.020       -4.509      865.905
12/31/2014  19:10:00       25.936       25.260       -3.793        9.076       15.379        7.229       82.369      236.503       52.253        0.085        0.019       36.204        7.668        0.045      329.030       -4.494      865.918
12/31/2014  19:11:00       39.069       23.963        4.081        9.982       10.302        8.855       99.640      106.140       78.404        0.120        0.014       45.833        5.098        0.012      328.967       -4.596      865.928
12/31/2014  19:12:00       34.202       22.914       -9.684       10.861        9.858        9.664      117.972       97.171       93.397        0.105        0.015       41.168        7.155        0.030      328.860       -4.772      865.935
12/31/2014  19:13:00       27.829       21.328        3.074       17.853       13.743       13.679      318.715      188.859      187.129        0.097        0.035       35.062        8.126        0.054      328.776       -4.907      865.942
12/31/2014  19:14:00       46.153       17.910       -0.896       10.319       11.246       10.751      106.483      126.475      115.585        0.140        0.017       49.506        7.248        0.021      328.759       -4.934      865.954
12/31/2014  19:15:00       47.497       20.476        1.296       20.395       11.902        9.542      415.937      141.657       91.055        0.166        0.032       51.723        7.525        0.021      328.740       -4.966      865.950
12/31/2014  19:16:00       46.060       31.234        1.674        6.900        8.003        8.601       47.615       64.050       73.977        0.164        0.009       55.651        3.350        0.004      328.731       -4.980      865.938
12/31/2014  19:17:00       24.609        9.818        3.641       13.831        7.272        6.054      191.301       52.889       36.650        0.050        0.014       26.495        5.603        0.045      328.744       -4.961      865.909
12/31/2014  19:18:00        7.073      -12.012       -0.394        7.260        6.837        5.466       52.707       46.748       29.879        0.016        0.006       13.940        3.804        0.074      328.833       -4.814      865.888
12/31/2014  19:19:00       -1.183       -0.768        5.597        7.995        7.920        4.160       63.921       62.723       17.302        0.009        0.007        1.410        3.167        5.044      328.904       -4.700      865.886
12/31/2014  19:20:00      -15.362       17.149        6.595        6.919        8.322        7.390       47.872       69.260       54.611        0.037        0.009       23.023        4.068        0.031      328.895       -4.714      865.888
12/31/2014  19:21:00      -34.190       30.255       -7.547        9.458        8.932        9.538       89.449       79.783       90.981        0.120        0.013       45.654        6.698        0.022      328.934       -4.649      865.884
12/31/2014  19:22:00      -19.350        4.413       -0.249       15.447       14.488       10.101      238.613      209.902      102.037        0.047        0.028       19.847        8.200        0.171      328.901       -4.703      865.876
12/31/2014  19:23:00       -5.775        7.026       -2.367       13.123        6.090        9.326      172.205       37.085       86.970        0.019        0.015        9.095        8.672        0.909      328.900       -4.706      865.873
12/31/2014  19:24:00        1.431       18.506        4.233       12.661        9.577        7.498      160.302       91.710       56.220        0.034        0.015       18.562        5.892        0.101      328.915       -4.681      865.878
12/31/2014  19:25:00       18.237       28.395       -3.730       12.945       10.359        5.063      167.584      107.309       25.636        0.073        0.015       33.747        4.667        0.019      328.953       -4.620      865.877
12/31/2014  19:26:00       38.482       27.558       -0.218        7.199        5.508        7.389       51.828       30.342       54.600        0.119        0.007       47.332        3.055        0.004      328.760       -4.935      865.879
12/31/2014  19:27:00       44.070       41.656       12.027       13.304       14.095       13.536      176.983      198.660      183.211        0.219        0.028       60.641        8.087        0.018      328.678       -5.069      865.867
12/31/2014  19:28:00       49.175       16.970        1.507       15.295       16.369       11.190      233.942      267.948      125.224        0.167        0.031       52.021        9.419        0.033      328.659       -5.100      865.863
12/31/2014  19:29:00        8.404        2.168        9.774       14.524       18.286       12.853      210.933      334.376      165.207        0.044        0.036        8.679       13.137        2.291      328.637       -5.135      865.863
12/31/2014  19:30:00        9.477       19.781        9.947        9.167        8.329        9.484       84.043       69.368       89.939        0.041        0.012       21.934        5.365        0.060      328.608       -5.180      865.854
12/31/2014  19:31:00        9.713       -2.223        1.520       11.345       14.975       13.696      128.704      224.265      187.580        0.032        0.027        9.964        8.823        0.784      328.682       -5.063      865.847
12/31/2014  19:32:00       16.576        1.665       -0.825       13.040       10.697        6.860      170.050      114.431       47.062        0.030        0.017       16.660        2.780        0.028      328.671       -5.078      865.844
12/31/2014  19:33:00       14.796        1.131        4.733       12.319       12.040       10.295      151.763      144.951      105.987        0.032        0.020       14.839        8.064        0.295      328.652       -5.110      865.864
12/31/2014  19:34:00       15.265       -9.651       -5.241        9.017       12.895        8.722       81.305      166.273       76.076        0.034        0.016       18.060        6.039        0.112      328.695       -5.040      865.876
12/31/2014  19:35:00      -23.787      -13.967       -4.037       21.744        8.090        6.116      472.794       65.441       37.411        0.068        0.029       27.584        5.002        0.033      328.700       -5.034      865.866
12/31/2014  19:36:00      -50.276      -17.786       -2.613       13.162       10.532        6.939      173.231      110.913       48.146        0.159        0.017       53.330        5.243        0.010      328.694       -5.041      865.845
12/31/2014  19:37:00      -48.189      -20.567       -6.277       11.426       10.871        7.524      130.552      118.183       56.604        0.154        0.015       52.394        3.789        0.005      328.655       -5.105      865.831
12/31/2014  19:38:00      -45.070      -18.453       -2.744        9.966       11.474        6.158       99.323      131.656       37.920        0.132        0.013       48.702        3.028        0.004      328.628       -5.150      865.829
12/31/2014  19:39:00      -56.477      -10.908       -0.859       13.098       13.535        9.767      171.546      183.205       95.385        0.188        0.023       57.521        7.701        0.018      328.608       -5.183      865.830
12/31/2014  19:40:00      -40.090      -36.288       -1.381       33.563       21.412       10.297     1126.473      458.486      106.035        0.231        0.085       54.074        5.033        0.009      328.678       -5.067      865.830
12/31/2014  19:41:00      -50.035      -22.286       -0.754       22.234       17.820        9.097      494.334      317.558       82.748        0.195        0.045       54.774        4.917        0.008      328.687       -5.053      865.847
12/31/2014  19:42:00      -50.988      -31.995        5.251       28.623       21.582       14.616      819.261      465.771      213.617        0.257        0.075       60.195       14.506        0.058      328.686       -5.055      865.869
12/31/2014  19:43:00      -34.174      -42.393        6.267       32.980       20.948       16.343     1087.652      438.804      267.092        0.240        0.090       54.452       16.680        0.094      328.731       -4.981      865.893
12/31/2014  19:44:00      -59.105      -41.582        3.564       30.180       22.878       17.508      910.843      523.386      306.526        0.349        0.087       72.266       14.051        0.038      328.752       -4.947      865.907
12/31/2014  19:45:00      -49.797      -17.128        1.797       26.409       26.737       13.883      697.460      714.861      192.742        0.219        0.080       52.661       15.554        0.087      328.715       -5.008      865.916
12/31/2014  19:46:00      -72.438      -12.743        1.640       28.688       18.428       14.157      822.984      339.602      200.407        0.339        0.068       73.550       12.765        0.030      328.575       -5.236      865.911
12/31/2014  19:47:00      -91.311      -19.511       -5.703       30.215       15.924       17.691      912.933      253.580      312.977        0.511        0.074       93.372       18.268        0.038      328.507       -5.347      865.896
12/31/2014  19:48:00      -99.292      -20.358       -9.269       25.093       23.657       15.373      629.665      559.657      236.315        0.589        0.071      101.357       11.480        0.013      328.463       -5.419      865.871
12/31/2014  19:49:00      -93.164      -20.600       -2.709       22.778       24.779       18.911      518.817      613.995      357.623        0.530        0.075       95.414       13.926        0.021      328.384       -5.546      865.841
12/31/2014  19:50:00      -86.287       -9.801       -6.370       28.138       16.636       17.491      791.769      276.764      305.948        0.448        0.069       86.842       18.033        0.043      328.342       -5.616      865.831
12/31/2014  19:51:00      -26.169      -12.300        2.942       24.492       16.737       10.091      599.881      280.137      101.831        0.091        0.049       28.915        9.965        0.119      328.386       -5.543      865.855
12/31/2014  19:52:00       -8.959       -7.151        0.097       15.744       11.004       10.334      247.872      121.092      106.799        0.030        0.024       11.463        6.765        0.348      328.445       -5.448      865.889
12/31/2014  19:53:00        7.078        3.961        8.579        4.622        4.603        5.703       21.360       21.188       32.520        0.011        0.004        8.111        2.354        0.084      328.478       -5.394      865.935
12/31/2014  19:54:00      -13.778      -11.129       -1.692       14.268       10.223       11.152      203.572      104.507      124.357        0.037        0.022       17.711        9.293        0.275      328.513       -5.337      865.973
12/31/2014  19:55:00      -30.538        0.956       -2.307       18.505       12.517       10.895      342.424      156.665      118.705        0.078        0.031       30.553       11.125        0.133      328.527       -5.315      865.989
12/31/2014  19:56:00      -65.869      -33.127       -2.283       45.898       20.048       16.997     2106.609      401.917      288.903        0.412        0.140       73.730       19.579        0.071      328.556       -5.267      865.985
12/31/2014  19:57:00     -100.448      -31.273       -9.333       29.847       28.587       14.300      890.863      817.208      204.495        0.653        0.096      105.203       14.024        0.018      328.532       -5.304      865.975
12/31/2014  19:58:00      -94.273       -6.422       -2.560       34.856       21.812       18.056     1214.935      475.771      326.007        0.548        0.101       94.492       19.795        0.044      328.540       -5.293      865.976
12/31/2014  19:59:00     -112.143      -25.118       -2.376       32.929       28.011       18.510     1084.347      784.610      342.638        0.771        0.111      114.921       17.672        0.024      328.467       -5.413      865.987
12/31/2014  20:00:00     -133.522       -9.960      -12.175       26.378       26.798       17.606      695.801      718.119      309.967        0.990        0.086      133.893       13.664        0.010      328.529       -5.310      866.012
12/31/2014  20:01:00     -117.301      -21.647      -10.551       36.952       24.685       17.443     1365.444      609.341      304.247        0.831        0.114      119.282       19.032        0.025      328.481       -5.390      866.016
12/31/2014  20:02:00      -79.601      -14.523       -5.471       24.102       24.723       18.546      580.921      611.241      343.938        0.406        0.077       80.915       15.744        0.038      328.414       -5.498      866.008
12/31/2014  20:03:00      -68.223      -17.917       -2.026       28.016       22.729       16.708      784.917      516.599      279.164        0.328        0.079       70.537       15.887        0.051      328.258       -5.752      866.007
12/31/2014  20:04:00      -89.787      -28.971       -5.872       24.621       21.958       12.815      606.212      482.140      164.216        0.509        0.063       94.346       10.864        0.013      328.236       -5.788      866.019
12/31/2014  20:05:00      -76.234       -1.102       -7.255       37.530       24.188       16.586     1408.488      585.081      275.106        0.407        0.113       76.242       18.244        0.057      328.258       -5.752      866.027
12/31/2014  20:06:00      -95.019      -15.986       -7.138       18.377       16.143       16.210      337.707      260.582      262.757        0.510        0.043       96.355       12.669        0.017      328.313       -5.663      866.027
12/31/2014  20:07:00     -106.223      -17.401      -11.321       13.080       12.332       10.318      171.075      152.091      106.458        0.607        0.021      107.639        7.414        0.005      328.354       -5.598      866.022
12/31/2014  20:08:00      -79.731      -11.629       -4.798       36.759       23.058       17.449     1351.243      531.658      304.461        0.435        0.109       80.575       19.317        0.057      328.257       -5.753      866.011
12/31/2014  20:09:00      -72.096        7.702       -0.227       38.497       31.421       22.389     1482.033      987.281      501.286        0.411        0.149       72.507       22.016        0.092      328.078       -6.047      865.998
12/31/2014  20:10:00     -158.278       26.803       -9.622       41.729       30.896       21.115     1741.348      954.552      445.827        1.450        0.157      160.532       18.039        0.013      328.030       -6.125      865.977
12/31/2014  20:11:00     -155.729       42.210       -8.469       30.744       25.783       15.172      945.167      664.746      230.178        1.397        0.092      161.348        9.518        0.003      328.007       -6.161      865.966
12/31/2014  20:12:00     -128.343       -2.342      -12.623       24.124       18.888       14.651      581.963      356.766      214.653        0.889        0.058      128.364       14.787        0.013      328.070       -6.060      865.952
12/31/2014  20:13:00     -127.850        0.329      -15.172       14.376       11.408       10.985      206.683      130.139      120.675        0.852        0.023      127.851        6.155        0.002      328.140       -5.946      865.930
12/31/2014  20:14:00     -105.019       -9.392       -6.202       24.654       17.201       14.881      607.820      295.883      221.439        0.614        0.056      105.438       14.583        0.019      328.179       -5.881      865.912
12/31/2014  20:15:00      -90.213       -5.649       -5.104       21.540       13.490       13.725      463.970      181.971      188.385        0.452        0.042       90.390       11.691        0.017      328.182       -5.877      865.912
12/31/2014  20:16:00      -67.772       -0.882       -3.274       16.127       15.870       13.050      260.071      251.854      170.293        0.264        0.034       67.778       10.832        0.026      328.185       -5.873      865.926
12/31/2014  20:17:00      -46.926      -10.553        2.789       16.773       17.760       12.090      281.345      315.424      146.175        0.153        0.037       48.098       11.297        0.055      328.119       -5.979      865.924
12/31/2014  20:18:00      -38.891      -15.425       -0.673       17.887       14.894       10.232      319.945      221.829      104.684        0.120        0.032       41.838        7.264        0.030      328.161       -5.911      865.912
12/31/2014  20:19:00      -36.649      -24.538        0.138       23.533       19.325       14.155      553.783      373.466      200.378        0.154        0.056       44.105       12.817        0.084      328.166       -5.904      865.904
12/31/2014  20:20:00      -72.272      -29.749       -2.359       24.929       17.155       12.268      621.473      294.308      150.495        0.359        0.053       78.155       14.245        0.033      328.078       -6.047      865.895
12/31/2014  20:21:00      -69.063      -26.451       -1.763       21.373       12.195        8.406      456.790      148.707       70.668        0.307        0.034       73.955        7.714        0.011      328.002       -6.169      865.882
12/31/2014  20:22:00      -78.054      -41.628       -7.010       10.910       13.830        8.943      119.026      191.275       79.979        0.413        0.020       88.461        3.702        0.002      328.148       -5.932      865.881
12/31/2014  20:23:00      -85.114      -39.562      -10.801       12.209       14.966       10.236      149.052      223.994      104.783        0.470        0.024       93.859        7.219        0.006      328.192       -5.861      865.891
12/31/2014  20:24:00      -76.368      -45.257       -3.686       22.965       17.048       13.100      527.408      290.645      171.612        0.444        0.049       88.771       11.478        0.017      328.144       -5.940      865.908
12/31/2014  20:25:00      -38.866      -29.022        5.538       30.656       20.718       14.419      939.802      429.222      207.906        0.198        0.079       48.507       16.687        0.118      328.145       -5.936      865.933
12/31/2014  20:26:00      -28.260      -19.789        8.778       32.439       16.698       16.113     1052.259      278.820      259.628        0.143        0.080       34.500       18.448        0.286      328.106       -6.000      865.950
12/31/2014  20:27:00      -34.056      -17.045        5.971       28.734       15.573       15.799      825.664      242.524      249.610        0.140        0.066       38.083       10.165        0.071      328.124       -5.971      865.957
12/31/2014  20:28:00      -82.746      -15.670       -2.354       16.359       15.217        9.502      267.611      231.547       90.293        0.384        0.029       84.216        6.385        0.006      328.224       -5.807      865.957
12/31/2014  20:29:00      -55.103      -13.534       -0.313       30.655       17.733       11.039      939.724      314.472      121.861        0.230        0.069       56.741        8.821        0.024      328.100       -6.010      865.972
12/31/2014  20:30:00      -20.978       -5.407        7.916       29.528       13.800       13.888      871.881      190.448      192.881        0.089        0.063       21.663       17.102        0.623      328.075       -6.051      865.992
12/31/2014  20:31:00      -25.801       -5.403        0.966       15.766       14.202        9.949      248.564      201.690       98.987        0.062        0.027       26.360        8.334        0.100      328.110       -5.995      866.027
12/31/2014  20:32:00       -9.728       -2.927        6.233       12.213        9.644        8.583      149.167       93.000       73.665        0.023        0.016       10.158        7.383        0.528      328.034       -6.117      866.052
12/31/2014  20:33:00      -39.055        3.097       -4.110       16.315       14.409       16.312      266.176      207.612      266.093        0.115        0.037       39.178       13.839        0.125      327.980       -6.204      866.079
12/31/2014  20:34:00       -9.960        0.462        1.667        9.019        5.837        7.605       81.351       34.066       57.830        0.014        0.009        9.971        1.598        0.026      327.844       -6.429      866.085
12/31/2014  20:35:00       11.027       11.900        7.980        9.121       10.322       10.344       83.198      106.546      106.989        0.031        0.015       16.224        6.376        0.154      327.883       -6.362      866.092
12/31/2014  20:36:00       38.964       18.425        8.031       24.900       14.359       13.264      619.989      206.190      175.925        0.146        0.050       43.101        4.830        0.013      327.893       -6.347      866.098
12/31/2014  20:37:00       35.369       31.972       -2.671       15.550       15.588       10.384      241.810      242.989      107.821        0.144        0.030       47.678        8.012        0.028      327.900       -6.335      866.096
12/31/2014  20:38:00       15.930       22.163        0.299        9.922       16.129        9.187       98.451      260.138       84.405        0.059        0.022       27.294        7.595        0.077      327.973       -6.217      866.079
12/31/2014  20:39:00        8.151       28.618       -6.946        5.271        5.248        4.211       27.780       27.544       17.733        0.050        0.004       29.756        2.681        0.008      328.085       -6.030      866.057
12/31/2014  20:40:00        5.715       21.939       -1.892       10.589       10.034        9.208      112.134      100.672       84.794        0.041        0.015       22.671        6.459        0.081      328.106       -6.002      866.047
12/31/2014  20:41:00       -3.112       17.908       -2.149        8.686       11.202        5.848       75.444      125.480       34.203        0.029        0.012       18.176        6.193        0.116      328.067       -6.063      866.049
12/31/2014  20:42:00       -7.009       15.272        2.781        8.915        6.680        6.609       79.471       44.624       43.684        0.023        0.008       16.803        4.319        0.066      328.172       -5.893      866.041
12/31/2014  20:43:00      -27.994       12.428       -2.479        6.536        6.251        6.786       42.714       39.075       46.051        0.054        0.006       30.629        4.969        0.026      328.063       -6.069      866.033
12/31/2014  20:44:00      -32.742       28.316       -8.006       15.745       11.161        8.243      247.914      124.561       67.944        0.119        0.022       43.288        8.971        0.043      327.969       -6.224      866.031
12/31/2014  20:45:00      -29.293       17.717       -9.780       14.525        9.105        4.333      210.979       82.908       18.773        0.079        0.016       34.234        5.520        0.026      327.841       -6.433      866.040
12/31/2014  20:46:00       -2.449       -7.705       -4.385        7.704        5.456        6.109       59.353       29.770       37.318        0.011        0.006        8.085        2.120        0.069      327.797       -6.504      866.044
12/31/2014  20:47:00      -17.027      -10.960       -1.018       11.105        7.111        6.127      123.312       50.567       37.540        0.031        0.011       20.250        5.566        0.076      327.821       -6.464      866.049
12/31/2014  20:48:00      -40.569      -13.634       -7.439        8.143       10.570        6.305       66.302      111.717       39.752        0.105        0.011       42.799        3.011        0.005      327.782       -6.528      866.048
12/31/2014  20:49:00      -44.382      -12.827      -14.122        8.003        8.358        6.027       64.053       69.860       36.320        0.125        0.009       46.199        2.831        0.004      327.758       -6.567      866.046
12/31/2014  20:50:00      -42.632       -0.946       -4.923       23.223       14.465       12.751      539.299      209.222      162.594        0.138        0.046       42.642       11.431        0.072      327.777       -6.537      866.045
12/31/2014  20:51:00      -11.589       -4.527       -4.891       16.410       11.075        9.093      269.299      122.649       82.691        0.033        0.024       12.442        6.065        0.238      327.778       -6.536      866.053
12/31/2014  20:52:00      -34.636        1.358       -3.365       23.506       24.065       17.008      552.543      579.105      289.275        0.132        0.071       34.662       12.249        0.125      327.815       -6.474      866.057
12/31/2014  20:53:00      -90.559        0.086       -9.675       35.574       25.316       17.282     1265.527      640.921      298.683        0.525        0.110       90.559       15.799        0.030      327.856       -6.408      866.059
12/31/2014  20:54:00      -40.343        4.229       -6.057       32.548       28.190       17.453     1059.351      794.675      304.602        0.192        0.108       40.565       15.225        0.141      327.852       -6.415      866.048
12/31/2014  20:55:00     -108.119        2.921       -7.931       31.576       24.575       18.456      997.013      603.939      340.638        0.685        0.097      108.158       14.708        0.018      327.909       -6.320      866.032
12/31/2014  20:56:00      -86.323       -8.177       -8.283       44.858       28.738       17.398     2012.272      825.853      302.689        0.536        0.157       86.710       18.310        0.045      327.743       -6.592      866.014
12/31/2014  20:57:00      -94.925       -8.166       -3.519       42.459       30.501       20.984     1802.793      930.325      440.323        0.613        0.159       95.276       24.076        0.064      327.639       -6.761      865.995
12/31/2014  20:58:00      -95.644       -8.797       -4.584       51.092       29.841       26.672     2610.414      890.465      711.417        0.673        0.211       96.048       26.285        0.075      327.594       -6.833      865.982
12/31/2014  20:59:00      -82.370       -4.498       -6.378       51.037       32.499       21.302     2604.792     1056.217      453.769        0.548        0.206       82.493       17.660        0.046      327.582       -6.851      865.983
12/31/2014  21:00:00     -113.781        2.312       -9.059       40.152       28.646       20.657     1612.166      820.579      426.732        0.795        0.143      113.805       20.782        0.033      327.644       -6.752      865.990
12/31/2014  21:01:00     -118.311        6.447      -12.412       37.630       36.884       20.359     1416.046     1360.428      414.500        0.869        0.160      118.486       18.627        0.025      327.582       -6.853      865.993
12/31/2014  21:02:00     -162.824       32.660      -16.858       36.282       28.447       18.984     1316.364      809.220      360.405        1.517        0.124      166.067       14.095        0.007      327.523       -6.949      865.999
12/31/2014  21:03:00     -148.529       18.414      -19.295       34.652       29.462       21.215     1200.731      868.035      450.067        1.264        0.126      149.666       18.769        0.016      327.497       -6.991      866.014
12/31/2014  21:04:00     -130.438       -7.409      -15.288       37.856       48.585       26.884     1433.087     2360.546      722.732        1.091        0.226      130.648       20.198        0.024      327.469       -7.037      866.020
12/31/2014  21:05:00     -116.892      -42.120       -9.178       33.575       56.602       22.544     1127.305     3203.740      508.220        1.018        0.242      124.249       17.080        0.019      327.449       -7.070      866.026
12/31/2014  21:06:00     -124.817       16.482      -13.015       36.266       34.272       23.014     1315.238     1174.566      529.657        0.952        0.151      125.900       13.490        0.011      327.490       -7.003      866.048
12/31/2014  21:07:00     -131.904       49.314      -10.100       54.677       30.857       26.880     2989.565      952.168      722.523        1.230        0.233      140.821       22.400        0.025      327.447       -7.074      866.053
12/31/2014  21:08:00     -122.066       12.050      -18.781       40.554       35.455       21.521     1644.654     1257.054      463.146        0.938        0.168      122.660       17.966        0.021      327.454       -7.062      866.023
12/31/2014  21:09:00     -114.627      -31.671      -10.155       26.168       33.950       21.908      684.757     1152.597      479.958        0.828        0.116      118.922       13.243        0.012      327.466       -7.043      865.979
12/31/2014  21:10:00     -117.110      -56.477      -21.518       27.889       24.608       18.416      777.797      605.574      339.165        0.954        0.086      130.017       16.810        0.017      327.352       -7.226      865.962
12/31/2014  21:11:00      -97.906      -47.850      -16.965       29.589       31.547       20.010      875.512      995.198      400.412        0.722        0.114      108.973        8.303        0.006      327.384       -7.173      865.963
12/31/2014  21:12:00      -71.259      -47.888       -8.342       22.255       22.021       18.648      495.296      484.910      347.763        0.438        0.066       85.855       12.976        0.023      327.430       -7.100      865.956
12/31/2014  21:13:00      -77.856      -46.285       -5.256       43.577       24.744       15.484     1898.925      612.272      239.754        0.549        0.138       90.576        6.635        0.005      327.403       -7.144      865.954
12/31/2014  21:14:00     -103.454      -37.267      -11.952       16.572       19.443       14.681      274.642      378.041      215.521        0.655        0.043      109.961       10.379        0.009      327.381       -7.180      865.937
12/31/2014  21:15:00      -75.478      -14.461       -4.760       19.349       16.950       14.100      374.391      287.296      198.823        0.339        0.043       76.851       10.529        0.019      327.334       -7.255      865.935
12/31/2014  21:16:00      -75.053      -12.907      -11.343       17.337       14.385       11.396      300.580      206.923      129.868        0.328        0.032       76.155       10.218        0.018      327.362       -7.211      865.939
12/31/2014  21:17:00      -77.613      -17.145       -0.019       27.953       29.619       17.649      781.372      877.259      311.470        0.414        0.099       79.484       14.892        0.035      327.433       -7.095      865.929
12/31/2014  21:18:00      -52.660      -22.438        0.390       26.143       26.439       12.533      683.450      699.028      157.080        0.241        0.077       57.241       10.544        0.034      327.586       -6.846      865.918
12/31/2014  21:19:00      -49.844      -17.169        0.545       16.458       13.269       10.166      270.872      176.057      103.345        0.166        0.028       52.718        6.482        0.015      327.632       -6.772      865.927
12/31/2014  21:20:00      -69.329      -21.337       -7.259       17.166       20.625        9.639      294.687      425.382       92.902        0.306        0.041       72.539        8.039        0.012      327.805       -6.491      865.921
12/31/2014  21:21:00      -72.257      -15.410        0.078       26.063       16.940       13.607      679.279      286.977      185.144        0.330        0.058       73.882       13.708        0.034      327.842       -6.430      865.887
12/31/2014  21:22:00      -65.437      -24.242        0.365       22.174       17.781       13.077      491.680      316.164      171.016        0.292        0.049       69.783       12.814        0.034      327.791       -6.514      865.864
12/31/2014  21:23:00      -33.263      -18.322        2.255       28.865       18.661       13.963      833.192      348.227      194.967        0.141        0.069       37.976       15.798        0.173      327.702       -6.658      865.875
12/31/2014  21:24:00       -7.778      -15.526        9.607       15.438       13.907        7.783      238.344      193.416       60.582        0.044        0.025       17.365        7.685        0.196      327.686       -6.683      865.895
12/31/2014  21:25:00      -38.240      -11.876       -1.399       12.367        8.422        7.873      152.940       70.935       61.981        0.095        0.014       40.041        5.547        0.019      327.802       -6.494      865.889
12/31/2014  21:26:00      -31.184       -5.431       -3.744        9.304        8.402        6.621       86.572       70.595       43.840        0.061        0.010       31.653        5.378        0.029      327.784       -6.524      865.881
12/31/2014  21:27:00       -8.948        8.533        0.908        7.870        7.375        6.608       61.930       54.396       43.660        0.016        0.008       12.364        2.290        0.034      327.762       -6.560      865.892
12/31/2014  21:28:00      -23.147        8.131       -5.266       12.954        7.877        5.568      167.795       62.043       31.000        0.045        0.013       24.534        5.592        0.052      327.688       -6.681      865.911
12/31/2014  21:29:00      -51.026       10.843       -8.643       10.046        6.901        6.437      100.922       47.630       41.431        0.149        0.009       52.166        5.003        0.009      327.685       -6.684      865.916
12/31/2014  21:30:00      -69.757       -7.118      -10.215        7.183        7.863        6.955       51.601       61.820       48.376        0.259        0.008       70.119        3.702        0.003      327.653       -6.738      865.911
12/31/2014  21:31:00      -68.702      -15.701      -13.130        8.340        9.396        6.376       69.563       88.283       40.651        0.267        0.010       70.473        3.925        0.003      327.580       -6.856      865.898
12/31/2014  21:32:00      -68.966      -19.330       -9.283       11.910       12.912        9.086      141.840      166.731       82.563        0.280        0.020       71.624        5.723        0.006      327.518       -6.957      865.880
12/31/2014  21:33:00      -84.116       -7.050       -3.749       22.745       17.387       14.091      517.351      302.295      198.555        0.408        0.051       84.411       12.749        0.023      327.413       -7.128      865.855
12/31/2014  21:34:00      -97.860        2.989      -11.371       26.549       16.363       14.209      704.858      267.733      201.909        0.544        0.059       97.906       11.314        0.013      327.317       -7.284      865.842
12/31/2014  21:35:00      -73.728      -11.203       -1.054       20.897       24.917       17.487      436.692      620.862      305.789        0.346        0.068       74.574       13.596        0.033      327.316       -7.285      865.836
12/31/2014  21:36:00      -76.591      -10.067       -4.155       31.339       21.347       16.708      982.152      455.715      279.160        0.385        0.086       77.250       15.993        0.043      327.317       -7.284      865.835
12/31/2014  21:37:00      -72.500      -10.271       -1.353       33.522       18.797       18.529     1123.743      353.342      343.321        0.359        0.091       73.224       18.282        0.062      327.249       -7.395      865.833
12/31/2014  21:38:00      -81.480       -4.419       -7.263       17.512       16.858       12.060      306.681      284.178      145.438        0.372        0.037       81.600        6.846        0.007      327.269       -7.361      865.817
12/31/2014  21:39:00      -72.454       -2.527       -3.035       26.366       14.983       18.037      695.144      224.493      325.348        0.325        0.062       72.498       17.472        0.058      327.259       -7.378      865.793
12/31/2014  21:40:00      -80.070        6.379       -5.290       34.773       17.245       18.760     1209.127      297.406      351.948        0.417        0.093       80.323       20.745        0.067      327.253       -7.389      865.786
12/31/2014  21:41:00     -109.193       -1.164      -13.963       22.626       14.773       15.048      511.923      218.236      226.436        0.654        0.048      109.199       14.232        0.017      327.219       -7.443      865.789
12/31/2014  21:42:00      -90.033      -10.095      -18.298       15.611       10.482        8.445      243.695      109.864       71.316        0.448        0.021       90.597        6.332        0.005      327.130       -7.588      865.814
12/31/2014  21:43:00      -83.940      -12.895      -10.011       16.760       13.594       11.982      280.885      184.809      143.556        0.396        0.030       84.925        6.072        0.005      327.192       -7.487      865.845
12/31/2014  21:44:00      -98.493      -25.531      -11.121       10.336       11.052        9.481      106.837      122.139       89.885        0.540        0.016      101.748        4.579        0.002      327.149       -7.557      865.886
12/31/2014  21:45:00      -95.102      -14.345      -10.935       20.041       17.044       16.908      401.633      290.510      285.880        0.517        0.049       96.178       11.664        0.015      327.119       -7.605      865.913
12/31/2014  21:46:00      -96.965       -3.660      -13.879       22.164       13.001       14.290      491.252      169.033      204.205        0.524        0.043       97.034       12.084        0.016      327.112       -7.617      865.922
12/31/2014  21:47:00     -116.017       -2.454      -15.799       13.748       10.807       11.979      188.998      116.784      143.505        0.708        0.022      116.043        8.593        0.005      327.015       -7.773      865.925
12/31/2014  21:48:00      -97.560      -11.934      -12.691       14.733       12.715        9.724      217.052      161.681       94.566        0.515        0.024       98.287        7.056        0.005      327.052       -7.713      865.933
12/31/2014  21:49:00      -68.094      -13.032       -9.148       12.843       17.187       11.272      164.955      295.388      127.064        0.274        0.029       69.330        7.821        0.013      327.057       -7.706      865.946
12/31/2014  21:50:00      -50.115      -18.611       -6.800       10.781        8.583        7.359      116.240       73.661       54.160        0.157        0.012       53.459        5.485        0.011      327.124       -7.599      865.949
12/31/2014  21:51:00      -47.002      -26.296       -9.410       15.752        9.744        6.124      248.129       94.937       37.503        0.168        0.019       53.857        4.625        0.007      327.092       -7.648      865.953
12/31/2014  21:52:00      -61.443      -25.724       -9.186        8.555       11.250        6.234       73.187      126.558       38.862        0.238        0.012       66.610        5.550        0.007      327.088       -7.655      865.947
12/31/2014  21:53:00      -70.175      -10.967       -4.839        8.551        9.052        6.605       73.123       81.934       43.632        0.263        0.010       71.026        3.576        0.003      327.082       -7.664      865.951
12/31/2014  21:54:00      -64.185      -18.156      -13.172       13.750        8.454        7.748      189.062       71.471       60.030        0.247        0.016       66.703        2.788        0.002      327.089       -7.654      865.952
12/31/2014  21:55:00      -84.621      -11.349      -10.621       22.713       17.560       18.543      515.884      308.356      343.829        0.428        0.058       85.379        9.516        0.012      327.044       -7.726      865.953
12/31/2014  21:56:00     -113.282      -10.792      -17.781       20.255       14.868       13.033      410.269      221.060      169.848        0.703        0.040      113.795        7.134        0.004      326.980       -7.828      865.954
12/31/2014  21:57:00      -87.667      -31.896      -15.920       23.401       19.453       12.750      547.586      378.423      162.570        0.502        0.054       93.289        8.541        0.008      326.913       -7.940      865.967
12/31/2014  21:58:00      -84.844       -0.832      -13.250       22.038       21.167       13.021      485.660      448.056      169.541        0.424        0.055       84.848       11.118        0.017      326.944       -7.889      865.957
12/31/2014  21:59:00      -81.853      -17.410       -9.885       33.988       19.679       17.503     1155.192      387.253      306.347        0.447        0.092       83.684       16.377        0.038      326.996       -7.806      865.945
12/31/2014  22:00:00      -79.249        0.650       -5.972       32.838       16.101       18.400     1078.313      259.256      338.577        0.400        0.084       79.252       19.450        0.060      326.993       -7.808      865.923
12/31/2014  22:01:00      -89.241       -6.037       -9.962       20.165       13.810       11.676      406.640      190.710      136.321        0.442        0.037       89.445       11.131        0.015      327.007       -7.786      865.908
12/31/2014  22:02:00      -89.306       -6.529      -11.724       23.876       12.169       11.352      570.079      148.079      128.878        0.450        0.042       89.544       11.021        0.015      326.989       -7.815      865.916
12/31/2014  22:03:00      -76.754      -14.704       -8.172       23.904       15.292       11.257      571.378      233.837      126.709        0.355        0.047       78.149       12.485        0.026      327.000       -7.797      865.926
12/31/2014  22:04:00      -66.397      -11.519      -15.231       10.552       10.979        8.979      111.335      120.541       80.620        0.254        0.016       67.389        4.070        0.004      327.006       -7.788      865.925
12/31/2014  22:05:00      -53.357      -11.866       -6.233       12.478       14.559       11.188      155.695      211.978      125.165        0.176        0.025       54.660        4.355        0.006      327.137       -7.576      865.917
12/31/2014  22:06:00      -40.580      -12.288       -5.216        9.425       12.524        7.707       88.839      156.843       59.394        0.106        0.015       42.399        4.193        0.010      327.203       -7.469      865.914
12/31/2014  22:07:00      -47.129      -15.060      -10.899        9.724       10.958        7.997       94.557      120.075       63.948        0.142        0.014       49.477        4.806        0.009      327.146       -7.563      865.926
12/31/2014  22:08:00      -37.481      -14.505        0.929       10.053       11.760        6.996      101.057      138.298       48.943        0.095        0.014       40.189        5.175        0.017      327.224       -7.436      865.934
12/31/2014  22:09:00        5.057       -8.918        2.848       15.072       10.900       10.127      227.162      118.805      102.556        0.028        0.022       10.252        5.680        0.307      327.436       -7.090      865.925
12/31/2014  22:10:00       10.085      -11.804        0.234       10.328       14.993        7.342      106.661      224.794       53.910        0.031        0.019       15.526        4.936        0.101      327.522       -6.949      865.903
12/31/2014  22:11:00       33.769       18.359       12.219       17.894       13.134        9.833      320.198      172.515       96.687        0.111        0.029       38.437        5.774        0.023      327.651       -6.741      865.902
12/31/2014  22:12:00       60.910       20.257       10.780       25.468       17.068       12.561      648.643      291.314      157.782        0.267        0.055       64.190        7.900        0.015      327.678       -6.698      865.899
12/31/2014  22:13:00       40.068       12.618       10.930       28.331       18.898       13.122      802.657      357.116      172.177        0.161        0.067       42.008        6.880        0.027      327.635       -6.766      865.882
12/31/2014  22:14:00       46.021       21.968       23.250       31.391       21.105       15.780      985.364      445.429      249.009        0.241        0.084       50.996       11.412        0.050      327.524       -6.947      865.873
12/31/2014  22:15:00       45.373       18.669       24.905       26.159       22.488       16.792      684.282      505.728      281.979        0.225        0.074       49.064       13.335        0.074      327.472       -7.033      865.873
12/31/2014  22:16:00       35.389       30.304       26.026       34.850       20.637       20.323     1214.518      425.900      413.032        0.245        0.103       46.590       20.471        0.193      327.519       -6.956      865.876
12/31/2014  22:17:00       78.106       56.880       15.593       18.660       16.104       17.812      348.185      259.347      317.264        0.525        0.046       96.622       10.129        0.011      327.494       -6.996      865.873
12/31/2014  22:18:00       86.700       49.587       10.526       32.570       22.266       18.797     1060.831      495.765      353.342        0.600        0.095       99.879       15.012        0.023      327.490       -7.004      865.863
12/31/2014  22:19:00       71.806       52.773        3.364       19.912       17.788       12.191      396.490      316.404      148.624        0.441        0.043       89.112       11.358        0.016      327.502       -6.983      865.848
12/31/2014  22:20:00       60.836       43.948       11.515       25.446       21.799       21.124      647.518      475.204      446.239        0.367        0.078       75.050       11.314        0.023      327.422       -7.113      865.841
12/31/2014  22:21:00      103.710       54.629        3.933       24.746       20.350       15.104      612.367      414.140      228.131        0.750        0.063      117.218       12.563        0.011      327.443       -7.078      865.839
12/31/2014  22:22:00       76.555       35.205        7.159       32.409       18.929       20.334     1050.348      358.319      413.458        0.449        0.091       84.262       13.894        0.027      327.407       -7.138      865.836
12/31/2014  22:23:00       66.235       44.991        3.329       23.829       14.639       15.236      567.833      214.303      232.135        0.372        0.051       80.070       13.692        0.029      327.390       -7.164      865.826
12/31/2014  22:24:00       57.577       46.474       12.657       20.923       17.816       18.182      437.776      317.409      330.583        0.336        0.054       73.993       12.601        0.029      327.379       -7.182      865.812
12/31/2014  22:25:00       91.143       58.796        7.689       21.475       13.297       10.888      461.186      176.821      118.556        0.629        0.038      108.462        8.641        0.006      327.438       -7.087      865.819
12/31/2014  22:26:00       72.026       55.057        6.289       24.316       18.533       13.211      591.271      343.482      174.534        0.468        0.055       90.659       12.219        0.018      327.418       -7.120      865.832
12/31/2014  22:27:00       73.027       51.769        0.821       19.149       18.867       13.516      366.681      355.953      182.677        0.446        0.045       89.515       10.087        0.013      327.397       -7.155      865.845
12/31/2014  22:28:00       51.792       42.663       -3.421       23.953       17.948       13.917      573.743      322.114      193.679        0.280        0.054       67.101       11.403        0.029      327.390       -7.165      865.836
12/31/2014  22:29:00       46.024       31.750        6.299       20.318       17.805       20.359      412.818      317.035      414.477        0.215        0.057       55.913       11.958        0.046      327.371       -7.197      865.814
12/31/2014  22:30:00       51.964       33.502        7.684       21.240       15.903       12.594      451.150      252.917      158.616        0.237        0.043       61.828        6.991        0.013      327.374       -7.191      865.803
12/31/2014  22:31:00       40.256       34.368        2.624       21.566       13.037       14.592      465.092      169.964      212.920        0.183        0.042       52.931       10.234        0.037      327.380       -7.181      865.817
12/31/2014  22:32:00       22.867       50.113       -2.477       15.270       15.067       16.187      233.185      227.002      262.025        0.188        0.036       55.084       12.085        0.048      327.342       -7.243      865.848
12/31/2014  22:33:00       27.108       61.955       -8.738       11.524       14.049       12.538      132.799      197.378      157.212        0.257        0.024       67.626        8.822        0.017      327.359       -7.215      865.876
12/31/2014  22:34:00       29.958       54.166       -6.380       18.663       17.368       11.481      348.305      301.637      131.808        0.233        0.039       61.898       11.621        0.035      327.340       -7.247      865.905
12/31/2014  22:35:00       23.118       34.255        3.380       16.747       22.862       17.165      280.461      522.651      294.636        0.141        0.055       41.326       16.347        0.156      327.364       -7.207      865.906
12/31/2014  22:36:00       52.827       30.702        5.785       20.736       15.173       13.125      430.000      230.223      172.275        0.230        0.042       61.101        9.888        0.026      327.364       -7.206      865.900
12/31/2014  22:37:00       54.644       44.267        2.756       18.183       15.225       12.110      330.609      231.798      146.663        0.283        0.035       70.324        7.411        0.011      327.381       -7.179      865.891
12/31/2014  22:38:00       43.072       37.895        1.739       21.057       12.767       14.050      443.394      162.989      197.404        0.205        0.040       57.370        9.162        0.026      327.378       -7.184      865.888
12/31/2014  22:39:00       25.905       30.348       -1.656       16.356       24.955       11.860      267.513      622.775      140.663        0.131        0.052       39.901       10.647        0.071      327.387       -7.170      865.886
12/31/2014  22:40:00       18.580       34.021        3.172       24.058       18.731       16.586      578.773      350.842      275.102        0.136        0.060       38.764       13.722        0.125      327.374       -7.190      865.872
12/31/2014  22:41:00       22.985       38.008       -0.977       13.159       11.894        8.577      173.165      141.455       73.561        0.118        0.019       44.418        7.370        0.028      327.395       -7.155      865.853
12/31/2014  22:42:00       40.771       35.594        2.115       14.733       10.703        8.565      217.066      114.564       73.362        0.167        0.020       54.122        6.954        0.017      327.438       -7.087      865.828
12/31/2014  22:43:00       46.009       35.316       28.452       20.329       14.812       19.195      413.285      219.410      368.463        0.259        0.050       58.000       10.907        0.035      327.416       -7.123      865.806
12/31/2014  22:44:00       52.962       31.641       27.273       24.127       18.059       17.385      582.109      326.112      302.240        0.288        0.061       61.694        8.602        0.019      327.363       -7.209      865.798
12/31/2014  22:45:00       37.521       25.095       17.246       29.208       15.198       16.378      853.109      230.989      268.225        0.184        0.068       45.139       10.248        0.052      327.320       -7.278      865.799
12/31/2014  22:46:00       19.179       15.458       11.627       16.545       21.196       19.982      273.722      449.255      399.280        0.093        0.056       24.634       13.982        0.322      327.274       -7.354      865.809
12/31/2014  22:47:00       17.881        4.567       12.144       24.689       15.656       18.638      609.523      245.121      347.374        0.084        0.060       18.455       18.072        0.959      327.212       -7.455      865.816
12/31/2014  22:48:00       31.368        7.272        7.014       20.442       14.058       10.259      417.880      197.632      105.255        0.090        0.036       32.200        5.541        0.030      327.292       -7.325      865.830
12/31/2014  22:49:00       13.236        7.191       14.336       15.618        6.894       10.081      243.915       47.529      101.632        0.041        0.020       15.063       10.181        0.457      327.301       -7.309      865.834
12/31/2014  22:50:00        6.034       -2.070        7.140       15.825       16.733        8.194      250.434      279.990       67.140        0.034        0.030        6.379        3.748        0.345      327.270       -7.361      865.823
12/31/2014  22:51:00      -18.994      -17.061        6.932       12.981        8.158        8.626      168.498       66.559       74.401        0.050        0.015       25.532        5.887        0.053      327.048       -7.719      865.806
12/31/2014  22:52:00      -40.864       -5.121       -6.664        8.297        7.796        7.420       68.835       60.774       55.060        0.096        0.009       41.183        4.222        0.011      326.830       -8.075      865.804
12/31/2014  22:53:00      -52.834       -5.637       -4.799       13.113        8.518        9.507      171.941       72.560       90.380        0.159        0.017       53.133        7.337        0.019      326.875       -8.002      865.803
12/31/2014  22:54:00      -69.917        5.436      -10.064       15.056       17.144       14.127      226.689      293.921      199.582        0.287        0.036       70.128       11.305        0.026      326.840       -8.057      865.811
12/31/2014  22:55:00      -49.658        5.371      -17.435       20.517       11.118        9.741      420.965      123.614       94.883        0.172        0.032       49.947        6.122        0.015      326.775       -8.164      865.825
12/31/2014  22:56:00      -31.759        5.349       -4.975       22.864       16.120       12.205      522.769      259.856      148.955        0.100        0.047       32.206       10.411        0.105      326.802       -8.120      865.828
12/31/2014  22:57:00      -37.509       -7.117       -0.996       19.971       17.774       10.194      398.858      315.927      103.921        0.114        0.041       38.179        8.223        0.046      326.838       -8.061      865.835
12/31/2014  22:58:00      -59.767       -0.108      -10.484       20.906       11.337        8.115      437.066      128.520       65.858        0.216        0.032       59.767        9.405        0.025      326.811       -8.106      865.836
12/31/2014  22:59:00      -40.536       -8.997      -10.108       18.603        9.062       10.455      346.090       82.117      109.297        0.118        0.027       41.523       10.328        0.062      326.883       -7.989      865.837
12/31/2014  23:00:00      -41.848       -6.439      -10.849       10.504       10.831        6.548      110.338      117.319       42.881        0.109        0.014       42.341        5.743        0.018      326.926       -7.917      865.844
12/31/2014  23:01:00      -43.501       -4.614       -7.536       14.179        8.463        6.790      201.053       71.622       46.110        0.114        0.016       43.745        4.723        0.012      326.945       -7.888      865.851
12/31/2014  23:02:00      -31.549       -7.765       -6.913        7.051        7.291        5.963       49.721       53.164       35.552        0.062        0.007       32.491        4.194        0.017      327.017       -7.770      865.835
12/31/2014  23:03:00      -35.158       -5.479       -3.488        7.414        5.126        8.277       54.964       26.276       68.507        0.071        0.007       35.583        3.592        0.010      326.999       -7.800      865.806
12/31/2014  23:04:00      -27.600       -8.683       -7.662        8.145        7.820        5.676       66.335       61.146       32.212        0.053        0.008       28.934        3.504        0.015      326.923       -7.925      865.774
12/31/2014  23:05:00      -33.496       -7.172       -7.754       17.292        9.738        8.730      299.006       94.831       76.205        0.085        0.024       34.255        8.504        0.062      326.919       -7.929      865.762
12/31/2014  23:06:00      -11.940        1.237       -2.628        9.747        7.385        9.892       95.008       54.537       97.845        0.020        0.012       12.004        3.133        0.068      326.912       -7.940      865.756
12/31/2014  23:07:00       -1.102        1.952        5.033        5.425        4.463        4.872       29.428       19.917       23.737        0.005        0.004        2.242        1.930        0.741      327.006       -7.788      865.751
12/31/2014  23:08:00       17.337       13.306        6.182        9.102        8.379        8.302       82.852       70.208       68.918        0.037        0.011       21.855        6.881        0.099      327.208       -7.462      865.732
12/31/2014  23:09:00       26.777        9.401       11.836       18.336        9.405        9.323      336.209       88.449       86.919        0.073        0.026       28.379        8.854        0.097      327.189       -7.492      865.715
12/31/2014  23:10:00       16.201        1.480        6.221       14.873        8.954        7.994      221.212       80.167       63.903        0.033        0.018       16.268        6.284        0.149      327.149       -7.557      865.710
12/31/2014  23:11:00        6.073       19.461       28.966       11.395       16.296       10.077      129.852      265.553      101.544        0.088        0.025       20.387       10.157        0.248      327.092       -7.649      865.712
12/31/2014  23:12:00       30.855       26.351       19.497        9.301        7.277        9.044       86.514       52.948       81.802        0.112        0.011       40.576        2.410        0.004      327.086       -7.658      865.704
12/31/2014  23:13:00       30.524       11.320        4.724       16.802       13.468        9.776      282.321      181.391       95.562        0.082        0.028       32.556        8.932        0.075      327.101       -7.634      865.684
12/31/2014  23:14:00        1.464       -0.071        7.180       12.344        6.084        7.244      152.378       37.011       52.482        0.015        0.012        1.466        3.679        6.299      327.084       -7.662      865.673
12/31/2014  23:15:00       22.959       11.361       11.604       19.877       18.388       16.210      395.093      338.134      262.753        0.089        0.050       25.616       11.471        0.201      327.108       -7.623      865.678
12/31/2014  23:16:00       43.159       15.783       13.286       21.719       11.812       13.347      471.703      139.535      178.152        0.154        0.039       45.954        7.168        0.024      327.167       -7.528      865.680
12/31/2014  23:17:00       48.223       29.102       15.156       18.304       13.348       14.774      335.022      178.182      218.283        0.207        0.037       56.324        6.442        0.013      327.203       -7.469      865.682
12/31/2014  23:18:00       31.924       34.382       12.172       25.262       12.390       15.269      638.186      153.507      233.135        0.169        0.051       46.918       13.539        0.083      327.161       -7.537      865.681
12/31/2014  23:19:00       -5.708       19.274       34.568        9.413       13.565       13.654       88.614      184.004      186.443        0.103        0.023       20.102       11.138        0.307      327.092       -7.650      865.665
12/31/2014  23:20:00       14.635        2.759       12.777       12.369       14.690        8.968      152.988      215.797       80.423        0.042        0.022       14.893        6.880        0.213      327.130       -7.588      865.656
12/31/2014  23:21:00       43.455       25.665       15.987       17.317       11.913       10.422      299.870      141.917      108.611        0.168        0.028       50.468        5.243        0.011      327.183       -7.500      865.646
12/31/2014  23:22:00       35.198       23.238       16.320       21.247       13.734       13.844      451.424      188.617      191.643        0.144        0.042       42.177       12.629        0.090      327.145       -7.565      865.643
12/31/2014  23:23:00       34.866       35.053       14.126       11.900       13.090       12.509      141.614      171.354      156.464        0.156        0.023       49.441        6.847        0.019      327.124       -7.598      865.640
12/31/2014  23:24:00       30.787       34.470       10.869        6.262       10.207       11.114       39.218      104.179      123.511        0.126        0.013       46.217        8.998        0.038      327.132       -7.585      865.635
12/31/2014  23:25:00       23.340       30.395       -3.118        5.099       10.204        6.164       25.996      104.118       37.990        0.082        0.008       38.323        3.434        0.008      327.169       -7.522      865.627
12/31/2014  23:26:00       13.648       24.698       -2.095        6.432        6.495        4.129       41.367       42.179       17.052        0.045        0.005       28.219        2.359        0.007      327.172       -7.518      865.627
12/31/2014  23:27:00       -7.203       33.464       -2.140       11.341        9.538        9.321      128.620       90.967       86.890        0.074        0.015       34.230        6.663        0.038      327.124       -7.598      865.632
12/31/2014  23:28:00      -24.438        8.700       -4.369       15.059       22.292        9.787      226.776      496.932       95.785        0.076        0.041       25.940        4.565        0.031      326.880       -7.993      865.625
12/31/2014  23:29:00      -53.797       -9.529       -9.448       16.442        9.890        7.606      270.346       97.810       57.856        0.175        0.021       54.634        3.381        0.004      326.660       -8.350      865.603
12/31/2014  23:30:00      -53.818      -21.065       -6.719       15.618       14.666       11.745      243.926      215.088      137.952        0.199        0.030       57.794        6.452        0.012      326.639       -8.383      865.578
12/31/2014  23:31:00      -39.136      -15.495       -3.541       16.783       15.470        9.887      281.654      239.311       97.750        0.120        0.031       42.091        7.881        0.035      326.669       -8.337      865.551
12/31/2014  23:32:00      -16.134       -2.666       -3.748       15.705       15.279        7.158      246.642      233.455       51.238        0.041        0.027       16.353        6.232        0.145      326.724       -8.246      865.547
12/31/2014  23:33:00      -17.443      -16.471       -1.723       14.275        9.781        6.407      203.788       95.659       41.054        0.046        0.017       23.991        3.765        0.025      326.645       -8.374      865.540
12/31/2014  23:34:00      -33.110      -15.030      -11.651        8.368       11.068        6.690       70.022      122.499       44.761        0.085        0.012       36.362        3.709        0.010      326.688       -8.305      865.537
12/31/2014  23:35:00      -34.016      -10.329       -7.280       10.728        7.891        8.257      115.093       62.272       68.176        0.078        0.012       35.549        6.677        0.035      326.735       -8.227      865.533
12/31/2014  23:36:00      -14.004       -3.001       -4.012        6.219        3.570        3.555       38.671       12.747       12.636        0.014        0.003       14.322        3.248        0.051      326.874       -8.000      865.533
12/31/2014  23:37:00      -17.791       -7.416       -3.274       11.474        5.463        4.696      131.652       29.850       22.055        0.028        0.009       19.274        5.866        0.093      326.929       -7.914      865.536
12/31/2014  23:38:00      -46.068       -6.190      -11.249       15.044        9.510        6.404      226.315       90.445       41.011        0.132        0.018       46.482        3.488        0.006      326.796       -8.129      865.530
12/31/2014  23:39:00      -69.004       -5.856      -10.648       10.799        9.174        8.167      116.611       84.168       66.701        0.259        0.013       69.252        3.342        0.002      326.680       -8.317      865.540
12/31/2014  23:40:00      -50.380      -13.918       -7.992       14.531       10.390        8.941      211.162      107.956       79.941        0.160        0.020       52.267        7.755        0.022      326.729       -8.238      865.547
12/31/2014  23:41:00      -55.399       -3.472       -6.258       14.896       10.676        7.216      221.899      113.983       52.064        0.175        0.019       55.507        6.152        0.012      326.785       -8.146      865.557
12/31/2014  23:42:00      -59.773       -6.878       -9.647        6.453        8.776        5.262       41.645       77.017       27.690        0.193        0.007       60.168        4.051        0.005      326.801       -8.120      865.559
12/31/2014  23:43:00      -76.038       -3.654      -10.274        9.066        8.262        7.761       82.192       68.260       60.241        0.306        0.011       76.126        2.865        0.001      326.746       -8.210      865.553
12/31/2014  23:44:00      -66.080       -6.565       -8.893       18.491       11.942        7.419      341.908      142.608       55.042        0.251        0.027       66.406        5.795        0.008      326.709       -8.269      865.550
12/31/2014  23:45:00      -82.537      -12.093       -7.836        9.910       10.038        7.880       98.212      100.763       62.090        0.364        0.013       83.418        5.109        0.004      326.679       -8.319      865.558
12/31/2014  23:46:00      -92.471      -15.486      -15.313        6.880        7.634        7.541       47.330       58.278       56.866        0.459        0.008       93.759        4.192        0.002      326.740       -8.218      865.563
12/31/2014  23:47:00     -102.428      -12.707      -11.971       16.673       13.403       11.189      277.989      179.646      125.187        0.569        0.029      103.213        9.270        0.008      326.715       -8.260      865.561
12/31/2014  23:48:00     -104.410      -13.425      -12.651       13.976       10.825        9.324      195.324      117.181       86.942        0.582        0.020      105.270        7.817        0.006      326.719       -8.253      865.557
12/31/2014  23:49:00      -93.729      -14.052      -14.454       14.092       13.786       11.500      198.577      190.051      132.240        0.486        0.026       94.777        8.049        0.007      326.701       -8.283      865.562
12/31/2014  23:50:00      -80.797      -22.366       -7.622       13.295       10.646        9.038      176.745      113.341       81.686        0.373        0.019       83.836        5.643        0.005      326.749       -8.205      865.566
12/31/2014  23:51:00      -78.659      -13.433       -3.989        8.252        8.680        6.541       68.101       75.349       42.788        0.328        0.009       79.798        3.592        0.002      326.748       -8.206      865.568
12/31/2014  23:52:00      -57.955      -11.931       -3.851       11.432       15.536        8.742      130.698      241.359       76.429        0.198        0.022       59.170        8.229        0.019      326.758       -8.191      865.556
12/31/2014  23:53:00      -50.696       -3.759       -3.435       29.382       10.132       10.589      863.313      102.660      112.125        0.184        0.054       50.835       15.282        0.090      326.632       -8.396      865.542
12/31/2014  23:54:00      -73.806       -0.969      -10.897       12.578        9.340        6.728      158.216       87.240       45.263        0.293        0.015       73.813        5.420        0.005      326.639       -8.384      865.529
12/31/2014  23:55:00      -62.040       -5.522       -5.586       16.451       11.417       12.058      270.626      130.338      145.384        0.223        0.027       62.285       10.581        0.029      326.681       -8.315      865.518
12/31/2014  23:56:00      -72.550      -16.449       -7.331        9.987       13.798        8.114       99.739      190.394       65.834        0.297        0.018       74.391        4.106        0.003      326.722       -8.249      865.507
12/31/2014  23:57:00      -79.916      -24.008       -7.794        9.148       10.571        8.735       83.685      111.737       76.300        0.365        0.014       83.444        5.465        0.004      326.727       -8.240      865.492
12/31/2014  23:58:00      -68.725      -30.726       -2.869       22.597       14.718       13.485      510.632      216.611      181.845        0.329        0.045       75.281       13.479        0.032      326.736       -8.226      865.479
12/31/2014  23:59:00      -50.931      -18.062       -3.381       18.585       21.534       10.444      345.401      463.706      109.075        0.192        0.046       54.039        9.955        0.034      326.652       -8.363      865.466
